[[{"header":{"parameterUnit":"m.s-1","parameterCategory":1,"la1":30.6,"la2":28.766,"lo1":-90.7593,"lo2":-88.6598,"dy":0.0162,"dx":0.0183,"nx":116,"ny":114,"refTime":"2023-06-23T12:00:00:Z","depth":0,"parameterNumber":2,"parameterNumberName":"U-component_of_WINDS"},"data":[0.0,0.0,0.0,0.0,0.0,0.0,0.0,0.0,0.0,0.0,0.0,0.0,0.0,0.0,0.0,0.0,0.0,0.0,0.0,0.0,0.0,0.0,0.0,0.0,0.0,0.0,0.0,0.0,0.0,0.0,0.0,0.0,0.0,0.0,0.0,0.0,0.0,0.0,0.0,0.0,0.0,0.0,0.0,0.0,0.0,0.0,0.0,0.0,0.0,0.0,0.0,0.0,0.0,0.0,0.0,0.0,0.0,0.0,0.0,0.0,0.0,0.0,0.0,0.0,0.0,0.0,0.0,0.0,0.0,0.0,0.0,0.0,0.0,0.0,0.0,0.0,0.0,0.0,0.0,0.0,0.0,0.0,0.0,0.0,0.0,0.0,0.0,0.0,0.0,0.0,0.0,0.0,0.0,0.0,0.0,0.0,0.0,0.0,0.0,0.0,0.0,0.0,0.0,0.0,0.0,0.0,0.0,0.0,0.0,0.0,0.0,0.0,0.0,0.0,0.0,0.0,0.0,0.0,0.0,0.0,0.0,0.0,0.0,0.0,0.0,0.0,0.0,0.0,0.0,0.0,0.0,0.0,0.0,0.0,0.0,0.0,0.0,0.0,0.0,0.0,0.0,0.0,0.0,0.0,0.0,0.0,0.0,0.0,0.0,0.0,0.0,0.0,0.0,0.0,0.0,0.0,0.0,0.0,0.0,0.0,0.0,0.0,0.0,0.0,0.0,0.0,0.0,0.0,0.0,0.0,0.0,0.0,0.0,0.0,0.0,0.0,0.0,0.0,0.0,0.0,0.0,0.0,0.0,0.0,0.0,0.0,0.0,0.0,0.0,0.0,0.0,0.0,0.0,0.0,0.0,0.0,0.0,0.0,0.0,0.0,0.0,0.0,0.0,0.0,0.0,0.0,0.0,0.0,0.0,0.0,0.0,0.0,0.0,0.0,0.0,0.0,0.0,0.0,0.0,0.0,0.0,0.0,0.0,0.0,0.0,0.0,0.0,0.0,0.0,0.0,0.0,0.0,0.0,0.0,0.0,0.0,0.0,0.0,0.0,0.0,0.0,0.0,0.0,0.0,0.0,0.0,0.0,0.0,0.0,0.0,0.0,0.0,0.0,0.0,0.0,0.0,0.0,0.0,0.0,0.0,0.0,0.0,0.0,0.0,0.0,0.0,0.0,0.0,0.0,0.0,0.0,0.0,0.0,0.0,0.0,0.0,0.0,0.0,0.0,0.0,0.0,0.0,0.0,0.0,0.0,0.0,0.0,0.0,0.0,0.0,0.0,0.0,0.0,0.0,0.0,0.0,0.0,0.0,0.0,0.0,0.0,0.0,0.0,0.0,0.0,0.0,0.0,0.0,0.0,0.0,0.0,0.0,0.0,0.0,0.0,0.0,0.0,0.0,0.0,0.0,0.0,0.0,0.0,0.0,0.0,0.0,0.0,0.0,0.0,0.0,0.0,0.0,0.0,0.0,0.0,0.0,0.0,0.0,0.0,0.0,0.0,0.0,0.0,0.0,0.0,0.0,0.0,0.0,0.0,0.0,0.0,0.0,0.0,0.0,0.0,0.0,0.0,0.0,0.0,0.0,0.0,0.0,0.0,0.0,0.0,0.0,0.0,0.0,0.0,0.0,0.0,0.0,0.0,0.0,0.0,0.0,0.0,0.0,0.0,0.0,0.0,0.0,0.0,0.0,0.0,0.0,0.0,0.0,0.0,0.0,0.0,0.0,0.0,0.0,0.0,0.0,0.0,0.0,0.0,0.0,0.0,0.0,0.0,0.0,0.0,0.0,0.0,0.0,0.0,0.0,0.0,0.0,0.0,0.0,0.0,0.0,0.0,0.0,0.0,0.0,0.0,0.0,0.0,0.0,0.0,0.0,0.0,0.0,0.0,0.0,0.0,0.0,0.0,0.0,0.0,0.0,0.0,0.0,0.0,0.0,0.0,0.0,0.0,0.0,0.0,0.0,0.0,0.0,0.0,0.0,0.0,0.0,0.0,0.0,0.0,0.0,0.0,0.0,0.0,0.0,0.0,0.0,0.0,0.0,0.0,0.0,0.0,0.0,0.0,0.0,0.0,0.0,0.0,0.0,0.0,0.0,0.0,0.0,0.0,0.0,0.0,0.0,0.0,0.0,0.0,0.0,0.0,0.0,0.0,0.0,0.0,0.0,0.0,0.0,0.0,0.0,0.0,0.0,0.0,0.0,0.0,0.0,0.0,0.0,0.0,0.0,0.0,0.0,0.0,0.0,0.0,0.0,0.0,0.0,0.0,0.0,0.0,0.0,0.0,0.0,0.0,0.0,0.0,0.0,0.0,0.0,0.0,0.0,0.0,0.0,0.0,0.0,0.0,0.0,0.0,0.0,0.0,0.0,0.0,0.0,0.0,0.0,0.0,0.0,0.0,0.0,0.0,0.0,0.0,0.0,0.0,0.0,0.0,0.0,0.0,0.0,0.0,0.0,0.0,0.0,0.0,0.0,0.0,0.0,0.0,0.0,0.0,0.0,0.0,0.0,0.0,0.0,0.0,0.0,0.0,0.0,0.0,0.0,0.0,0.0,0.0,0.0,0.0,0.0,0.0,0.0,0.0,0.0,0.0,0.0,0.0,0.0,0.0,0.0,0.0,0.0,0.0,0.0,0.0,0.0,0.0,0.0,0.0,0.0,0.0,0.0,0.0,0.0,0.0,0.0,0.0,0.0,0.0,0.0,0.0,0.0,0.0,0.0,0.0,0.0,0.0,0.0,0.0,0.0,0.0,0.0,0.0,0.0,0.0,0.0,0.0,0.0,0.0,0.0,0.0,0.0,0.0,0.0,0.0,0.0,0.0,0.0,0.0,0.0,0.0,0.0,0.0,0.0,0.0,0.0,0.0,0.0,0.0,0.0,0.0,0.0,0.0,0.0,0.0,0.0,0.0,0.0,0.0,0.0,0.0,0.0,0.0,0.0,0.0,0.0,0.0,0.0,0.0,0.0,0.0,0.0,0.0,0.0,0.0,0.0,0.0,0.0,0.0,0.0,0.0,0.0,0.0,0.0,0.0,0.0,0.0,0.0,0.0,0.0,0.0,0.0,0.0,0.0,0.0,0.0,0.0,0.0,0.0,0.0,0.0,0.0,0.0,0.0,0.0,0.0,0.0,0.0,0.0,0.0,0.0,0.0,0.0,0.0,0.0,0.0,0.0,0.0,0.0,0.0,0.0,0.0,0.0,0.0,0.0,0.0,0.0,0.0,0.0,0.0,0.0,0.0,0.0,0.0,0.0,0.0,0.0,0.0,0.0,0.0,0.0,0.0,0.0,0.0,0.0,0.0,0.0,0.0,0.0,0.0,0.0,0.0,0.0,0.0,0.0,0.0,0.0,0.0,0.0,0.0,0.0,0.0,0.0,0.0,0.0,0.0,0.0,0.0,0.0,0.0,0.0,0.0,0.0,0.0,0.0,0.0,0.0,0.0,0.0,0.0,0.0,0.0,0.0,0.0,0.0,0.0,0.0,0.0,0.0,0.0,0.0,0.0,0.0,0.0,0.0,0.0,0.0,0.0,0.0,0.0,0.0,0.0,0.0,0.0,0.0,0.0,0.0,0.0,0.0,0.0,0.0,0.0,0.0,0.0,0.0,0.0,0.0,0.0,0.0,0.0,0.0,0.0,0.0,0.0,0.0,0.0,0.0,0.0,0.0,0.0,0.0,0.0,0.0,0.0,0.0,0.0,0.0,0.0,0.0,0.0,0.0,0.0,0.0,0.0,0.0,0.0,0.0,0.0,0.0,0.0,0.0,0.0,0.0,0.0,0.0,0.0,0.0,0.0,0.0,0.0,0.0,0.0,0.0,0.0,0.0,0.0,0.0,0.0,0.0,0.0,0.0,0.0,0.0,0.0,0.0,0.0,0.0,0.0,0.0,0.0,0.0,0.0,0.0,0.0,0.0,0.0,0.0,0.0,0.0,0.0,0.0,0.0,0.0,0.0,0.0,0.0,0.0,0.0,0.0,0.0,0.0,0.0,0.0,0.0,0.0,0.0,0.0,0.0,0.0,0.0,0.0,0.0,0.0,0.0,0.0,0.0,0.0,0.0,0.0,0.0,0.0,0.0,0.0,0.0,0.0,0.0,0.0,0.0,0.0,0.0,0.0,0.0,0.0,0.0,0.0,0.0,0.0,0.0,0.0,0.0,0.0,0.0,0.0,0.0,0.0,0.0,0.0,0.0,0.0,0.0,0.0,0.0,0.0,0.0,0.0,0.0,0.0,0.0,0.0,0.0,0.0,0.0,0.0,0.0,0.0,0.0,0.0,0.0,0.0,0.0,0.0,0.0,0.0,0.0,0.0,0.0,0.0,0.0,0.0,0.0,0.0,0.0,0.0,0.0,0.0,0.0,0.0,0.0,0.0,0.0,0.0,0.0,0.0,0.0,0.0,0.0,0.0,0.0,0.0,0.0,0.0,0.0,0.0,0.0,0.0,0.0,0.0,0.0,0.0,0.0,0.0,0.0,0.0,0.0,0.0,0.0,0.0,0.0,0.0,0.0,0.0,0.0,0.0,0.0,0.0,0.0,0.0,0.0,0.0,0.0,0.0,0.0,0.0,0.0,0.0,0.0,0.0,0.0,0.0,0.0,0.0,0.0,0.0,0.0,0.0,0.0,0.0,0.0,0.0,0.0,0.0,0.0,0.0,0.0,0.0,0.0,0.0,0.0,0.0,0.0,0.0,0.0,0.0,0.0,0.0,0.0,0.0,0.0,0.0,0.0,0.0,0.0,0.0,0.0,0.0,0.0,0.0,0.0,0.0,0.0,0.0,0.0,0.0,0.0,0.0,0.0,0.0,0.0,0.0,0.0,0.0,0.0,0.0,0.0,0.0,0.0,0.0,0.0,0.0,0.0,0.0,0.0,0.0,0.0,0.0,0.0,0.0,0.0,0.0,0.0,0.0,0.0,0.0,0.0,0.0,0.0,0.0,0.0,0.0,0.0,0.0,0.0,0.0,0.0,0.0,0.0,0.0,0.0,0.0,0.0,0.0,0.0,0.0,0.0,0.0,0.0,0.0,0.0,0.0,0.0,0.0,0.0,0.0,0.0,0.0,0.0,0.0,0.0,0.0,0.0,0.0,0.0,0.0,0.0,0.0,0.0,0.0,0.0,0.0,0.0,0.0,0.0,0.0,0.0,0.0,0.0,0.0,0.0,0.0,0.0,0.0,0.0,0.0,0.0,0.0,0.0,0.0,0.0,0.0,0.0,0.0,0.0,0.0,0.0,0.0,0.0,0.0,0.0,0.0,0.0,0.0,0.0,0.0,0.0,0.0,0.0,0.0,0.0,0.0,0.0,0.0,0.0,0.0,0.0,0.0,0.0,0.0,0.0,0.0,0.0,0.0,0.0,0.0,0.0,0.0,0.0,0.0,0.0,0.0,0.0,0.0,0.0,0.0,0.0,0.0,0.0,0.0,0.0,0.0,0.0,0.0,0.0,0.0,0.0,0.0,0.0,0.0,0.0,0.0,0.0,0.0,0.0,0.0,0.0,0.0,0.0,0.0,0.0,0.0,0.0,0.0,0.0,0.0,0.0,0.0,0.0,0.0,0.0,0.0,0.0,0.0,0.0,0.0,0.0,0.0,0.0,0.0,0.0,0.0,0.0,0.0,0.0,0.0,0.0,0.0,0.0,0.0,0.0,0.0,0.0,0.0,0.0,0.0,0.0,0.0,0.0,0.0,0.0,0.0,0.0,0.0,0.0,0.0,0.0,0.0,0.0,0.0,0.0,0.0,0.0,0.0,0.0,0.0,0.0,0.0,0.0,0.0,0.0,0.0,0.0,0.0,0.0,0.0,0.0,0.0,0.0,0.0,0.0,0.0,0.0,0.0,0.0,0.0,0.0,0.0,0.0,0.0,0.0,0.0,0.0,0.0,0.0,0.0,0.0,0.0,0.0,0.0,0.0,0.0,0.0,0.0,0.0,0.0,0.0,0.0,0.0,0.0,0.0,0.0,0.0,0.0,0.0,0.0,0.0,0.0,0.0,0.0,0.0,0.0,0.0,0.0,0.0,0.0,0.0,0.0,0.0,0.0,0.0,0.0,0.0,0.0,0.0,0.0,0.0,0.0,0.0,-2.4072,-2.2446,0.0,0.0,0.0,0.0,0.0,0.0,0.0,0.0,0.0,0.0,0.0,0.0,0.0,0.0,0.0,0.0,0.0,0.0,0.0,0.0,0.0,0.0,0.0,0.0,0.0,0.0,0.0,0.0,0.0,0.0,0.0,0.0,0.0,0.0,0.0,0.0,0.0,0.0,0.0,0.0,0.0,0.0,0.0,0.0,0.0,0.0,0.0,0.0,0.0,0.0,0.0,0.0,0.0,0.0,0.0,0.0,0.0,0.0,0.0,0.0,0.0,0.0,0.0,0.0,0.0,0.0,0.0,0.0,0.0,0.0,0.0,0.0,0.0,0.0,0.0,0.0,0.0,0.0,0.0,0.0,0.0,0.0,0.0,0.0,0.0,0.0,0.0,0.0,0.0,0.0,0.0,0.0,0.0,0.0,0.0,0.0,0.0,0.0,0.0,0.0,0.0,0.0,0.0,0.0,0.0,0.0,0.0,0.0,0.0,0.0,0.0,0.0,0.0,0.0,-2.548,-2.4421,0.0,0.0,0.0,0.0,0.0,0.0,0.0,0.0,0.0,0.0,0.0,0.0,0.0,0.0,0.0,0.0,0.0,0.0,0.0,0.0,0.0,0.0,0.0,0.0,0.0,0.0,0.0,0.0,0.0,0.0,0.0,0.0,0.0,0.0,0.0,0.0,0.0,0.0,0.0,0.0,0.0,0.0,0.0,0.0,0.0,0.0,0.0,0.0,0.0,0.0,0.0,0.0,0.0,0.0,0.0,0.0,0.0,0.0,0.0,0.0,0.0,0.0,0.0,0.0,0.0,0.0,0.0,0.0,0.0,0.0,0.0,0.0,0.0,0.0,0.0,0.0,0.0,0.0,0.0,0.0,0.0,0.0,0.0,0.0,0.0,0.0,0.0,0.0,0.0,0.0,0.0,0.0,0.0,0.0,0.0,0.0,0.0,0.0,0.0,0.0,0.0,0.0,0.0,0.0,0.0,0.0,0.0,0.0,-2.8957,-2.8554,-2.8285,-2.7382,-2.7036,-2.7214,-2.6085,-2.5449,-2.5193,-2.4431,0.0,0.0,0.0,0.0,0.0,0.0,0.0,0.0,0.0,0.0,0.0,0.0,0.0,0.0,0.0,0.0,0.0,0.0,0.0,0.0,0.0,0.0,0.0,0.0,0.0,0.0,0.0,0.0,0.0,0.0,0.0,0.0,0.0,0.0,0.0,0.0,0.0,0.0,-0.4075,-0.3563,-0.2276,-0.0278,0.2187,0.0,0.0,0.0,0.0,0.0,0.0,0.0,0.0,0.0,0.0,0.0,0.0,0.0,0.0,0.0,0.0,0.0,0.0,0.0,0.0,0.0,0.0,0.0,0.0,0.0,0.0,0.0,0.0,0.0,0.0,0.0,0.0,0.0,0.0,0.0,0.0,0.0,0.0,0.0,0.0,0.0,0.0,0.0,-2.7206,-2.9175,0.0,0.0,0.0,0.0,0.0,0.0,0.0,0.0,0.0,0.0,0.0,0.0,0.0,-2.9972,-3.0355,-3.1032,-3.1033,-3.0425,-3.1092,-3.0613,-2.9191,-2.8335,-2.7799,-2.747,-2.6405,0.0,-2.4932,-2.4856,0.0,0.0,0.0,0.0,0.0,0.0,0.0,0.0,0.0,0.0,0.0,0.0,0.0,0.0,0.0,0.0,0.0,0.0,0.0,0.0,0.0,0.0,0.0,0.0,0.0,0.0,0.0,0.0,0.0,0.0,0.0,0.0,0.0,0.0,0.0,0.0,-0.2204,-0.5415,-0.7695,-0.8882,-0.9762,-1.0225,-0.7637,-0.3103,0.2624,0.3775,0.0,0.0,0.0,0.0,0.0,0.0,0.0,0.0,0.0,0.0,0.0,0.0,0.0,0.0,0.0,0.0,0.0,0.0,0.0,0.0,0.0,0.0,0.0,0.0,0.0,0.0,0.0,0.0,0.0,0.0,0.0,0.0,0.0,0.0,0.0,0.0,0.0,0.0,0.0,-2.5348,-2.8975,-2.7666,-2.8838,-2.8762,0.0,0.0,0.0,0.0,0.0,0.0,0.0,0.0,0.0,-3.1609,-3.1648,-3.2173,-3.3263,-3.266,-3.2227,-3.1934,-3.0898,-3.0016,-2.9246,-2.797,-2.742,-2.7483,-2.6435,-2.5738,-2.5384,-2.5528,-2.479,-2.3648,0.0,0.0,0.0,0.0,-2.4539,-2.4659,0.0,0.0,0.0,0.0,0.0,0.0,0.0,0.0,0.0,0.0,0.0,0.0,0.0,0.0,0.0,0.1483,0.0,0.0,0.0,0.0,0.0,0.0,0.0,0.0,0.0,0.0,0.0,0.0,-0.7114,-0.8712,-0.969,-1.1989,-1.405,-1.5719,-1.3867,-0.8815,-0.1595,-0.0079,0.2394,0.0,0.0,0.0,0.0,0.0,0.0,0.0,0.0,0.0,0.0,0.0,0.0,0.0,0.0,0.0,0.0,0.0,0.0,0.0,0.0,0.0,0.0,0.0,0.0,0.0,0.0,0.0,0.0,0.0,0.0,0.0,0.0,0.0,0.0,0.0,0.0,0.0,0.0,-2.8433,-2.9656,-2.6764,-2.9574,-3.033,0.0,0.0,0.0,0.0,0.0,0.0,-3.0726,-3.0831,-3.166,-3.3426,-3.3384,-3.4064,-3.5493,-3.3684,-3.2877,-3.2977,-3.0489,-2.9146,-2.8847,-2.7437,-2.6815,-2.6768,-2.6004,-2.556,-2.5338,-2.5667,-2.5123,-2.4147,-2.4311,-2.4275,-2.4206,-2.468,-2.4879,-2.4941,0.0,0.0,0.0,0.0,0.0,0.0,0.0,0.0,0.0,0.0,0.0,0.0,0.0,0.0,0.4475,0.1688,0.065,0.2763,0.0,0.0,0.0,0.0,0.0,0.0,0.0,0.0,0.0,-0.9092,-0.8549,-0.9086,-1.0645,-1.1436,-1.2877,-1.4745,-1.4179,-1.1607,-0.7344,-0.2489,0.0785,0.2902,0.0,0.0,0.0,0.0,0.0,0.0,0.0,0.0,0.0,0.0,0.0,0.0,0.0,0.0,0.0,0.0,0.0,0.0,0.0,0.0,0.0,0.0,0.0,0.0,0.0,0.0,0.0,0.0,0.0,0.0,0.0,0.0,0.0,0.0,0.0,0.0,0.0,0.0,0.0,-3.0171,-3.3478,0.0,0.0,0.0,0.0,-3.0445,-3.1155,-3.1939,-3.2791,-3.3023,-3.3696,-3.4933,-3.4718,-3.4905,-3.5493,-3.3517,-3.2683,-3.2977,-3.0489,-2.887,-2.8032,-2.7207,-2.6133,-2.4932,-2.4879,-2.465,-2.43,-2.478,-2.4468,-2.3775,-2.4147,-2.4076,-2.3833,-2.4545,-2.4833,-2.468,0.0,0.0,0.0,0.0,0.0,0.0,0.0,0.0,0.0,0.0,0.0,0.0,0.0,0.1291,-0.2428,-0.898,-0.9995,-0.7035,0.0515,0.0,0.0,0.0,0.0,0.0,0.0,0.0,-0.7524,-0.8556,-0.7661,-0.7375,-0.771,-0.8529,-0.9595,-1.0714,-1.1135,-1.0069,-0.7873,-0.5689,-0.2379,0.1445,0.1743,0.2018,0.0,0.0,0.0,0.0,0.0,0.0,0.0,0.0,0.0,0.0,0.0,0.0,0.0,0.0,0.0,0.0,0.0,0.0,0.0,0.0,0.0,0.0,0.0,0.0,0.0,0.0,0.0,0.0,0.0,0.0,0.0,0.0,0.0,0.0,0.0,0.0,0.0,-3.1469,-3.4489,0.0,-3.2034,-3.2631,-3.324,-3.3177,-3.3799,-3.4284,-3.4572,-3.412,-3.417,-3.4813,-3.4206,-3.4035,-3.4397,-3.26,-3.1593,-3.1317,-2.9404,-2.8056,-2.7144,-2.6331,-2.568,-2.5178,-2.4917,-2.4716,-2.458,-2.4271,-2.423,-2.4437,-2.4621,-2.4549,-2.446,-2.4771,-2.499,-2.5157,0.0,0.0,0.0,0.0,0.0,0.0,0.0,0.0,0.0,0.0,0.0,0.5371,-0.0188,-0.2386,-0.6098,-1.2763,-1.3912,-1.0944,-0.3188,0.0,0.0,0.0,0.0,0.0,0.0,-0.8934,-0.7573,-0.7086,-0.6361,-0.5641,-0.4951,-0.5602,-0.6253,-0.6845,-0.6458,-0.6537,-0.6904,-0.5484,-0.3612,-0.1507,-0.1153,-0.0894,-0.084,0.0,0.0,0.0,0.0,0.0,0.0,0.0,0.0,0.0,0.0,0.0,0.0,0.0,0.0,0.0,0.0,0.0,0.0,0.0,0.0,0.0,0.0,0.0,0.0,0.0,0.0,0.0,0.0,0.0,0.0,0.0,0.0,0.0,0.0,-3.2892,-3.481,-3.2038,-3.5301,-3.6468,-3.3108,-3.4375,-3.527,-3.4921,-3.5511,-3.574,-3.5328,-3.4772,-3.4362,-3.4116,-3.3489,-3.3202,-3.3369,-3.1933,-3.092,-3.039,-2.8846,-2.7605,-2.6652,-2.5874,-2.5383,-2.5167,-2.4905,-2.4731,-2.4559,-2.4078,-2.4164,-2.4592,-2.4599,-2.4641,-2.4725,-2.4811,-2.4946,-2.5112,0.0,0.0,0.0,0.0,0.0,0.0,0.0,0.0,0.0,0.0,0.6143,0.4227,0.0389,-0.2988,-0.5935,-0.8336,-0.9911,-0.8019,-0.142,-0.6543,0.0,0.0,0.0,0.0,-0.9627,-0.8791,-0.729,-0.5061,-0.4862,-0.4067,-0.269,-0.2826,-0.3068,-0.3357,-0.056,-0.1328,-0.45,-0.1641,-0.2576,-0.5808,-0.3371,-0.3808,-0.5882,0.0,0.0,0.0,0.0,0.0,0.0,0.0,0.0,0.0,0.0,0.0,0.0,0.0,0.0,0.0,0.0,0.0,0.0,0.0,0.0,0.0,0.0,0.0,0.0,0.0,0.0,0.0,0.0,0.0,0.0,0.0,0.0,0.0,-3.0503,-3.3807,-3.5248,-3.2289,-3.6185,-3.7616,-3.3815,-3.569,-3.6656,-3.564,-3.6236,-3.6159,-3.5018,-3.4917,-3.4308,-3.2985,-3.2699,-3.2538,-3.2546,-3.1404,-3.0652,-3.0314,-2.876,-2.7566,-2.6652,-2.5837,-2.5243,-2.4789,-2.4812,-2.4575,-2.4209,-2.419,-2.419,-2.419,-2.4043,-2.4192,-2.4493,-2.4716,-2.4654,-2.4373,0.0,0.0,0.0,0.0,0.0,0.0,0.0,0.0,0.0,0.0,0.5779,0.3524,0.0209,-0.1198,-0.2696,-0.4684,-0.5744,-0.5273,-0.2867,0.0,0.0,0.0,0.0,0.0,-0.8693,-0.6493,-0.5043,-0.4298,-0.286,-0.1566,-0.0469,0.0147,0.0875,0.1747,0.2202,0.2273,0.2004,0.1609,0.0233,-0.2031,-0.5536,-0.6727,-0.6578,0.0,0.0,0.0,0.0,0.0,0.0,0.0,0.0,0.0,0.0,0.0,0.0,0.0,0.0,0.0,0.0,0.0,0.0,0.0,0.0,0.0,0.0,0.0,0.0,0.0,0.0,0.0,0.0,0.0,0.0,0.0,-3.1013,-3.3119,-3.316,-3.5506,-3.7066,-3.6793,-3.7963,-3.8219,-3.6771,-3.7268,-3.7318,-3.646,-3.6012,-3.533,-3.4201,-3.3587,-3.2805,-3.1863,-3.139,-3.1229,-3.1369,-3.0067,-2.9126,-2.8582,-2.758,-2.6644,-2.5831,-2.5544,-2.5284,-2.5069,-2.4879,-2.4654,-2.441,-2.4266,-2.419,-2.419,-2.4153,-2.4191,-2.4303,-2.4339,-2.4173,-2.3842,0.0,0.0,0.0,0.0,0.0,0.0,0.0,0.0,0.0,0.0,0.6084,0.4235,0.1929,0.1272,0.0669,-0.0146,-0.0624,-0.0973,-0.1293,0.0,0.0,0.0,0.0,-0.7228,-0.6238,-0.4564,-0.334,-0.2475,-0.1138,0.0157,0.1386,0.2425,0.3524,0.4716,0.6411,0.7799,0.8864,0.9267,0.7366,0.3685,-0.0803,-0.4358,-0.716,-0.9326,-1.1473,-1.3916,-1.7814,-2.0698,-2.2817,-2.4143,0.0,0.0,0.0,0.0,0.0,0.0,0.0,0.0,0.0,0.0,0.0,0.0,0.0,0.0,0.0,0.0,0.0,0.0,0.0,0.0,0.0,0.0,0.0,0.0,-3.2366,-3.4372,-3.4694,-3.6417,-3.7854,-3.8328,-3.8266,-3.7838,-3.6977,-3.6777,-3.6192,-3.5043,-3.455,-3.3857,-3.2842,-3.2339,-3.1715,-3.0907,-3.0376,-3.0016,-2.9848,-2.8791,-2.7994,-2.7393,-2.6955,-2.6312,-2.5531,-2.5463,-2.5333,-2.5197,-2.4917,-2.4731,-2.4591,-2.4303,-2.4247,-2.4321,0.0,0.0,0.0,0.0,-2.4022,-2.3559,0.0,0.0,0.0,0.0,0.0,0.0,0.0,0.0,0.0,0.0,0.0,0.5912,0.4698,0.4204,0.4116,0.461,0.4668,0.3791,0.0,0.0,0.0,-0.5411,-0.5682,-0.4911,-0.3017,-0.2728,-0.1796,-0.0133,0.0486,0.1508,0.2968,0.4208,0.5277,0.6315,1.0835,1.3486,1.4762,1.7944,1.6009,1.0626,0.7956,0.1495,-0.6794,-0.8618,-1.1028,-1.3993,-1.8843,-2.162,-2.3414,-2.5605,0.0,0.0,0.0,0.0,0.0,0.0,0.0,0.0,0.0,0.0,0.0,0.0,0.0,0.0,0.0,0.0,0.0,0.0,0.0,0.0,0.0,0.0,0.0,0.0,-3.3406,-3.5098,-3.5076,-3.6423,-3.7434,-3.7572,-3.7358,-3.6692,-3.5411,-3.5036,-3.4182,-3.2574,-3.2517,-3.214,-3.1224,-3.1237,0.0,0.0,0.0,-2.8876,-2.8282,-2.769,-2.7136,-2.6699,-2.667,-2.6281,-2.5598,-2.5525,-2.5385,-2.5197,-2.4941,-2.4818,-2.4775,-2.4428,-2.4357,-2.4513,-2.4497,-2.4479,-2.4479,-2.4479,-2.4025,-2.3466,0.0,0.0,0.0,0.0,0.0,0.0,0.0,0.0,0.0,0.9606,0.863,0.7544,0.6287,0.7149,0.7739,0.7516,0.7551,0.5959,0.0,0.0,-0.1939,-0.27,-0.1902,-0.122,-0.0817,0.0141,0.0871,0.1365,0.2497,0.358,0.4572,0.5591,0.6816,0.8282,1.1691,1.3659,1.4591,1.6833,1.7923,1.776,1.385,0.675,-0.1981,-0.6114,-1.0439,-1.4769,-1.7509,-2.1131,-2.4855,-2.6151,-2.7833,-2.9365,-2.9385,0.0,0.0,0.0,0.0,0.0,0.0,0.0,0.0,0.0,0.0,0.0,0.0,0.0,0.0,0.0,0.0,0.0,0.0,0.0,0.0,-3.0334,-3.2401,-3.3907,-3.3806,-3.4074,-3.4548,-3.5368,-3.5434,-3.5041,-3.4122,-3.3975,-3.3327,-3.1755,-3.1917,-3.1473,-3.0051,-3.0246,-2.9769,-2.8301,-2.8322,-2.8054,-2.7415,-2.683,-2.6565,-2.6622,-2.5956,0.0,-2.5516,-2.5467,-2.5347,-2.5205,-2.5007,-2.4904,-2.479,-2.4716,-2.4607,-2.4459,-2.4303,-2.4266,-2.4266,-2.4266,-2.3821,-2.3247,0.0,0.0,0.0,0.0,0.0,0.0,0.0,0.0,0.0,0.0,1.0922,1.0174,0.9446,1.0198,1.0772,1.0845,0.88,0.0,0.0,0.1279,-0.005,-0.0248,0.0642,0.1262,0.1636,0.2461,0.3084,0.342,0.4547,0.5565,0.6464,0.7572,0.8713,0.9983,1.2803,1.4837,1.63,1.8298,1.9673,2.032,1.7566,1.3508,0.8326,0.1307,-0.4681,-0.976,-1.3516,-1.8141,-2.279,-2.4513,-2.6055,-2.7378,-2.8233,-2.7846,-2.6953,0.0,0.0,0.0,0.0,0.0,0.0,0.0,0.0,0.0,0.0,0.0,0.0,0.0,0.0,-2.4575,-2.5257,0.0,-2.9103,-3.0535,-3.1748,-3.2317,-3.1951,-3.1582,-3.2097,-3.3878,-3.3981,-3.3705,-3.3388,-3.2858,-3.2036,-3.0902,-3.0624,-3.0027,-2.881,-2.8732,-2.8324,-2.7523,-2.7093,-2.6766,-2.6459,-2.5853,-2.564,-2.5851,-2.5455,-2.5356,-2.5535,-2.5468,-2.5395,-2.535,-2.5139,-2.5061,-2.5056,-2.493,-2.4795,-2.4623,-2.4445,-2.4303,-2.419,-2.419,-2.3774,-2.3189,0.0,0.0,0.0,0.0,0.0,0.0,0.0,0.0,0.0,0.0,1.3338,1.2902,1.2396,1.2817,1.3113,0.0,0.0,0.0,0.0,0.3099,0.1889,0.213,0.2865,0.3487,0.4009,0.4648,0.5189,0.5704,0.6557,0.7494,0.8518,0.954,1.0541,1.1554,1.4059,1.6249,1.8143,2.0411,2.1362,2.1325,2.0483,1.9638,1.8051,1.0299,0.3652,-0.2123,-0.7001,-1.1951,-1.6622,-1.9222,-2.0873,-2.2174,-2.4333,-2.4891,-2.4672,-2.4413,-2.4433,0.0,0.0,0.0,0.0,0.0,0.0,0.0,0.0,-2.004,-2.0245,-2.1731,-2.2768,-2.3913,-2.5362,-2.6486,-2.7912,-3.0075,-3.044,-3.0159,-2.9334,-2.8553,-2.8885,-3.1067,-3.1698,-3.1974,-3.2085,-3.1321,-3.0485,-2.9677,-2.9105,-2.8529,-2.7818,-2.7478,-2.7184,-2.6896,-2.6167,-2.5634,-2.5356,-2.496,-2.4853,-2.5091,-2.5072,-2.5251,-2.5593,-2.5505,-2.5497,-2.5503,-2.526,-2.5216,-2.5293,-2.5088,-2.493,-2.4775,-2.4575,-2.4375,-2.419,-2.419,-2.3774,-2.3189,0.0,0.0,0.0,0.0,0.0,0.0,0.0,0.0,0.0,0.0,0.0,0.0,0.0,0.0,0.0,0.0,0.0,0.0,0.6999,0.5723,0.4871,0.4522,0.5644,0.6154,0.5813,0.6864,0.7647,0.8095,0.8493,0.9365,1.0564,1.0783,1.1645,1.3153,1.558,1.732,1.861,2.167,2.2921,2.2893,2.3255,2.2425,2.0749,1.8617,1.3265,0.6458,0.3276,0.0077,-0.3227,-0.6761,-1.0012,-1.3267,-1.7071,-1.9824,-2.174,-2.2398,0.0,-2.1317,-2.1236,-2.0829,-2.057,-2.1339,-2.0346,-2.0239,0.0,-2.2773,-2.1368,-2.3309,-2.4218,-2.4526,-2.4304,-2.5997,-2.7424,-2.7202,-2.7282,-2.687,-2.5268,-2.4001,-2.3475,-2.4147,-2.6939,-2.8817,-2.8909,-2.8809,-2.8363,-2.7507,-2.767,-2.7638,-2.74,-2.7648,-2.7173,-2.5719,-2.5865,-2.539,-2.421,-2.4408,-2.4693,-2.5015,-2.507,-2.5252,-2.5507,-2.55,-2.5543,-2.5593,-2.5434,-2.5335,-2.5293,-2.5088,-2.493,-2.4775,-2.4575,-2.4375,-2.419,-2.419,-2.3774,-2.3189,0.0,0.0,0.0,0.0,0.0,0.0,0.0,0.0,0.0,0.0,0.0,0.0,0.0,0.0,0.0,0.0,0.0,0.0,0.939,0.8317,0.7622,0.7345,0.8157,0.8686,0.8909,0.964,1.0359,1.09,1.1659,1.2453,1.324,1.3664,1.459,1.5918,1.7402,1.9035,2.0771,2.2523,2.3707,2.4447,2.4547,2.4072,2.3182,2.2246,1.9982,1.6516,1.0098,0.7145,0.0,0.0,-0.3285,-0.5581,-0.9545,-1.2505,-1.4823,-1.6374,-1.7689,0.0,-2.0834,-2.0853,-2.0471,-2.0943,-2.0618,-2.0336,-2.0977,-2.0331,-1.9913,-2.0769,-2.1429,-2.1919,-2.1837,-2.2622,-2.3345,-2.3464,-2.3136,-2.2592,-2.1653,-2.0335,-1.9607,-2.0098,-2.1174,-2.3223,-2.6632,-2.6566,-2.643,-2.6576,-2.6335,-2.5994,-2.5511,-2.5409,-2.5039,-2.4206,-2.4068,-2.3957,-2.3826,-2.3963,-2.4316,-2.4877,-2.4917,-2.512,-2.5493,-2.5499,-2.5544,-2.5598,-2.5446,-2.5383,-2.5327,-2.5083,-2.4981,-2.4891,-2.4623,-2.4338,-2.406,-2.3939,-2.361,-2.3165,0.0,0.0,0.0,0.0,0.0,0.0,0.0,0.0,0.0,0.0,0.0,0.0,0.0,0.0,0.0,0.0,0.0,0.0,0.0,1.0471,0.9899,0.9701,1.0223,1.0759,1.1378,1.1873,1.251,1.3252,1.4014,1.4777,1.5517,1.6123,1.6962,1.8069,1.9159,2.06,2.2235,2.3269,2.4296,2.5251,2.5191,2.5195,2.5147,2.4331,2.4227,2.3599,1.6606,1.4311,0.0,0.0,0.4819,0.3086,-0.1175,-0.4738,-0.7788,-1.0288,-1.3658,-1.7122,-1.9396,-1.9837,-1.9733,-1.9674,-1.9701,-1.9302,-1.7478,-1.7424,-1.766,-1.7405,-1.7778,-1.8249,-1.8458,-1.8999,-1.9564,-1.9938,-1.9798,-1.9479,-1.9041,-1.7511,-1.6741,-1.7511,-1.6998,-1.8533,-2.3589,-2.3905,-2.4134,-2.5002,-2.4874,-2.4484,-2.3978,-2.3832,-2.3523,-2.3063,-2.289,-2.3038,-2.3566,-2.3631,-2.4062,-2.4804,-2.4804,-2.5045,-2.5493,-2.5524,-2.5579,-2.5598,-2.5468,-2.5381,-2.5313,-2.505,-2.4866,-2.4705,-2.4405,-2.4062,-2.3769,-2.3508,-2.3259,-2.3021,0.0,0.0,0.0,0.0,0.0,0.0,0.0,0.0,0.0,0.0,0.0,0.0,0.0,0.0,0.0,0.0,0.0,0.0,0.0,1.2036,1.1513,1.1258,1.1769,1.2208,1.2551,1.3073,1.383,1.4841,1.4841,1.5628,1.7055,1.7436,1.8069,1.894,2.0722,2.1733,2.2224,2.4013,2.4804,2.4953,2.5246,2.5839,2.6458,2.5523,2.5532,2.5749,2.3654,0.0,0.0,1.8924,1.6173,1.3536,0.8338,0.3139,0.0,-0.5295,-1.0595,-1.549,-1.6007,-1.6616,-1.7084,-1.7022,-1.7123,-1.6847,-1.5336,-1.5141,-1.4974,-1.4003,-1.3899,-1.4103,-1.4117,-1.5797,-1.7232,-1.7308,-1.8033,-1.8407,-1.8072,-1.5835,-1.482,-1.6529,-1.5614,-1.6022,-1.9225,-2.0335,-2.1274,-2.2177,-2.3065,-2.3485,-2.3344,-2.3877,-2.3738,-2.2764,-2.3029,-2.3199,-2.3212,-2.3544,-2.4062,-2.4804,-2.4804,-2.5045,-2.5493,-2.5615,-2.5662,-2.5601,-2.5516,-2.5363,-2.5072,-2.4879,-2.45,-2.4025,-2.3785,-2.3522,-2.3189,-2.2848,-2.2721,-2.2721,0.0,0.0,0.0,0.0,0.0,0.0,0.0,0.0,0.0,0.0,0.0,0.0,0.0,0.0,0.0,0.0,0.0,0.0,0.0,1.4767,1.4316,1.4603,1.445,1.4778,1.5604,1.5819,1.6292,1.6994,1.738,1.7982,1.8737,1.9023,1.9685,2.0708,2.1547,2.241,2.33,2.4351,2.5335,2.6173,2.6246,2.6794,2.7496,2.6536,2.6304,2.6303,0.0,0.0,0.0,2.126,1.9101,1.6878,1.1864,0.6358,0.0464,-0.5933,-1.0543,-1.3568,-1.3923,-1.4967,-1.5845,-1.5286,-1.5438,-1.5122,-1.3246,-1.2201,-1.1364,-1.0433,-1.0025,-0.987,-1.0105,-1.1973,-1.3557,-1.3867,-1.5884,-1.7353,-1.6806,-1.6865,-1.7119,-1.7599,-1.7327,-1.8004,-2.0129,-2.0081,-2.01,-2.0722,-2.1961,-2.2317,-2.1571,-2.2879,-2.3233,-2.2279,-2.2666,-2.2983,-2.3189,-2.3305,-2.385,-2.4804,-2.5129,-2.535,-2.5498,-2.5585,-2.5611,-2.5598,-2.5344,-2.5164,-2.5062,-2.4743,-2.4351,-2.3987,-2.3801,-2.3351,-2.2848,-2.2746,-2.2573,-2.2426,0.0,0.0,0.0,0.0,0.0,0.0,0.0,0.0,0.0,0.0,0.0,0.0,0.0,0.0,0.0,0.0,0.0,0.0,0.0,0.0,1.6481,1.6829,1.6497,1.6855,1.7954,1.7993,1.8264,1.8844,1.9611,2.0203,2.0717,2.0989,2.1573,2.2411,2.2733,2.3472,2.4441,2.5307,2.6085,2.6684,2.6704,2.7059,2.7457,2.6599,2.6404,0.0,0.0,0.0,0.0,2.2321,2.0179,1.7618,1.3281,0.6966,-0.0155,-0.6617,-1.0122,-1.2108,-1.2899,-1.3413,-1.3671,-1.355,-1.3205,-1.2296,-1.0239,-0.9192,-0.8205,-0.695,-0.6677,-0.6812,-0.7271,-1.0003,-1.221,-1.2329,-1.5343,-1.7782,-1.7952,-1.8622,-1.9541,-2.0852,-2.0861,-2.1464,-2.3251,-2.2774,-2.2138,-2.1605,-2.2213,-2.2395,-2.1975,-2.3179,-2.3554,-2.29,-2.331,-2.3798,-2.4379,-2.4401,-2.4725,-2.5374,-2.5434,-2.5492,-2.5512,-2.5539,-2.5542,-2.5535,-2.526,-2.5062,-2.4941,-2.4526,-2.41,-2.3707,-2.3441,-2.2996,-2.252,-2.2351,-2.2192,-2.2061,0.0,0.0,0.0,0.0,0.0,0.0,0.0,0.0,0.0,0.0,0.0,0.0,0.0,0.0,0.0,0.0,0.0,0.0,0.0,0.0,0.0,1.7981,1.7943,1.8427,1.9497,1.9532,1.9771,2.0276,2.1375,2.218,2.2715,2.3105,2.3474,2.3824,2.4226,2.4777,2.5426,2.6655,2.691,2.6528,2.6754,2.6775,2.6583,2.5926,0.0,0.0,0.0,0.0,0.0,2.2489,1.9492,1.5708,1.2383,0.5009,-0.3202,-0.6918,-0.9266,-1.093,-1.2664,-1.1905,-1.0821,-1.1709,-1.0414,-0.8411,-0.6478,-0.6002,-0.5462,-0.3538,-0.3872,-0.4732,-0.5625,-0.9777,-1.3014,-1.2819,-1.65,-1.9901,-2.1492,-2.1277,-2.232,-2.6144,-2.596,-2.6245,-2.8083,-2.8061,-2.7091,-2.5015,-2.4018,-2.3836,-2.4511,-2.4847,-2.4911,-2.4641,-2.5038,-2.5718,-2.6626,-2.663,-2.6601,-2.6477,-2.5844,-2.5538,-2.5586,-2.5535,-2.5517,-2.5473,-2.5202,-2.4979,-2.4727,-2.4222,-2.3687,-2.3165,-2.2822,-2.2493,-2.2209,-2.1735,-2.1552,-2.1612,0.0,0.0,0.0,0.0,0.0,0.0,0.0,0.0,0.0,0.0,0.0,0.0,0.0,0.0,0.0,0.0,0.0,0.0,0.0,0.0,0.0,0.0,0.0,0.0,0.0,0.0,0.0,0.0,0.0,2.2214,2.2857,2.2958,2.3271,2.3816,2.417,2.4524,2.4923,2.5385,2.6042,2.6793,0.0,2.8028,2.8478,0.0,0.0,0.0,0.0,0.0,0.0,2.0823,1.4719,0.7557,0.3868,-0.0545,-0.4782,-0.6779,-0.8017,-0.8765,-0.9268,-0.9342,-0.9163,-0.8792,-0.7721,-0.6314,-0.4318,-0.2125,-0.0709,-0.1505,-0.1687,-0.263,-0.5519,-1.0535,-1.4616,-1.5613,-2.082,-2.5084,-2.6104,-2.8158,-3.0094,-3.1598,-3.2031,-3.2563,-3.3505,-3.3023,-3.2961,-3.3665,-2.9639,-2.6954,-2.6408,-2.7807,-2.8328,-2.7699,-2.8396,-2.878,-2.873,-2.8517,-2.8087,-2.7458,-2.7432,-2.707,-2.6445,-2.6255,-2.5829,-2.5164,-2.4803,-2.4625,-2.4532,-2.4004,-2.353,-2.3141,-2.2504,-2.2046,-2.1735,-2.1306,-2.115,-2.115,0.0,0.0,0.0,0.0,0.0,0.0,0.0,0.0,0.0,0.0,0.0,0.0,0.0,0.0,0.0,0.0,0.0,0.0,0.0,0.0,0.0,0.0,0.0,0.0,0.0,0.0,0.0,0.0,0.0,0.0,0.0,2.4039,2.4312,2.4801,2.4838,2.5096,2.5568,2.6391,0.0,0.0,0.0,0.0,0.0,0.0,0.0,0.0,0.0,0.0,0.0,1.4693,0.9243,0.3233,-0.1142,-0.3912,-0.5704,-0.6917,-0.7631,-0.8052,-0.8144,-0.8088,-0.7976,-0.7538,-0.6288,-0.4804,-0.3327,-0.1346,-0.0298,-0.1991,-0.2627,-0.3899,-0.7404,-1.2897,-1.7168,-1.8009,-2.354,-2.8146,-2.9488,-3.1934,-3.4164,-3.5711,-3.6464,-3.7111,-3.7728,-3.7276,-3.7501,-3.8761,-3.3786,-3.0789,-3.1005,-3.1518,-3.1627,-3.126,-3.1486,-3.1424,-3.0921,-3.0069,-2.9386,-2.8783,-2.8142,-2.7571,-2.6993,-2.6474,-2.5945,-2.5475,-2.4782,-2.4425,-2.4228,-2.3702,-2.3189,-2.266,-2.2096,-2.1668,-2.1275,-2.0862,-2.0698,-2.0632,0.0,0.0,0.0,0.0,0.0,0.0,0.0,0.0,0.0,0.0,0.0,0.0,0.0,0.0,0.0,0.0,0.0,0.0,0.0,0.0,0.0,0.0,0.0,0.0,0.0,0.0,0.0,0.0,0.0,0.0,0.0,0.0,0.0,0.0,0.0,0.0,0.0,0.0,0.0,0.0,0.0,0.0,0.0,0.0,0.0,0.0,0.0,0.0,0.0,0.0,0.4257,0.1167,-0.3317,-0.5234,-0.59,-0.6804,-0.7232,-0.754,-0.7922,-0.7441,-0.689,-0.7065,-0.5741,-0.4196,-0.334,-0.257,-0.2479,-0.411,-0.5315,-0.7112,-1.0528,-1.5956,-2.0008,-2.0335,-2.5499,-3.0186,-3.2342,-3.422,-3.6363,-3.8973,-3.9746,-4.036,-4.1042,-4.0962,-4.1101,-4.1714,-3.746,-3.5322,-3.6324,-3.5296,-3.4679,-3.4754,-3.418,-3.3576,-3.2923,-3.1562,-3.0654,-3.021,-2.8646,-2.7708,-2.7348,-2.6516,-2.6026,-2.5747,-2.4799,-2.4192,-2.3833,-2.3211,-2.2669,-2.2175,-2.165,-2.1279,-2.0984,-2.0439,-2.0203,-2.0005,0.0,0.0,0.0,0.0,0.0,0.0,0.0,0.0,0.0,0.0,2.427,2.4142,0.0,0.0,0.0,0.0,0.0,0.0,0.0,0.0,0.0,0.0,0.0,0.0,0.0,0.0,0.0,0.0,0.0,0.0,0.0,0.0,0.0,0.0,0.0,0.0,0.0,0.0,0.0,0.0,0.0,0.0,0.0,0.0,0.0,0.0,0.0,0.0,0.0,0.0,0.316,-0.1035,-0.251,-0.3567,-0.4398,-0.4563,-0.4653,-0.4882,-0.5711,-0.5792,-0.5702,-0.5859,-0.5677,-0.5332,-0.4466,-0.4322,-0.4866,-0.6693,-0.7977,-0.9836,-1.3476,-1.7781,-2.1547,-2.3778,-2.8372,-3.2795,-3.6071,-3.7925,-3.9727,-4.1939,-4.24,-4.2805,-4.3356,-4.3685,-4.407,-4.4548,-4.3097,-4.107,-3.8536,-3.7566,-3.6986,-3.6722,-3.5814,-3.4882,-3.3955,-3.3549,-3.2561,-3.0926,-3.0304,-2.925,-2.7846,-2.7138,-2.6095,-2.4817,-2.4147,-2.3636,-2.3247,-2.2221,-2.2228,-2.2768,-2.1217,-2.0903,-2.1225,-2.0255,-1.9572,-1.9095,0.0,0.0,0.0,0.0,0.0,0.0,0.0,2.3739,2.2973,2.2533,2.2288,2.2752,2.4292,2.4319,0.0,0.0,0.0,0.0,0.0,0.0,0.0,0.0,0.0,0.0,0.0,0.0,2.5449,2.5106,0.0,0.0,0.0,2.526,2.5335,0.0,0.0,0.0,0.0,0.0,0.0,0.0,0.0,0.0,0.0,0.0,0.0,0.0,0.0,0.0,0.0,0.0,0.595,0.2484,-0.0342,-0.1497,-0.199,-0.2466,-0.2935,-0.3538,-0.4417,-0.5027,-0.5533,-0.6226,-0.7301,-0.8206,-0.7951,-0.872,-1.0034,-1.1778,-1.2638,-1.416,-1.754,-2.1026,-2.4105,-2.6272,-3.0687,-3.4823,-3.7773,-4.028,-4.2412,-4.4173,-4.4881,-4.5177,-4.5051,-4.523,-4.535,-4.5333,-4.4498,-4.3374,-4.1997,-4.0343,-3.8921,-3.7851,-3.6872,-3.586,-3.4783,-3.4195,-3.3165,-3.175,-3.0448,-2.9219,-2.8069,-2.6639,-2.5394,-2.4313,-2.3577,-2.2925,-2.2248,-2.1414,-2.1344,-2.1582,-2.043,-2.024,-2.0485,-1.9986,-1.962,-1.933,0.0,0.0,0.0,0.0,0.0,0.0,0.0,2.3035,2.1635,2.0666,2.0295,2.0876,2.285,2.3786,2.4351,0.0,0.0,0.0,0.0,0.0,0.0,0.0,0.0,0.0,0.0,0.0,0.0,2.5422,2.6141,0.0,0.0,0.0,0.0,0.0,2.5311,2.5303,0.0,0.0,0.0,0.0,0.0,2.839,0.0,0.0,0.0,0.0,0.0,0.0,0.0,0.0,0.963,0.7437,0.3326,0.1695,0.112,-0.0198,-0.1189,-0.2062,-0.3159,-0.425,-0.5507,-0.7163,-0.9524,-1.1563,-1.2172,-1.4271,-1.6321,-1.7118,-1.7881,-1.9094,-2.1458,-2.4039,-2.6346,-2.8086,-3.2039,-3.5923,-3.901,-4.1937,-4.4418,-4.6165,-4.7061,-4.7234,-4.6508,-4.6321,-4.6111,-4.5863,-4.4986,-4.4343,-4.4142,-4.1924,-3.9949,-3.8432,-3.7288,-3.6142,-3.4936,-3.4037,-3.2931,-3.1618,-2.9916,-2.8534,-2.7435,-2.5848,-2.4679,-2.385,-2.2961,-2.2146,-2.1371,-2.0638,-2.0273,-2.0185,-1.9701,-1.9613,-1.9853,-1.9782,-1.979,-1.9718,0.0,0.0,0.0,0.0,0.0,0.0,0.0,2.3824,2.2522,2.0806,2.0355,1.9739,1.855,2.1402,2.3581,0.0,0.0,0.0,0.0,0.0,0.0,0.0,0.0,0.0,0.0,0.0,0.0,2.5388,2.5504,0.0,0.0,0.0,0.0,0.0,0.0,2.4912,2.4881,0.0,0.0,0.0,0.0,0.0,0.0,0.0,0.0,0.0,0.0,0.0,1.7803,0.0,1.2234,1.1328,0.9125,0.7298,0.5389,0.2684,0.1426,0.0599,-0.1097,-0.2909,-0.5098,-0.8274,-1.176,-1.4838,-1.6498,-2.0333,-2.2988,-2.1119,-2.273,-2.4435,-2.4132,-2.5379,-2.7056,-2.8971,-3.172,-3.542,-4.0722,-4.3159,-4.5453,-4.8181,-4.8747,-4.8621,-4.7879,-4.7319,-4.7072,-4.7206,-4.6406,-4.4859,-4.2396,-4.0519,-3.9173,-3.8332,-3.6617,-3.5106,-3.3769,-3.3241,-3.1703,-2.924,-2.89,-2.749,-2.5115,-2.5138,-2.4458,-2.3141,-2.2072,-2.1467,-2.1109,-1.9664,-1.9333,-1.9717,-1.9239,-1.9436,-1.9972,-1.9861,-1.9788,-1.9737,0.0,0.0,0.0,0.0,0.0,0.0,2.4625,2.2904,2.0952,1.89,1.7562,1.6323,1.5166,1.7339,1.9948,0.0,0.0,0.0,0.0,0.0,0.0,0.0,0.0,0.0,0.0,0.0,2.5156,2.4982,2.4906,0.0,0.0,0.0,0.0,0.0,0.0,2.358,2.3859,2.4094,0.0,0.0,0.0,0.0,0.0,0.0,0.0,0.0,0.0,0.0,1.9919,1.7327,1.5421,1.3861,1.2697,1.1654,0.0,0.6545,0.3755,0.1635,0.0771,-0.1887,-0.5494,-1.0008,-1.3735,-1.7168,-2.0332,-2.3915,-2.6096,-2.4222,-2.5494,-2.6964,-2.6874,-2.802,-2.9365,-3.0549,-3.3252,-3.6291,-3.9337,-4.1968,-4.4729,-4.7793,-4.8431,-4.8748,-4.9067,-4.8376,-4.7459,-4.6216,-4.5583,-4.4523,-4.2859,-4.1478,-4.0247,-3.9251,-3.7021,-3.5512,-3.4813,-3.3799,-3.2183,-2.9916,-2.8864,-2.7075,-2.4667,-2.401,-2.2981,-2.1686,-2.1269,-2.1021,-2.0784,-1.9489,-1.9513,-2.0255,-1.9363,-1.9556,-2.0425,-2.0343,-2.0192,-2.0031,0.0,0.0,0.0,0.0,0.0,2.5089,2.4673,2.2348,1.9738,1.7165,1.4718,1.2623,1.1072,1.2146,1.4063,1.6639,0.0,0.0,0.0,0.0,0.0,0.0,0.0,0.0,0.0,0.0,2.4471,2.3914,2.3395,2.281,0.0,0.0,2.1653,2.1576,0.0,0.0,0.0,0.0,0.0,0.0,0.0,0.0,0.0,0.0,0.0,0.0,0.0,0.0,0.0,0.0,0.0,0.0,0.0,0.0,0.0,0.0,0.6574,0.4125,0.326,0.0075,-0.4654,-1.1288,-1.5233,-1.8823,-2.3826,-2.6797,-2.7971,-2.6301,-2.75,-2.8935,-2.9223,-3.0162,-3.1205,-3.1974,-3.4455,-3.6973,-3.8887,-4.177,-4.476,-4.7587,-4.8179,-4.8755,-4.9764,-4.8967,-4.7478,-4.5396,-4.4777,-4.4107,-4.3297,-4.2094,-4.0864,-3.9547,-3.7141,-3.5634,-3.507,-3.3853,-3.2072,-2.9796,-2.8515,-2.6417,-2.3716,-2.304,-2.2011,-2.0778,-2.0615,-2.0598,-2.0662,-1.9672,-1.9754,-2.0428,-1.9786,-1.9987,-2.069,-2.0623,-2.0491,-2.0381,0.0,0.0,0.0,0.0,0.0,0.0,2.5059,2.2622,1.9593,1.6161,1.2551,0.9048,0.5834,0.5786,0.5745,0.5135,0.0,0.0,0.0,0.0,0.0,0.0,0.0,0.0,0.0,0.0,2.3347,2.2039,2.0629,1.977,1.944,1.8359,1.8369,1.9199,0.0,0.0,0.0,0.0,0.0,0.0,0.0,0.0,0.0,0.0,0.0,0.0,0.0,0.0,0.0,0.0,0.0,0.0,0.0,0.0,0.0,0.0,1.0109,0.8898,0.679,0.3302,-0.2176,-1.2002,-1.6175,-1.9688,-2.6986,-2.9139,-2.9037,-2.7186,-2.883,-3.0691,-3.1005,-3.1441,-3.2068,-3.3103,-3.4862,-3.7145,-4.0231,-4.3312,-4.6074,-4.8224,-4.8504,-4.8906,-4.9883,-4.8808,-4.7194,-4.5235,-4.4383,-4.3709,-4.3235,-4.1869,-4.0409,-3.885,-3.6748,-3.5066,-3.3944,-3.2841,-3.0872,-2.8015,-2.7518,-2.5369,-2.1738,-2.2394,-2.2024,-2.0769,-2.0092,-2.0171,-2.0743,-2.0066,-1.978,-1.9861,-2.0413,-2.0718,-2.0661,-2.0322,-2.0558,-2.0794,0.0,0.0,0.0,0.0,0.0,0.0,0.0,2.0773,1.5915,1.2152,0.7839,0.4383,0.2603,0.2102,0.2394,0.3651,0.0,0.0,0.0,0.0,0.0,0.0,0.0,0.0,0.0,0.0,0.0,1.9957,1.859,1.7395,1.6323,1.6171,1.6078,1.6132,1.596,1.6153,0.0,0.0,0.0,0.0,0.0,0.0,0.0,0.0,0.0,0.0,0.0,0.0,0.0,0.0,0.0,0.0,0.0,0.0,0.0,0.0,0.0,0.5012,0.3505,-0.0843,-0.6788,-1.4268,-1.7678,-2.0707,-2.6545,-2.8002,-2.8171,-2.8513,-3.0269,-3.1963,-3.2682,-3.3331,-3.4074,-3.5038,-3.6285,-3.7905,-4.0112,-4.2834,-4.5562,-4.8189,-4.9705,-4.9896,-4.8265,-4.7411,-4.6081,-4.3953,-4.3332,-4.285,-4.2279,-4.0961,-4.0182,-4.0019,-3.8329,-3.6751,-3.5381,-3.418,-3.1974,-2.8737,-2.8316,-2.6119,-2.2394,-2.2616,-2.1776,-2.0093,-1.9864,-2.0398,-2.1274,-2.0656,-2.0861,-2.1587,-2.1306,-2.1468,-2.1706,-2.0995,-2.0717,-2.0574,0.0,0.0,0.0,0.0,0.0,0.0,0.0,1.5108,1.0071,0.6809,0.2908,-0.0151,-0.1602,-0.2572,-0.2733,-0.1748,0.0,0.0,0.0,0.0,0.0,0.0,0.0,0.0,0.0,2.1191,2.018,1.9045,1.6943,1.5477,1.4603,1.382,1.3638,1.4092,1.3721,1.399,0.0,0.0,0.0,0.0,0.0,0.0,2.5669,0.0,0.0,0.0,0.0,0.0,0.0,0.0,0.0,0.0,0.0,0.0,0.0,0.0,-0.6839,-0.2979,0.0,-0.551,-1.0304,-1.6718,-1.9372,-2.1764,-2.7015,-2.8135,-2.8349,-2.9255,-3.0935,-3.2504,-3.3396,-3.3838,-3.4513,-3.593,-3.6914,-3.8257,-4.0537,-4.3206,-4.5859,-4.8351,-4.9914,-4.971,-4.6997,-4.642,-4.5392,-4.3433,-4.2498,-4.1853,-4.1473,-3.9974,-3.9268,-3.9606,-3.8308,-3.6932,-3.5496,-3.4459,-3.2653,-3.0022,-2.9013,-2.6868,-2.3794,-2.327,-2.2234,-2.0835,-2.0598,-2.0907,0.0,-2.1183,-2.1441,-2.1995,-2.1635,-2.1649,-2.1712,-2.104,-2.0624,-2.0204,0.0,0.0,0.0,0.0,0.0,0.0,0.0,0.0,0.2889,0.0345,-0.2127,-0.4437,-0.64,-0.7629,-0.8703,-0.9585,0.0,0.0,0.0,0.0,0.0,0.0,0.0,0.0,0.0,2.1088,2.0377,1.9091,1.5838,1.4195,1.3984,1.1453,1.1192,1.2784,1.1919,1.2274,0.0,0.0,0.0,0.0,0.0,0.0,0.0,0.0,0.0,0.0,0.0,0.0,0.0,0.0,0.0,0.0,0.0,0.0,0.0,0.0,0.0,0.0,0.0,-1.0985,-1.3189,-1.9304,-2.1376,-2.3203,-2.8245,0.0,0.0,-2.9699,-3.0988,-3.2453,-3.3434,-3.3332,-3.3795,-3.5914,-3.6874,-3.8352,-4.1279,-4.4276,-4.6824,-4.8625,-4.9363,-4.8702,-4.6038,-4.5661,-4.4927,-4.3324,-4.1665,-4.0711,-4.0629,-3.8925,-3.792,-3.7702,-3.6973,-3.5922,-3.4548,-3.3857,-3.2846,-3.1495,-2.9527,-2.7618,-2.5705,-2.439,-2.3412,-2.2618,-2.1966,-2.166,-2.1655,-2.1605,-2.1574,-2.1543,-2.1437,-2.128,-2.0936,-2.0516,-2.016,-1.9775,0.0,0.0,0.0,0.0,0.0,0.0,0.0,0.0,0.0,0.0,-0.7108,-0.7776,-0.8463,-0.9302,-0.9658,0.0,0.0,0.0,0.0,0.0,0.0,0.0,0.0,0.0,0.0,1.9879,1.9691,1.8956,1.6313,1.4083,1.2165,1.0902,1.0094,0.9821,1.0045,0.0,0.0,0.0,0.0,0.0,0.0,0.0,0.0,0.0,0.0,0.0,-1.3073,-1.7333,0.0,0.0,0.0,0.0,0.0,0.0,0.0,0.0,-2.6022,-2.5113,-2.4322,0.0,-1.929,-2.2552,-2.4944,-2.7066,0.0,0.0,0.0,0.0,0.0,-3.2814,-3.451,-3.441,-3.447,-3.572,-3.6831,-3.8266,-4.0416,-4.5395,-4.8716,-4.8396,-5.0005,-4.9156,-4.4196,-4.4165,-4.364,-4.165,-4.0037,-3.8712,-3.7806,-3.7848,-3.6886,-3.4762,-3.5439,-3.5231,-3.3897,-3.374,-3.2671,-3.0769,-3.0232,-2.8747,-2.6341,-2.604,-2.5024,-2.3458,-2.3251,-2.3098,-2.2923,-2.2505,-2.2253,-2.2013,-2.1052,-2.0792,-2.0875,-1.9878,-1.9716,-1.9817,0.0,0.0,0.0,0.0,0.0,0.0,0.0,0.0,0.0,0.0,0.0,0.0,0.0,0.0,0.0,0.0,0.0,0.0,0.0,0.0,0.0,0.0,0.0,0.0,0.0,1.8907,1.9029,1.925,1.6031,1.3578,1.1892,0.9923,0.893,0.876,0.9248,0.0,0.0,0.0,0.0,0.0,1.1838,0.0,0.0,0.0,0.0,0.0,-1.9961,-2.4019,0.0,-2.8955,-3.0307,-3.0637,0.0,0.0,0.0,0.0,-2.9874,-2.9339,-2.9245,-2.6813,-2.4559,-2.5531,-2.7686,-2.9622,-2.9627,0.0,0.0,0.0,0.0,-3.3514,-3.433,-3.5072,-3.5605,-3.5584,-3.7281,-3.9274,-4.1302,-4.4711,-4.7206,-4.7717,-4.8343,-4.751,-4.4391,-4.3526,-4.243,-4.0591,-3.8659,-3.7317,-3.6658,-3.6056,-3.5022,-3.3536,-3.363,-3.3508,-3.3169,-3.3169,-3.2573,-3.142,-3.0791,-2.9759,-2.8366,-2.7748,-2.6849,-2.5841,-2.5185,-2.4504,-2.3755,-2.2989,-2.2095,-2.1272,-2.0313,-1.9936,-1.9772,-1.9381,-1.939,-1.9586,0.0,0.0,0.0,0.0,0.0,0.0,0.0,0.0,0.0,0.0,0.0,0.0,0.0,0.0,0.0,0.0,0.0,0.0,0.0,0.0,0.0,0.0,0.0,1.5143,1.7859,1.7085,1.7119,1.8115,1.3902,1.151,1.0768,0.8177,0.7461,0.8448,0.8697,0.8017,0.0,0.0,0.7668,0.6981,0.7922,0.0,0.0,0.0,0.0,0.0,0.0,0.0,0.0,-2.9913,-3.0581,-3.0694,-3.0625,0.0,0.0,0.0,0.0,0.0,-2.9846,-2.968,-2.9255,-2.8336,-2.9913,-3.1446,-3.043,0.0,0.0,0.0,0.0,0.0,-3.42,-3.5419,0.0,-3.5556,-3.7642,-4.0308,-4.3063,-4.3963,-4.4993,-4.6837,-4.6381,-4.56,-4.4677,-4.3002,-4.121,-3.9495,-3.7281,-3.5921,-3.5675,-3.4053,-3.2963,-3.2667,-3.196,-3.1753,-3.2169,-3.2288,-3.2377,-3.2347,-3.121,-3.0612,-3.0492,-2.9254,-2.8595,-2.831,-2.706,-2.5764,-2.4394,-2.3228,-2.1878,-2.0413,-1.9663,-1.9104,-1.8722,-1.8858,-1.9032,-1.9199,0.0,0.0,0.0,0.0,0.0,0.0,0.0,0.0,0.0,0.0,0.0,0.0,0.0,0.0,0.0,0.0,0.0,0.0,0.0,0.0,0.0,0.0,1.1611,1.2894,1.3965,1.1651,1.0631,1.0921,0.6875,0.4495,0.3693,0.4071,0.5388,0.731,0.7059,0.7476,0.8454,0.8719,0.8458,0.7687,0.644,0.0,0.0,0.0,0.0,0.0,0.0,0.0,0.0,-3.0238,-3.0569,-3.0684,-3.0637,0.0,0.0,0.0,0.0,0.0,-3.0335,-3.221,-3.3412,-3.0996,-3.1765,-3.3015,-3.2617,0.0,0.0,0.0,0.0,0.0,0.0,-3.5314,-3.4372,-3.5485,-3.6837,-3.9598,-4.4852,-4.6256,-4.6551,-4.5935,-4.737,-4.6384,-4.1377,-4.1122,-4.0034,-3.7075,-3.5274,-3.3792,-3.241,-3.2582,-3.1982,-3.0378,-3.1397,-3.1579,-3.0684,-3.1309,-3.1631,-3.1631,-3.1422,-3.1061,-3.0492,-3.0291,-2.9513,-2.8282,-2.7594,-2.6411,-2.4912,-2.3725,-2.2773,-2.1807,-1.9913,-1.9275,-1.9397,-1.8481,-1.8389,-1.8789,0.0,0.0,0.0,0.0,0.0,0.0,0.0,0.0,0.0,0.0,0.0,0.0,0.0,0.0,0.0,0.0,0.0,0.0,0.0,0.0,0.0,0.0,0.5097,0.6244,0.9274,0.5815,0.3633,0.2997,-0.0098,-0.1344,-0.0838,0.1575,0.3423,0.4722,0.4544,0.5586,0.7583,0.8532,0.8292,0.7102,0.0,0.0,0.0,0.0,0.0,0.0,0.0,0.0,0.0,0.0,-3.0637,-3.0707,-3.0608,0.0,0.0,0.0,0.0,0.0,-2.9987,-3.1389,-3.283,-3.3309,-3.5293,-3.6982,-3.6359,0.0,0.0,0.0,0.0,0.0,0.0,-3.6984,-3.759,-3.9654,-3.9437,-4.0411,-4.4368,-4.4641,-4.4699,-4.5562,-4.5456,-4.4198,-4.1493,-4.0352,-3.8869,-3.6616,-3.4427,-3.2905,-3.2206,-3.1585,-3.0895,-3.0019,-3.0825,-3.0909,-3.001,-3.0387,-3.0918,-3.1482,-3.1482,-3.136,-3.1004,-3.0572,-3.0046,-2.9317,-2.825,-2.6978,-2.5519,-2.4358,-2.3167,-2.1982,-2.0993,-2.0586,-2.0531,-2.001,-1.9931,-2.0102,0.0,0.0,0.0,0.0,0.0,0.0,0.0,0.0,0.0,0.0,0.0,0.0,0.0,0.0,0.0,0.0,0.0,0.0,0.0,0.0,0.2918,0.1184,-0.1208,-0.054,0.349,-0.1298,-0.4491,-0.5804,-0.7962,-0.7458,-0.4386,-0.0883,0.1233,0.2057,0.2082,0.3159,0.5067,0.6749,0.688,0.5741,0.0,0.0,0.0,0.0,0.0,0.0,0.0,0.0,0.0,0.0,0.0,0.0,0.0,0.0,0.0,-3.0078,-2.9776,-2.957,-2.9807,-3.0779,-3.2397,-3.4934,-3.7138,-3.8839,-3.9608,-3.9595,0.0,0.0,0.0,0.0,0.0,-3.8758,-4.0148,-4.1913,-4.1311,-4.1533,-4.4173,-4.3517,-4.3551,-4.5563,-4.3911,-4.2353,-4.1598,-3.9783,-3.7947,-3.6067,-3.3886,-3.2522,-3.2307,-3.1023,-3.0251,-3.0121,-3.0512,-3.046,-2.9929,-2.9855,-3.0186,-3.0896,-3.0896,-3.0896,-3.0896,-3.0269,-2.9875,-2.96,-2.8305,-2.7042,-2.5876,-2.4823,-2.3685,-2.2573,-2.236,-2.2092,-2.1846,-2.1919,-2.1807,-2.1502,0.0,0.0,0.0,0.0,0.0,0.0,0.0,0.0,0.0,0.0,0.0,0.0,0.0,0.0,0.0,0.0,0.0,0.0,0.0,0.0,-0.119,-0.1114,-0.4226,-0.5292,-0.3874,-1.0549,-1.4699,-1.5973,-1.74,-1.4563,-0.7593,-0.404,-0.1441,0.0193,0.0193,0.032,0.0632,0.2689,0.3673,0.3485,0.0434,0.0,0.0,0.0,0.0,0.0,0.0,0.0,0.0,0.0,0.0,0.0,0.0,0.0,-3.118,-3.0953,-3.042,-3.0003,-3.055,-3.2639,-3.4759,-3.5443,-3.4666,0.0,-4.0785,-4.0891,0.0,-4.2163,0.0,0.0,0.0,-3.9785,-3.862,-3.7926,-3.9781,-4.2531,-4.6036,-4.588,-4.5571,-4.6045,-4.4802,-4.2868,-4.0115,-3.9144,-3.744,-3.439,-3.3185,-3.2236,-3.1315,-3.0804,-3.0335,-2.9806,-3.0592,-3.0698,-3.019,-2.993,-2.9582,-2.9192,-2.9192,-2.9192,-2.9192,-2.9129,-2.862,-2.7815,-2.7258,-2.6479,-2.5618,-2.4998,-2.4707,-2.4489,-2.3682,-2.3232,-2.3024,-2.3546,-2.3018,-2.2146,0.0,0.0,0.0,0.0,0.0,0.0,0.0,0.0,0.0,0.0,0.0,0.0,0.0,0.0,0.0,0.0,0.0,0.0,0.0,0.0,-0.4409,-0.5231,-0.8153,-1.061,-1.2385,-1.6666,-2.0196,-2.2916,-1.9865,-1.6012,-1.1466,-0.6604,-0.4476,-0.4803,-0.4759,-0.4922,-0.5076,-0.4206,-0.351,-0.3205,-0.58,-0.9439,0.0,0.0,0.0,0.0,0.0,0.0,0.0,0.0,-3.2162,-3.2795,0.0,-3.2542,-3.1889,-3.1785,-3.1125,-3.055,-3.0969,-3.2366,-3.3946,-3.5223,-3.4623,0.0,0.0,-4.3433,-4.3059,-4.3059,-4.453,0.0,0.0,-4.159,-4.2113,-4.0721,-4.2731,-4.5324,-4.7688,-4.7026,-4.6608,-4.7371,-4.5389,-4.313,-4.1162,-3.9872,-3.8159,-3.571,-3.4129,-3.2863,-3.2119,-3.1164,-3.0507,-3.0306,-3.057,-3.0445,-2.996,-2.946,-2.8666,-2.744,-2.849,-2.9002,-2.9002,-2.8427,-2.7999,-2.7644,-2.693,-2.6248,-2.5586,-2.5385,-2.5109,-2.4818,-2.5227,-2.5718,-2.6142,-2.5701,-2.4876,-2.3831,0.0,0.0,0.0,0.0,0.0,0.0,0.0,0.0,0.0,0.0,0.0,0.0,0.0,0.0,0.0,0.0,0.0,0.0,0.0,-0.741,-0.7096,-0.8432,-1.0679,-1.3553,-1.7121,-1.9641,-2.287,-2.6854,-2.1211,-1.7148,-1.4541,-1.0575,-0.9644,-1.1314,0.0,0.0,-1.2889,-1.2191,-1.2126,-1.2442,-1.3299,-1.5537,0.0,0.0,0.0,0.0,0.0,0.0,0.0,0.0,-3.2892,0.0,0.0,0.0,-3.2645,-3.2648,-3.2144,-3.1648,-3.165,-3.237,-3.3476,-3.5278,0.0,0.0,-4.3307,-4.4385,-4.4228,-4.5163,-4.5196,-4.419,-4.1193,-4.1882,-4.2615,-4.1927,-4.3958,-4.6124,-4.7476,-4.667,-4.6251,-4.6917,-4.4874,-4.2794,-4.1444,-4.0202,-3.8549,-3.6487,-3.4654,-3.3239,-3.2464,-3.1267,-3.0683,-3.0859,-3.0859,-3.0683,-3.0306,-2.922,-2.8041,-2.68,-2.741,-2.7582,-2.7494,-2.684,-2.649,-2.6339,-2.5767,-2.5501,-2.5432,-2.5432,-2.5468,-2.5711,-2.6816,-2.7695,-2.8324,-2.7946,-2.687,-2.5395,0.0,0.0,0.0,0.0,0.0,0.0,0.0,0.0,0.0,0.0,0.0,0.0,0.0,0.0,0.0,0.0,0.0,0.0,0.0,-0.916,-0.9254,-1.0101,-1.1338,-1.364,-1.7139,-1.9222,-2.2661,-2.7657,-2.2293,-1.8657,-1.6686,-1.6374,-1.7277,0.0,0.0,0.0,0.0,0.0,-2.1637,-2.4132,-2.1784,-2.1732,-2.326,0.0,0.0,0.0,0.0,0.0,0.0,0.0,-3.4101,-3.4462,0.0,0.0,0.0,-3.3578,-3.3549,-3.3318,-3.2611,-3.291,-3.3888,0.0,0.0,0.0,-4.3733,-4.3385,-4.3356,-4.8861,-4.532,-4.1486,-4.2072,-4.0228,-3.8953,-4.0214,-4.2611,-4.4556,-4.5214,-4.4736,-4.4317,-4.4317,-4.315,-4.1863,-4.0546,-3.9828,-3.844,-3.6057,-3.4478,-3.3137,-3.2038,-3.111,-3.0859,-3.1361,-3.1386,-3.1386,-3.1386,-2.9197,-2.7846,-2.7245,-2.562,-2.4581,-2.4189,-2.4189,-2.3921,-2.3526,-2.3526,-2.4036,-2.5016,-2.5016,-2.5898,-2.7419,-2.8499,-2.885,-2.9076,-3.0206,-2.8826,-2.6483,0.0,0.0,0.0,0.0,0.0,0.0,0.0,0.0,0.0,0.0,0.0,0.0,0.0,0.0,0.0,0.0,0.0,0.0,0.0,-1.2639,-1.1955,-1.2415,-1.261,-1.4497,-1.8293,-2.0775,-2.2425,-2.3251,-2.0662,-1.8757,-1.7695,-1.7523,-1.855,-2.0475,0.0,0.0,0.0,0.0,-2.4154,-2.5819,-2.5461,-2.5853,-2.6776,0.0,0.0,0.0,0.0,0.0,0.0,0.0,0.0,0.0,0.0,0.0,0.0,-3.4443,-3.3982,-3.3436,-3.2666,-3.3938,0.0,-3.507,0.0,0.0,0.0,-4.287,0.0,0.0,-4.4524,-4.2439,-4.2031,-4.2077,-4.1904,-4.1205,-4.291,-4.4556,-4.5214,-4.4736,-4.4317,-4.4317,-4.3569,-4.2701,-4.1863,-4.1175,-3.9847,-3.7457,-3.577,-3.4039,-3.209,-3.1468,-3.106,-3.0859,-3.121,-3.0951,-3.0181,-2.9152,-2.7718,-2.5912,-2.5185,-2.4784,-2.4603,-2.4346,-2.41,-2.3944,-2.3682,-2.3672,-2.3986,-2.4277,-2.5616,-2.7351,-2.7666,-2.8516,-2.9578,-2.9905,-2.8754,-2.6892,0.0,0.0,0.0,0.0,0.0,0.0,0.0,0.0,0.0,0.0,0.0,0.0,0.0,0.0,0.0,0.0,0.0,0.0,0.0,0.0,-1.4799,-1.4588,-1.4681,-1.5883,-1.8464,-2.0357,-2.0809,-1.9733,-1.9434,-1.9208,-1.9107,-2.0092,-2.1469,-2.3177,0.0,-2.5644,0.0,0.0,-2.7079,-2.8378,-2.8363,-2.8576,-2.8987,0.0,0.0,0.0,0.0,0.0,0.0,0.0,0.0,0.0,0.0,0.0,0.0,-3.5218,-3.5116,-3.4954,-3.4438,-3.5518,0.0,-3.6707,-3.8396,-4.024,-4.0855,0.0,0.0,0.0,-4.3154,-4.1304,-4.1524,-4.0902,-4.0486,-4.0701,-4.1765,-4.2761,-4.3608,-4.3629,-4.3539,-4.3539,-4.3419,-4.306,-4.2432,-4.1566,-4.0149,-3.7735,-3.6046,-3.4177,-3.1837,-3.1305,-3.0934,-3.0633,-3.0481,-3.0031,-2.9344,-2.818,-2.6749,-2.512,-2.444,-2.4093,-2.4111,-2.3727,-2.343,-2.3317,-2.321,-2.322,-2.3241,-2.4126,-2.5647,-2.7323,-2.7537,-2.8475,-2.9727,-2.9534,-2.8444,-2.703,0.0,0.0,0.0,0.0,0.0,0.0,0.0,0.0,0.0,0.0,0.0,0.0,0.0,0.0,0.0,0.0,0.0,0.0,0.0,0.0,-1.762,-1.6843,-1.7383,-1.784,-1.8129,-1.8797,-1.8599,-1.7417,-1.8797,-1.9889,0.0,0.0,-2.5348,-2.6741,0.0,-2.9848,0.0,0.0,-3.0082,-3.1123,-3.048,-3.0209,-3.0209,-3.0142,0.0,0.0,0.0,0.0,0.0,0.0,0.0,0.0,0.0,-3.5215,-3.5359,-3.5776,-3.6463,-3.7063,-3.7006,0.0,0.0,-3.9657,-4.0121,0.0,-3.9367,-4.2085,-4.4718,-4.4653,-4.1323,-3.8942,-4.0651,-3.8007,-3.6443,-3.9104,-3.9657,-4.011,-4.1037,-4.1863,-4.2282,-4.2282,-4.2851,-4.3,-4.2342,-4.128,-3.9662,-3.7479,-3.5708,-3.3871,-3.1669,-3.1035,-3.0628,-3.0448,-2.9512,-2.8834,-2.8622,-2.6582,-2.527,-2.468,-2.3647,-2.3144,-2.3125,-2.2695,-2.2285,-2.1938,-2.2449,-2.2679,-2.282,-2.4168,-2.5655,-2.7105,-2.7575,-2.853,-2.944,-2.8898,-2.7911,-2.6667,0.0,0.0,0.0,0.0,0.0,0.0,0.0,0.0,0.0,0.0,0.0,0.0,0.0,0.0,0.0,0.0,0.0,0.0,0.0,0.0,-1.9879,-1.9684,-2.0497,-2.066,-2.0065,-1.9812,-1.9566,-1.9149,-1.9342,-2.0267,0.0,0.0,0.0,-2.9343,0.0,-3.0878,0.0,-3.083,-3.0943,-3.119,-3.1021,-3.0954,-3.0886,-3.0311,-3.048,0.0,0.0,0.0,0.0,0.0,0.0,0.0,-3.4403,-3.4836,-3.5097,-3.4993,-3.5564,-3.6147,-3.5955,-3.6967,0.0,0.0,-4.0426,-4.11,-4.146,-4.029,-3.8842,-3.8086,-3.8892,-3.958,-3.8951,-3.8112,-3.7671,-3.7858,-3.8974,-3.97,-3.9547,-4.0766,-4.1594,-4.1594,-4.2162,-4.2312,-4.1654,-4.1046,-3.9833,-3.8061,-3.6327,-3.4543,-3.2827,-3.219,-3.1026,-2.9325,-2.9463,-2.8518,-2.6174,-2.5828,-2.5088,-2.3989,-2.3389,-2.3144,-2.3125,-2.2695,-2.2285,-2.1875,-2.2024,-2.2244,-2.2562,-2.2892,-2.3908,-2.5395,-2.5481,-2.6213,-2.7139,-2.709,-2.5871,-2.4323,0.0,0.0,0.0,0.0,0.0,0.0,0.0,0.0,0.0,0.0,0.0,0.0,0.0,0.0,0.0,0.0,0.0,0.0,0.0,0.0,0.0,-2.1791,-2.2249,-2.1877,-2.0655,-2.0344,-1.9887,-1.9143,-1.9828,0.0,0.0,0.0,0.0,-3.0411,0.0,-3.1312,0.0,0.0,-3.119,-3.119,-3.119,-3.119,-3.1157,-3.0784,-3.0649,-3.0683,-3.0649,0.0,0.0,0.0,0.0,0.0,0.0,0.0,-3.4762,-3.4994,-3.5399,-3.5843,-3.6226,0.0,0.0,-3.8649,0.0,-3.9444,-3.8988,-3.7235,-3.539,-3.4214,-3.5458,-3.6521,-3.5842,-3.5277,-3.5007,-3.5276,-3.5971,-3.6604,-3.6835,-3.7882,-3.8591,-3.8591,-3.9431,-3.9865,-3.9547,-3.9168,-3.8528,-3.7419,-3.6192,-3.4502,-3.2288,-3.1858,-3.0567,-2.8147,-2.7787,-2.6821,-2.5165,-2.4646,-2.4055,-2.3477,-2.3242,-2.3144,-2.3125,-2.291,-2.2578,-2.2187,-2.2187,-2.2305,-2.2519,-2.2519,-2.3418,-2.4787,-2.4787,-2.5462,-2.6378,-2.5251,-2.4166,-2.3144,0.0,0.0,0.0,0.0,0.0,0.0,0.0,0.0,0.0,0.0,0.0,0.0,0.0,0.0,0.0,0.0,0.0,0.0,0.0,0.0,0.0,0.0,-2.3065,-2.2372,-2.0846,-2.0655,-2.007,-1.8977,0.0,0.0,0.0,0.0,0.0,-3.0907,0.0,0.0,0.0,0.0,-3.1258,-3.136,-3.1258,-3.1258,-3.136,-3.1089,-3.0639,-3.0191,-3.0701,-3.0488,-3.0152,-3.1192,0.0,0.0,0.0,0.0,-3.415,-3.4699,-3.499,-3.5343,-3.629,0.0,-3.7054,-3.7199,-3.7223,0.0,-3.5202,-3.4176,-3.3157,-3.2075,-3.2381,-3.2829,-3.2778,-3.2008,-3.1661,-3.2437,-3.2804,-3.3298,-3.408,-3.4879,-3.5419,-3.5419,-3.642,-3.7032,-3.6948,-3.6949,-3.6796,-3.6214,-3.5443,-3.39,-3.1526,-3.0998,-2.9653,-2.7015,-2.5957,-2.5096,-2.4553,-2.3541,-2.3144,-2.3144,-2.3144,-2.3144,-2.3144,-2.3144,-2.2949,-2.2617,-2.2617,-2.2617,-2.2617,-2.2617,-2.3222,-2.417,-2.417,-2.4681,-2.5083,-2.3075,-2.229,-2.185,0.0,0.0,0.0,0.0,0.0,0.0,0.0,0.0,0.0,0.0,0.0,0.0,0.0,0.0,0.0,0.0,0.0,0.0,-2.3065,0.0,0.0,-2.3065,-2.3065,-2.2702,-2.1753,-2.0974,-2.0482,-2.0351,0.0,0.0,0.0,0.0,0.0,-3.1633,0.0,0.0,0.0,0.0,0.0,-3.207,-3.1461,-3.1562,-3.2002,-3.0717,-3.0275,-3.0203,-2.9674,-2.9475,-2.9588,-3.0285,-3.0757,0.0,0.0,0.0,-3.2976,-3.2456,-3.2785,-3.3481,0.0,0.0,-3.6397,0.0,-3.4783,-3.4448,0.0,0.0,-3.1563,-3.1347,-3.1747,-3.2019,-3.169,-3.1468,-3.1317,-3.0943,-3.2097,-3.2932,-3.2555,-3.382,-3.4732,-3.4732,-3.5391,-3.5614,-3.501,-3.5494,-3.5606,-3.5024,-3.3433,-3.2424,-3.2027,-3.0166,-2.8322,-2.6445,-2.5865,-2.4836,-2.3299,-2.3144,-2.3144,-2.3144,-2.3144,-2.3144,-2.3144,-2.3144,-2.3105,-2.3047,-2.3047,-2.3047,-2.3047,-2.3047,-2.2522,-2.1728,-2.1728,-2.1176,-2.0369,-2.0116,-1.9298,-1.8395,0.0,0.0,0.0,0.0,0.0,0.0,0.0,0.0,0.0,0.0,0.0,0.0,0.0,0.0,0.0,-2.4468,-2.4341,-2.391,-2.316,-2.3065,-2.2884,-2.2457,-2.2433,-2.2002,-2.1164,-2.0782,-2.0846,0.0,0.0,0.0,0.0,-2.7922,-2.9824,0.0,0.0,0.0,0.0,0.0,0.0,-3.1149,-3.0483,-3.0865,-3.165,-3.021,-2.9929,-3.0159,-2.909,-2.871,-2.897,-2.9988,-3.0685,-3.1415,-3.2844,0.0,0.0,0.0,-3.2755,-3.2805,-3.3236,-3.4364,-3.5217,0.0,-3.4198,-3.4212,-3.3245,-3.2221,-3.1352,-3.1262,-3.0953,-3.0727,-3.0511,-3.0507,-3.0432,-3.0181,-3.0724,-3.1087,-3.0907,-3.1446,-3.1909,-3.1909,-3.2409,-3.2672,-3.2409,-3.2669,-3.2807,-3.2771,-3.1765,-3.0789,-3.0063,-2.9102,-2.7572,-2.5331,-2.5017,-2.4326,-2.3144,-2.3144,-2.3144,-2.3144,-2.3144,-2.3144,-2.3144,-2.3144,-2.3144,-2.3144,-2.3144,-2.3144,-2.3144,-2.3144,-2.2403,-2.1302,-2.1302,-2.0567,-1.9405,-1.878,-1.8133,-1.7498,0.0,0.0,0.0,0.0,0.0,0.0,0.0,0.0,0.0,0.0,0.0,0.0,0.0,0.0,0.0,0.0,-2.3661,-2.3254,-2.2899,-2.2809,-2.2445,-2.1687,-2.162,-2.129,-2.059,-2.059,0.0,0.0,0.0,0.0,-2.725,-2.8732,-3.0427,0.0,-3.1542,0.0,0.0,0.0,0.0,0.0,0.0,-3.028,-3.1479,-2.9878,-2.9717,-3.0158,-2.8587,-2.8025,-2.8279,-2.9419,-3.028,-3.1188,-3.3053,-3.324,0.0,0.0,0.0,-3.1702,0.0,0.0,-3.3158,-3.2567,-3.2993,-3.3367,0.0,-3.1873,-3.1243,-3.1209,-3.0419,-2.9804,-2.9804,-2.9804,-2.9804,-2.9804,-2.9804,-2.9804,-2.9804,-2.9804,-2.9804,-2.9804,-2.9895,-2.996,-2.996,-2.9869,-2.9879,-3.0168,-2.9761,-2.9102,-2.8105,-2.7619,-2.6439,-2.4453,-2.4199,-2.3789,-2.3144,-2.3144,-2.3144,-2.3144,-2.3242,-2.3242,-2.3144,-2.3242,-2.3242,-2.3144,-2.3144,-2.3144,-2.3144,-2.3144,-2.246,-2.1446,-2.1086,-2.0229,-1.9111,-1.7834,-1.7348,-1.7051,0.0,0.0,0.0,0.0,0.0,0.0,0.0,0.0,0.0,0.0,0.0,0.0,-2.5208,-2.4338,-2.3664,-2.3482,-2.3447,-2.3072,-2.2405,-2.2104,-2.1701,-2.108,-2.0785,0.0,-2.059,-2.059,0.0,0.0,0.0,0.0,-2.725,-2.8732,-3.0294,-3.1808,-3.1389,-3.1466,-3.1771,0.0,0.0,0.0,0.0,-3.0472,-3.2201,-2.975,-2.9546,-3.0238,-2.7959,-2.7299,-2.7623,-2.8235,-2.8903,-2.9817,-3.1792,-3.2347,-3.2218,0.0,0.0,0.0,0.0,-2.9659,0.0,-2.9549,-2.9954,-3.0425,0.0,-3.0605,-3.0481,-3.1061,-3.0419,-2.9804,-2.9804,-2.9804,-2.9804,-2.9804,-2.9804,-2.9804,-2.9804,-2.9804,-2.9804,-2.9804,-2.887,-2.8211,-2.8211,-2.781,-2.7459,-2.7505,-2.7233,-2.7041,-2.697,-2.547,-2.4565,-2.4414,-2.3633,-2.3184,-2.3144,-2.3144,-2.3144,-2.3144,-2.3555,-2.3535,-2.3144,-2.3574,-2.3535,-2.3144,-2.3144,-2.3144,-2.3144,-2.3144,-2.265,-2.1805,-2.0475,-1.9447,-1.8566,-1.6926,-1.6343,-1.6303,0.0,0.0,0.0,0.0,0.0,0.0,0.0,0.0,0.0,0.0,0.0,0.0,0.0,-2.3275,-2.233,-2.2003,-2.1731,-2.1483,-2.1198,-2.1135,-2.0692,-1.994,-1.9857,-1.9748,-1.9748,-1.9748,0.0,0.0,0.0,-2.5382,-2.6681,-2.856,-2.9745,-3.0294,-3.0885,-3.124,-3.1215,-3.0159,0.0,0.0,0.0,0.0,0.0,-2.9763,-2.9763,-3.0196,-2.8502,-2.8356,-2.899,-3.0012,-3.0565,-3.1212,-3.3673,-3.3805,-3.2907,-3.2158,-3.1258,-3.0467,0.0,0.0,0.0,-2.961,-2.9923,-3.0661,-3.1649,-3.1152,-3.0783,-3.1901,-3.0846,-2.9624,-2.8846,-2.9287,-2.9804,-2.9804,-2.9804,-2.9546,-2.8767,-2.8688,-2.845,-2.7787,-2.7302,-2.7035,-2.7035,-2.6201,-2.5765,-2.6087,-2.555,-2.5398,-2.5698,-2.5184,-2.4707,-2.4414,-2.3867,-2.3418,-2.3144,-2.3144,-2.3281,-2.3555,-2.3711,-2.3848,-2.3965,-2.4121,-2.3965,-2.3555,-2.3555,-2.3398,-2.3164,-2.3437,-2.2425,-2.0619,-2.0479,-1.912,-1.7371,-1.6779,-1.6433,-1.6051,0.0,0.0,0.0,0.0,0.0,0.0,0.0,0.0,0.0,-2.581,0.0,0.0,0.0,0.0,-2.1069,-2.054,-2.0404,-2.0277,-2.0098,-2.0156,-1.9598,-1.8373,-1.8395,-1.8402,-1.8402,0.0,0.0,0.0,0.0,0.0,0.0,-2.8576,-2.9343,-2.9099,-3.0136,-3.0649,0.0,0.0,0.0,-2.9993,0.0,0.0,-2.9864,-2.8943,-2.9175,-2.9835,-2.8423,-2.8771,-2.9971,-3.0853,-3.1313,-3.1973,-3.4427,-3.443,-3.3306,-3.2562,-3.1499,-3.0563,-3.0202,0.0,0.0,0.0,-2.9714,-3.0342,-3.2108,-3.1237,-3.0443,-3.1943,-3.0507,-2.8758,-2.8004,-2.8186,-2.8445,-2.8445,-2.8591,-2.8402,-2.7449,-2.7485,-2.7279,-2.6565,-2.613,-2.6047,-2.6483,-2.5126,-2.4506,-2.5162,-2.4576,-2.4336,-2.4629,-2.4629,-2.4434,-2.4004,-2.3711,-2.3437,-2.3144,-2.3144,-2.3281,-2.3574,-2.3867,-2.4082,-2.4219,-2.4512,-2.4316,-2.3789,-2.3789,-2.3535,-2.3164,-2.3457,-2.2427,-2.0712,-2.0566,-1.9367,-1.759,-1.7089,-1.6673,-1.6196,0.0,0.0,0.0,0.0,0.0,0.0,0.0,0.0,-2.3323,-2.5484,0.0,0.0,0.0,0.0,0.0,-1.9104,-1.9499,-1.9588,-1.9097,-1.9169,-1.8349,-1.651,-1.648,-1.6558,-1.6627,0.0,0.0,0.0,0.0,0.0,0.0,0.0,-2.9077,-2.8382,-2.9086,-2.9717,-3.0225,0.0,-3.0114,-3.1033,0.0,-2.7987,-2.9111,-2.7328,-2.7782,-2.9201,-2.7678,-2.856,-3.0451,-3.0446,-3.0878,-3.181,-3.3838,-3.396,-3.3288,-3.2544,-3.0978,-2.9502,0.0,0.0,0.0,0.0,-2.9086,-2.9212,-3.178,-3.052,-2.9251,-3.1062,-2.9244,-2.7275,-2.74,-2.654,-2.5721,-2.5721,-2.6125,-2.6281,-2.5811,-2.6169,-2.6483,-2.64,-2.5462,-2.521,-2.6318,-2.4488,-2.3627,-2.4702,-2.4223,-2.3789,-2.3789,-2.3789,-2.3594,-2.3144,-2.3144,-2.3144,-2.3144,-2.3144,-2.3144,-2.3164,-2.4004,-2.418,-2.3828,-2.4668,-2.459,-2.3789,-2.3789,-2.3535,-2.3144,-2.3057,-2.2825,-2.2227,-2.0875,-2.0043,-1.9391,-1.7778,-1.6981,-1.6673,0.0,0.0,0.0,0.0,0.0,0.0,-1.8358,-2.1341,-2.3846,0.0,0.0,0.0,-2.2136,-1.967,-1.7759,-1.6919,-1.7634,-1.8019,-1.7897,-1.7503,-1.7086,-1.6573,-1.5948,-1.593,-1.6558,0.0,0.0,0.0,0.0,0.0,0.0,0.0,0.0,0.0,-2.8244,-2.8842,-2.8996,-2.9271,0.0,-2.8575,-2.858,-2.8193,-2.7767,-2.9287,-2.9847,-3.0017,-3.1252,-3.2068,-3.2705,-3.3206,-3.2846,-3.2428,-3.3519,-3.4013,-3.4047,-3.3373,-3.2457,-3.1437,-3.0441,0.0,0.0,0.0,0.0,0.0,-2.8567,-2.8057,-2.7615,-2.8248,-2.7209,-2.6019,-2.5267,-2.4854,-2.4257,-2.3145,-2.4665,-2.5769,-2.5142,-2.5209,-2.4957,-2.4145,-2.4467,-2.4957,-2.521,-2.4702,-2.4467,-2.4787,-2.4223,-2.3789,-2.3789,-2.3789,-2.3594,-2.3144,-2.3144,-2.3144,-2.3144,-2.3144,-2.3301,-2.3613,-2.3848,-2.4062,-2.4258,-2.4492,-2.4297,-2.3789,-2.3789,-2.3535,-2.3076,-2.2565,-2.1764,-2.0891,-1.9886,-1.8964,-1.808,-1.7698,-1.7275,-1.6879,0.0,0.0,0.0,0.0,0.0,-1.5258,-1.8336,-2.1075,-2.3344,0.0,0.0,0.0,-2.1483,-1.8631,-1.6752,-1.6311,-1.6621,-1.6914,-1.7109,-1.6596,-1.6305,-1.6305,-1.5564,-1.5649,-1.6558,-1.6627,0.0,0.0,0.0,0.0,0.0,0.0,0.0,0.0,0.0,0.0,0.0,0.0,0.0,0.0,-2.855,-2.8312,-2.7754,-2.9876,-3.0649,-3.0754,-3.239,-3.3146,-3.3576,-3.4303,-3.3998,-3.3386,-3.349,-3.3595,-3.3518,-3.2863,-3.2192,-3.142,-3.0359,-2.9562,-2.8899,-2.8074,0.0,0.0,-2.7611,-2.6911,-2.6321,-2.7043,-2.5853,-2.455,-2.3801,-2.3225,-2.2737,-2.1977,-2.3207,-2.4008,-2.3637,-2.39,-2.3887,-2.3212,-2.4125,-2.4787,-2.4787,-2.4787,-2.4787,-2.4787,-2.4042,-2.3516,-2.3516,-2.3516,-2.3398,-2.3144,-2.3144,-2.3144,-2.3144,-2.3144,-2.3262,-2.3516,-2.3711,-2.3926,-2.416,-2.4336,-2.418,-2.3789,-2.3789,-2.3268,-2.2246,-2.1301,-2.0678,-2.0101,-1.9201,-1.8339,-1.7395,-1.7395,-1.7221,-1.6813,0.0,0.0,-0.9482,-1.0448,-1.237,-1.4794,-1.7944,-2.0338,-2.2466,0.0,-2.4473,-2.354,-2.1262,-1.8414,-1.6691,-1.6703,-1.6406,-1.6387,-1.6777,-1.6299,-1.5968,-1.5968,-1.5479,-1.5666,-1.663,-1.6594,-1.8031,0.0,0.0,0.0,0.0,0.0,0.0,0.0,0.0,0.0,0.0,0.0,0.0,-2.8405,-2.8414,-2.8367,-2.8425,-2.9757,-3.075,-3.1573,-3.2324,-3.304,-3.3784,-3.4292,-3.4516,-3.4496,-3.3723,-3.3137,-3.2533,-3.1836,-3.1181,-3.0556,-2.9909,-2.9068,-2.8426,-2.8397,-2.7284,0.0,-2.7495,-2.629,-2.5273,-2.6364,-2.4684,-2.2996,-2.2807,-2.1886,-2.1289,-2.168,-2.1855,-2.1973,-2.2012,-2.2676,-2.3144,-2.3144,-2.4125,-2.4787,-2.4787,-2.4787,-2.4787,-2.4787,-2.3714,-2.3144,-2.3144,-2.3144,-2.3144,-2.3144,-2.3144,-2.3144,-2.3144,-2.3144,-2.3144,-2.3144,-2.3535,-2.3711,-2.373,-2.4102,-2.4062,-2.3711,-2.3621,-2.2655,-2.1194,-1.9844,-1.9434,-1.9587,-1.8671,-1.7825,-1.7101,-1.7101,-1.6927,-1.666,0.0,0.0,-1.0537,-1.1377,-1.292,-1.5176,-1.8588,-2.0985,-2.3263,-2.5733,-2.4622,-2.3002,-2.1327,-1.9077,-1.7471,-1.6852,-1.6998,-1.7168,-1.7246,-1.6726,-1.645,-1.645,-1.5685,-1.5803,-1.7063,-1.6738,-1.8165,-2.1292,0.0,0.0,0.0,0.0,0.0,0.0,0.0,0.0,0.0,0.0,0.0,-2.8501,-2.8872,-2.8394,-2.7785,-3.0643,-3.1853,-3.229,-3.4209,-3.4971,-3.504,-3.4622,-3.485,-3.5087,-3.3877,-3.3655,-3.3619,-3.264,-3.2093,-3.1685,-3.1231,-3.0159,-2.897,-2.8408,-2.7094,0.0,-2.5019,-2.4504,-2.4079,-2.3489,-2.2474,-2.1589,-2.1544,-2.112,-2.0723,-2.082,-2.1699,-2.25,-2.2852,-2.3027,-2.3144,-2.3144,-2.4125,-2.4787,-2.4787,-2.4787,-2.4787,-2.4787,-2.3714,-2.3144,-2.3144,-2.3144,-2.3144,-2.3144,-2.3144,-2.3144,-2.3144,-2.3144,-2.3144,-2.3144,-2.3223,-2.3262,-2.3262,-2.3359,-2.334,-2.3174,-2.2251,-2.1642,-2.1105,-1.8948,-1.8239,-1.8354,-1.719,-1.6724,-1.6794,-1.6794,-1.6754,-1.666,0.0,-1.0905,-1.0225,-1.1003,-1.2409,-1.4772,-1.8705,-2.1336,-2.3909,-2.6872,-2.5737,-2.4152,-2.2766,-2.0577,-1.8955,-1.8424,-1.7946,-1.7772,-1.7975,-1.6901,-1.6565,-1.7267,-1.6437,-1.6456,-1.7605,-1.7398,-1.8286,-2.0378,0.0,0.0,0.0,0.0,0.0,0.0,0.0,0.0,0.0,0.0,-2.6916,-2.7142,-2.9407,-3.0143,-3.0087,-3.2482,-3.3573,-3.403,-3.5124,-3.551,-3.54,-3.4711,-3.4482,-3.4425,-3.409,-3.3695,-3.312,-3.2322,-3.2189,-3.2109,-3.127,-3.0104,-2.897,-2.8358,-2.7006,0.0,0.0,-2.4582,-2.43,-2.3843,-2.3208,-2.2479,-2.1702,-2.1439,-2.1225,-2.0938,-2.1641,-2.2344,-2.2773,-2.3008,-2.3144,-2.3144,-2.4125,-2.4532,-2.4039,-2.4674,-2.4885,-2.4297,-2.3593,-2.3144,-2.3144,-2.3144,-2.3144,-2.3144,-2.3144,-2.3144,-2.3144,-2.3144,-2.3144,-2.3144,-2.3144,-2.3144,-2.3144,-2.3144,-2.2775,-2.2208,-2.1569,-2.0657,-1.9405,-1.8226,-1.7413,-1.6908,-1.6497,-1.6366,-1.6486,-1.6486,-1.6486,-1.6446,-1.1704,0.0,-0.9532,-1.02,-1.167,-1.4291,-1.8838,-2.1767,-2.464,-2.7938,-2.7169,-2.5789,-2.438,-2.2114,-2.0591,-2.0358,-1.904,-1.8447,-1.8847,-1.734,-1.6868,-1.792,-1.7285,-1.7254,-1.8125,-1.8047,-1.8477,-1.9414,-1.9823,0.0,0.0,0.0,0.0,0.0,0.0,0.0,0.0,0.0,0.0,-2.6272,-2.9836,-3.1434,-3.1887,-3.3561,-3.4518,-3.5037,-3.521,-3.5366,-3.54,-3.449,-3.3988,-3.3724,-3.3868,-3.3143,-3.2193,-3.1486,-3.1693,-3.1838,-3.0572,-2.9683,-2.8994,-2.8436,-2.7052,-2.5887,0.0,0.0,0.0,-2.4981,-2.4513,-2.37,-2.2491,-2.2052,-2.1735,-2.1292,-2.1646,-2.2012,-2.2344,-2.2832,-2.3144,-2.3144,-2.3887,-2.4166,-2.335,-2.4351,-2.473,-2.3879,-2.3457,-2.3223,-2.3144,-2.3301,-2.3301,-2.3144,-2.3223,-2.3223,-2.3144,-2.3144,-2.3144,-2.3144,-2.3144,-2.3144,-2.3057,-2.2862,-2.2208,-2.1284,-2.0836,-1.9497,-1.7684,-1.7404,-1.6763,-1.5845,-1.6099,-1.6192,-1.6192,-1.6192,-1.6192,-1.6152,-1.1997,-1.0469,-0.953,-0.9729,-1.1341,-1.4345,-1.9471,-2.2636,-2.5741,-2.9293,-2.8576,-2.6968,-2.4839,-2.2967,-2.1778,-2.1778,-2.0191,-1.9394,-1.9923,-1.8874,-1.8201,-1.8027,-1.7872,-1.8046,-1.8484,-1.8203,-1.8613,-1.9844,-2.0275,-2.1041,0.0,0.0,0.0,0.0,-2.6235,0.0,0.0,0.0,-2.7579,-2.7992,-2.9672,-2.975,-2.9163,-3.1777,-3.2764,-3.3005,-3.4209,-3.4985,-3.527,-3.3813,-3.3809,-3.4047,-3.2178,-3.1667,-3.1523,-3.0725,-3.0602,-3.0571,-2.9477,-2.9398,-2.9515,-2.8639,-2.7782,-2.6967,-2.6533,0.0,-2.541,-2.4928,0.0,-2.3542,-2.3388,0.0,0.0,-2.1365,-2.1708,-2.1894,-2.1953,-2.2637,-2.3144,-2.3144,-2.3212,-2.3369,-2.3672,-2.384,-2.3969,-2.3789,-2.375,-2.3555,-2.3164,-2.3867,-2.3926,-2.3164,-2.3516,-2.3535,-2.3144,-2.3144,-2.3144,-2.3144,-2.3144,-2.3144,-2.3057,-2.2031,-2.1391,-2.1194,-1.9039,-1.7963,-1.7591,-1.648,-1.5927,-1.5832,-1.5872,-1.5885,-1.5885,-1.5885,-1.5885,-1.5681,-1.0929,-0.9738,0.0,-0.9044,-1.0628,-1.3525,-1.8451,-2.4111,-2.8463,-3.0359,-3.0052,-2.8525,-2.5628,-2.4176,-2.2995,-2.2047,-2.0815,-2.0185,-2.0401,-1.9504,-1.8828,-1.8398,-1.8379,-1.834,-1.8281,-1.8105,-1.8398,-1.918,-2.0111,-2.0884,0.0,0.0,0.0,0.0,-2.695,0.0,-2.6384,0.0,-2.6717,-2.5894,-2.7712,-2.7911,-2.7496,-3.1455,-3.3147,-3.3425,-3.3613,-3.3558,-3.3235,-3.2613,-3.2179,-3.174,-3.0809,-3.0188,-2.9673,-2.9013,-2.9107,-2.9214,-2.8341,-2.8583,-2.896,-2.8622,-2.8107,-2.7695,-2.7469,-2.6967,-2.6615,-2.6716,0.0,0.0,0.0,0.0,0.0,0.0,-2.2433,-2.2246,-2.2246,-2.2754,-2.3144,-2.3144,-2.3144,-2.3301,-2.375,-2.3555,-2.3613,-2.4121,-2.318,-2.2975,-2.3777,-2.3464,-2.3296,-2.3535,-2.3691,-2.3574,-2.3144,-2.3144,-2.3144,-2.3057,-2.2403,-2.2031,-2.2031,-2.0854,-1.9844,-1.9131,-1.8133,-1.7326,-1.6574,-1.6021,-1.5832,-1.5832,-1.5832,-1.5832,-1.5832,-1.5832,-1.5343,-1.4651,-0.9903,0.0,0.0,0.0,-1.0311,-1.36,-1.9667,-2.5897,-3.0142,-3.0855,-3.0368,-2.8714,-2.5506,-2.4098,-2.296,-2.2028,-2.0814,-2.0337,-2.0791,-1.9945,-1.9219,-1.8652,-1.835,-1.8158,-1.8027,-1.7716,-1.7927,-1.8562,-1.9719,-2.0576,0.0,0.0,0.0,0.0,0.0,-2.7394,-2.6609,0.0,-2.6274,-2.4961,-2.6417,-2.7087,-2.7522,-3.0874,-3.2583,-3.3246,-3.2674,-3.2072,-3.1474,-3.0992,-3.0187,-2.9336,-2.895,-2.844,-2.794,-2.7429,-2.7641,-2.7806,-2.684,-2.7258,-2.7908,-2.8004,-2.7763,-2.763,-2.8174,-2.7795,-2.7444,-2.7996,-2.7795,0.0,0.0,0.0,-2.477,-2.4061,0.0,-2.2519,-2.2519,-2.2871,-2.3144,-2.3144,-2.3242,-2.3437,-2.3769,-2.3496,-2.3574,-2.4199,-2.2852,-2.2446,-2.3668,-2.3146,-2.2942,-2.3248,-2.3706,-2.3691,-2.3144,-2.3144,-2.3144,-2.3057,-2.1854,-2.1302,-2.1212,-1.9679,-1.8503,-1.7684,-1.7326,-1.6669,-1.5832,-1.5832,-1.5832,-1.5737,-1.5439,-1.5248,-1.5248,-1.5248,-1.4459,-1.3307,-0.9553,-0.8272,0.0,0.0,-1.0731,-1.5257,-2.4695,-2.7971,-2.9717,-3.0768,-2.8925,-2.6578,-2.4106,-2.1871,-2.0928,-2.1899,-2.0236,-1.9676,-2.1293,-2.0481,-1.9512,-1.8672,-1.7692,-1.7506,-1.8027,-1.7129,-1.7265,-1.8562,-1.9137,-1.9985,0.0,0.0,0.0,-2.5467,-2.6229,-2.6924,-2.7446,-2.7334,-2.7106,-2.6812,-2.6749,-2.7974,-2.986,-2.9358,-3.0058,-3.1277,-3.1002,-3.0876,-3.0565,-2.8827,-2.8037,-2.7523,-2.5997,-2.6202,-2.6813,-2.6316,-2.6529,-2.6541,-2.4771,-2.5344,-2.6447,-2.6617,-2.6282,-2.6407,-2.8425,-2.8072,-2.7444,-2.7996,-2.8097,-2.8072,-2.8024,-2.6387,-2.5004,-2.4926,-2.3576,0.0,0.0,-2.2871,-2.3144,-2.3144,-2.3516,-2.3769,-2.3789,-2.3769,-2.3769,-2.3809,-2.2945,-2.2236,-2.1877,-2.3033,-2.3123,-2.1877,-2.3518,-2.3984,-2.3144,-2.3144,-2.3144,-2.3057,-2.1854,-2.1302,-2.1194,-1.8856,-1.7777,-1.7591,-1.6386,-1.5832,-1.5832,-1.5832,-1.5832,-1.5629,-1.4459,-1.3968,-1.3968,-1.3968,-1.3102,-1.1785,0.0,0.0,0.0,0.0,0.0,-1.6468,-2.5307,-2.8132,-2.9385,-2.9773,-2.8876,-2.6791,-2.3172,-2.2268,-2.1426,-2.0138,-2.0248,-2.0564,-2.0811,-2.0562,-1.9774,-1.8434,-1.8115,-1.7732,-1.7364,-1.7044,-1.7272,-1.8223,-1.8926,-1.9834,0.0,0.0,0.0,0.0,0.0,-2.7475,0.0,0.0,0.0,-2.579,-2.4522,-2.489,-2.6465,-2.8934,-2.9944,-2.9987,-2.9713,-2.8492,-2.6892,-2.6517,-2.617,-2.5585,-2.4724,-2.4451,-2.4393,-2.3861,-2.41,-2.4385,-2.3788,-2.4679,-2.5812,-2.5592,-2.5661,-2.5931,-2.634,-2.5878,-2.5546,-2.641,-2.6317,-2.6217,-2.6892,-2.5887,-2.4906,-2.4906,-2.3734,-2.293,0.0,-2.3047,-2.3144,-2.3144,-2.3262,-2.3359,-2.3359,-2.3359,-2.3477,-2.3769,-2.2704,-2.22,-2.2577,-2.2973,-2.3009,-2.2613,-2.4089,-2.4434,-2.3574,-2.3574,-2.3044,-2.1854,-2.0674,-1.9679,-1.8856,-1.7217,-1.648,-1.6386,-1.6021,-1.5832,-1.5832,-1.5832,-1.5343,-1.4459,-1.4076,-1.2813,-1.1453,-1.2231,-1.1745,-1.0529,-0.8599,0.0,0.0,0.0,-1.4283,-1.911,-2.6136,-2.7893,-2.8545,-2.9083,-2.812,-2.6221,-2.3036,-2.2056,-2.1056,-1.9706,-2.0089,-2.0464,-2.0586,-2.0566,-1.9888,-1.838,-1.7958,-1.7676,-1.726,-1.6876,-1.7261,-1.8457,-1.8831,-1.9674,0.0,0.0,0.0,0.0,0.0,-2.7173,-2.7794,-2.6324,-2.5691,-2.5578,-2.3722,-2.3532,-2.4723,-2.7354,-2.8163,-2.7934,-2.7657,-2.6351,-2.4626,-2.4471,-2.3924,-2.3166,-2.2389,-2.2324,-2.2537,-2.2169,-2.265,-2.3227,-2.3063,-2.3721,-2.4523,-2.4705,-2.4807,-2.5032,-2.5374,-2.4947,-2.4835,-2.5644,-2.5554,-2.5564,-2.655,-2.5654,-2.485,-2.5018,-2.3901,-2.3144,0.0,-2.3144,-2.3144,-2.3144,-2.3144,-2.3144,-2.3144,-2.3144,-2.3262,-2.3535,-2.2026,-2.1438,-2.2066,-2.2223,-2.2292,-2.2292,-2.4068,-2.4648,-2.3789,-2.3789,-2.2999,-2.1302,-2.0116,-1.8872,-1.7684,-1.6386,-1.5832,-1.5832,-1.5832,-1.5832,-1.5832,-1.5832,-1.5045,-1.3872,-1.3392,-1.1843,-1.0092,-1.0877,-1.0474,-0.933,0.0,0.0,-1.1487,-1.2425,-1.7522,-2.2991,-2.727,-2.7461,-2.7434,-2.8529,-2.6891,-2.4961,-2.3519,-2.1194,-1.9975,-2.0449,-1.9627,-1.9548,-2.0566,-2.0566,-1.983,-1.8321,-1.7432,-1.7184,-1.7671,-1.6791,-1.7318,-1.9297,-1.8867,-1.954,0.0,0.0,0.0,0.0,-2.5021,0.0,-2.7148,-2.5985,-2.5755,-2.5921,-2.4085,-2.3918,-2.4661,-2.4637,-2.4912,-2.5241,-2.505,-2.447,-2.3755,-2.2631,-2.1551,-2.0481,-1.9234,-2.0004,-2.1302,-2.1302,-2.212,-2.3047,-2.2656,-2.2539,-2.2774,-2.3888,-2.3698,-2.371,-2.5267,-2.5182,-2.4982,-2.5552,-2.5663,-2.5895,-2.6723,-2.5679,-2.4784,-2.5222,-2.4082,-2.3144,-2.3144,-2.3144,-2.3144,-2.3144,-2.3144,-2.3144,-2.3144,-2.3144,-2.3144,-2.3144,-2.119,-2.0173,-2.0361,-2.0997,-2.1197,-2.0933,-2.351,-2.4501,-2.3667,-2.3667,-2.2768,-2.1141,-1.9968,-1.8796,-1.7591,-1.6386,-1.5832,-1.5832,-1.5832,-1.5737,-1.5737,-1.575,-1.4975,-1.3607,-1.2349,-1.1082,-0.9912,-0.9903,-0.9322,-0.8472,-1.1303,-1.4767,-1.82,-2.0861,-2.3262,-2.5631,-2.8326,-2.91,-2.8919,-2.7566,-2.7447,-2.609,-2.2149,-2.2208,-2.163,-1.9585,-2.0127,-2.0601,-2.0586,-1.9844,-1.8824,-1.7603,-1.7363,-1.71,-1.6968,-1.7509,-1.8282,-1.9297,-1.918,-2.0012,-2.1777,0.0,0.0,0.0,0.0,-2.5558,-2.7061,-2.5428,-2.4078,-2.3062,-2.2108,-2.2122,-2.266,-2.2637,-2.2907,-2.3404,-2.4316,-2.3752,-2.2351,-2.1738,-2.1386,-2.0962,-1.9709,-2.0228,-2.1302,-2.1302,-2.212,-2.3125,-2.3008,-2.2988,-2.2891,-2.2918,-2.2824,-2.2768,-2.2879,-2.2839,-2.2798,-2.3223,-2.3588,-2.3892,-2.4095,-2.3329,-2.2961,-2.3584,-2.3378,-2.3144,-2.3144,-2.3144,-2.3144,-2.3144,-2.3144,-2.3144,-2.3144,-2.3144,-2.3144,-2.3144,-2.2606,-2.1771,-2.044,-2.1439,-2.1455,-1.999,-2.1611,-2.2287,-2.1707,-2.1707,-2.0808,-1.8879,-1.8596,-1.772,-1.6292,-1.5927,-1.5832,-1.5832,-1.5832,-1.5248,-1.4376,-1.4485,-1.3172,-1.1088,-1.0789,-0.9903,-0.87,-0.8578,-0.8463,-0.8336,-1.3051,-1.7272,-2.1484,-2.4404,-2.6185,-2.7642,-2.9096,-2.9232,-2.8682,-2.7233,-2.7418,-2.647,-2.3188,-2.3048,-2.2343,-2.0489,-2.0289,-2.0108,-1.9942,-1.8877,-1.7738,-1.6683,-1.7009,-1.7154,-1.6941,-1.8066,-1.8988,-1.9844,-2.0092,-2.0895,-2.2268,0.0,0.0,0.0,0.0,-2.513,-2.6364,-2.473,-2.3364,-2.2199,-2.1511,-2.1511,0.0,-2.1925,-2.2046,-2.2332,-2.3346,-2.3063,-2.1993,-2.0926,-2.0477,-2.0206,-1.8488,-1.9115,-2.0477,-2.0477,-2.1765,-2.3144,-2.3144,-2.3144,-2.3086,-2.2852,-2.2793,-2.2676,-2.2246,-2.2168,-2.2227,-2.2461,-2.2852,-2.3086,-2.2806,-2.2354,-2.208,-2.2283,-2.2315,-2.2315,-2.2315,-2.1854,-2.1676,-2.2227,-2.2315,-2.2492,-2.3057,-2.3144,-2.3144,-2.3144,-2.258,-2.1951,-2.1079,-2.1363,-2.1223,-2.0187,-2.101,-2.1611,-2.1901,-2.1145,-2.0281,-1.9239,-1.8565,-1.7523,-1.6206,-1.6206,-1.6139,-1.6019,-1.6019,-1.5236,-1.3963,-1.4103,-1.2563,-1.0163,-0.9564,-0.8969,-0.8269,-0.8241,-0.8289,-0.8377,-1.4759,-1.8529,-2.2185,-2.4781,-2.6882,-2.86,-2.9673,-2.8942,-2.8106,-2.7685,-2.75,-2.6826,-2.5324,-2.3802,-2.2696,-2.208,-2.0275,-1.9116,-1.9036,-1.806,-1.7009,-1.5944,-1.6976,-1.7546,-1.7496,-1.8692,-1.9743,-2.0566,-2.1213,-2.194,-2.2782,0.0,0.0,0.0,0.0,0.0,0.0,-2.4282,-2.3488,-2.2829,-2.197,-2.1784,-2.1973,-2.2031,-2.2051,-2.209,-2.2461,-2.2559,-2.2217,-2.0373,-1.9679,-1.9131,-1.6749,-1.7483,-1.9314,-1.9497,-2.1123,-2.2862,-2.3057,-2.3144,-2.3144,-2.3144,-2.3144,-2.3047,-2.2676,-2.2598,-2.2598,-2.2598,-2.2756,-2.2796,-2.2333,-2.1928,-2.1532,-2.0978,-2.1015,-2.1122,-2.1176,-2.0218,-1.9928,-2.1015,-2.1105,0.0,-2.2775,-2.3038,-2.3144,-2.3144,-2.212,-2.159,-2.1895,-2.107,-2.0784,-2.1131,-2.1147,-2.1527,-2.2575,-2.126,-2.0492,-2.0152,-1.8943,-1.7782,-1.6767,-1.6727,-1.6567,-1.6326,-1.613,-1.522,-1.3922,-1.3757,-1.2254,-0.9933,-0.883,-0.833,-0.8343,-0.8465,-0.8513,-0.8506,-1.4971,-1.7806,-2.0749,-2.3576,-2.4803,-2.635,-2.9356,-3.0704,-3.0881,-2.9706,-2.9834,-2.9091,-2.6389,-2.4865,-2.3438,-2.2155,-2.0991,-1.9923,-1.9036,-1.8798,-1.8221,-1.709,-1.8434,-1.9039,-1.8718,-2.0104,-2.0779,-2.0566,-2.1445,-2.2434,-2.3369,-2.3746,0.0,0.0,0.0,0.0,-2.4968,-2.5253,-2.4849,-2.3952,-2.3731,-2.3122,-2.2441,-2.2793,-2.291,-2.293,-2.3008,-2.2812,-2.2302,-2.1353,-2.0296,-1.9222,-1.787,-1.7684,-1.8226,-1.9222,-2.0494,-2.1836,-2.2862,-2.3144,-2.3144,-2.3144,-2.3144,-2.3125,-2.3047,-2.3027,-2.3027,-2.3027,-2.256,-2.2044,-2.1554,-2.0784,-1.9915,-1.8832,-1.9475,-2.0212,-2.0529,-2.0124,-1.9926,-2.0112,-2.0112,-2.0549,-2.1516,-2.2492,-2.3144,-2.3144,-2.2862,-2.2655,-2.2272,-2.1111,-2.0917,-2.2092,-2.0987,-2.0431,-2.0358,-2.0542,-1.9747,-1.7775,-1.7819,-1.7509,-1.7061,-1.682,-1.6673,-1.6534,-1.5294,-1.4072,-1.2751,-1.1708,-1.042,-0.8948,-0.8735,-0.8635,-0.8635,-0.8662,-0.8669,-0.8655,-1.4252,0.0,0.0,-2.2308,-2.3618,-2.5586,-2.9236,-3.0713,-3.104,-3.0034,-2.9886,-2.9154,-2.7271,-2.5586,-2.4141,-2.2861,-2.141,-2.0041,-1.9036,-1.8479,-1.7985,-1.7697,-1.8936,-1.9634,-1.9634,-2.0857,-2.1465,-2.125,-2.1998,-2.2853,-2.3884,-2.4517,-2.5283,-2.6013,0.0,-2.541,0.0,-2.5755,-2.584,-2.577,-2.5223,-2.4511,-2.3669,-2.3892,-2.3627,-2.3144,-2.3144,-2.3008,-2.2679,-2.1603,-2.0477,-1.9314,-1.8056,-1.7684,-1.7777,-1.8411,-1.9405,-2.0657,-2.1854,-2.2208,-2.2315,-2.295,-2.3144,-2.3144,-2.3144,-2.2599,-2.2208,-2.2208,-2.1536,-2.0737,-1.9903,-1.9365,-1.8814,-1.8162,-1.864,-1.9034,-1.9377,-1.8701,-1.8499,-1.9078,-1.9573,-2.0332,-2.1463,-2.2447,-2.3144,-2.3144,-2.3144,-2.3152,-2.3129,-2.1423,-2.0884,-2.189,-1.9971,-1.9324,-2.0136,-1.9549,-1.9155,-1.8872,-1.8292,-1.7889,-1.7595,-1.7462,-1.7235,-1.6927,-1.6202,-1.5155,-1.3713,-1.1627,-0.9984,-0.871,-0.871,-0.871,-0.873,-0.8886,-0.8852,-0.8608,-1.2548,-1.5139,-1.8013,-2.0023,-2.2038,-2.4626,-2.8412,-2.98,-3.0432,-3.0395,-2.9692,-2.8885,-2.8065,-2.6227,-2.4707,-2.3891,-2.2125,-2.0526,-1.9413,-1.8683,-1.844,-1.8676,-1.9624,-2.0301,-2.0847,-2.1601,-2.1973,-2.1894,-2.2666,-2.3426,-2.4243,-2.5335,-2.6105,-2.6604,0.0,-2.6533,-2.649,-2.6334,-2.6692,-2.7245,-2.6553,-2.5694,-2.4787,-2.4787,-2.4125,-2.3144,-2.3144,-2.295,-2.258,-2.1658,-2.0477,-1.9314,-1.8056,-1.7498,-1.7311,-1.7591,-1.8411,-1.9405,-2.0567,-2.1105,-2.1569,-2.2492,-2.295,-2.3038,-2.2775,-2.1943,-2.1212,-2.0926,-2.0171,-1.9161,-1.7662,-1.7394,-1.7272,-1.6912,-1.7204,-1.7485,-1.7725,-1.7127,-1.71,-1.7966,-1.8728,-1.9727,-2.1164,-2.1968,-2.2599,-2.3057,-2.3144,-2.3359,-2.3906,-2.1866,-2.1256,-2.2451,-1.994,-1.9367,-2.0818,-1.9505,-1.922,-2.0085,-1.9085,-1.845,-1.821,-1.8156,-1.7876,-1.7435,-1.7108,-1.6033,-1.4104,-1.1594,-0.9876,-0.8798,-0.8771,-0.8764,-0.8798,-0.9062,-0.9001,-0.8689,-0.9511,0.0,-1.3529,-1.5635,-1.8608,-2.1914,-2.5667,-2.7931,-2.9932,-3.1988,-3.0882,-2.9675,-2.8931,-2.6544,-2.4945,-2.4874,-2.3891,-2.235,-2.043,-2.1084,-2.1363,-2.0895,-2.138,-2.2125,-2.3161,-2.2729,-2.2266,-2.1894,-2.3353,-2.4113,-2.4243,-2.6471,-2.7262,-2.6842,-2.662,-2.6533,-2.654,-2.7498,-2.7655,-2.7347,-2.7743,-2.664,-2.4787,-2.4787,-2.4125,-2.3144,-2.3144,-2.2403,-2.148,-2.1391,-2.0477,-1.9314,-1.8056,-1.6951,-1.6197,-1.7311,-1.7777,-1.8133,-1.9314,-2.0477,-2.1302,-2.148,-2.2315,-2.2775,-2.1747,-2.1391,-2.1033,-1.9844,-1.8703,-1.7153,-1.4771,-1.4592,-1.443,-1.3104,-1.4242,-1.539,-1.553,-1.6151,-1.67,-1.69,-1.6742,-1.7486,-1.9487,-1.9786,-2.0764,-2.295,-2.3144,-2.3496,-2.4316,-2.2631,-2.2975,-2.5852,-2.3203,-2.1771,-2.2166,-2.157,-2.0413,-1.8712,-1.8758,-1.8865,-1.8824,-1.8571,-1.8424,-1.8247,-1.6981,-1.4729,-1.1916,-1.0175,-0.9222,-0.9096,-0.8967,-0.8927,-0.8856,-0.8891,-0.897,-0.9092,-0.8965,-1.0778,-1.2808,-1.4268,-1.7216,-2.0671,-2.4422,-2.6749,-2.9038,-3.1545,-3.0887,-2.991,-2.9093,-2.7551,-2.6283,-2.5565,-2.5154,-2.4437,-2.3337,-2.371,-2.3906,-2.3966,-2.4121,-2.454,-2.5311,-2.5013,-2.4785,-2.4676,-2.4988,-2.5451,-2.6047,-2.7282,-2.8058,-2.8354,-2.7742,-2.762,-2.7971,-2.8423,-2.8699,-2.8811,-2.9032,-2.7787,-2.5797,-2.5797,-2.4723,-2.3144,-2.3144,-2.2296,-2.1212,-2.0477,-1.9405,-1.8319,-1.787,-1.6857,-1.5927,-1.6386,-1.6574,-1.6857,-1.8041,-1.8764,-1.9314,-2.0025,-2.0584,-2.0764,-2.0314,-1.9679,-1.9039,-1.8503,-1.6814,-1.4829,-1.3006,-1.2877,-1.2819,-1.2473,-1.3046,-1.392,-1.5024,-1.5482,-1.6024,-1.6866,-1.7232,-1.7735,-1.8534,-1.9795,-2.0674,-2.0944,-2.2315,-2.3398,-2.4004,-2.2797,-2.2894,-2.4616,-2.3255,-2.2527,-2.2864,-2.2069,-2.124,-2.0329,-1.9576,-1.9185,-1.9185,-1.9065,-1.9011,-1.9011,-1.8233,-1.6205,-1.3317,-1.2416,-1.098,-0.9273,-0.9123,-0.9083,-0.9117,-0.9036,-0.9239,-0.9264,-0.8368,-1.026,-1.214,-1.329,-1.6458,-2.0024,-2.3555,-2.5809,-2.8061,-3.0681,-3.0384,-2.969,-2.9066,-2.8132,-2.7344,-2.6717,-2.6554,-2.6356,-2.6089,-2.5754,-2.5853,-2.6279,-2.5961,-2.621,-2.6953,-2.6648,-2.6483,-2.6483,-2.629,-2.6595,-2.7299,-2.773,-2.8503,-2.9381,-2.8507,-2.8423,-2.8925,-2.8925,-2.9277,-2.9804,-2.9804,-2.845,-2.6483,-2.6483,-2.5062,-2.3144,-2.3144,-2.212,-2.0657,-1.977,-1.8411,-1.7138,-1.7138,-1.648,-1.5832,-1.5832,-1.5832,-1.6021,-1.6951,-1.7404,-1.787,-1.878,-1.9222,-1.9405,-1.9039,-1.8319,-1.7498,-1.6734,-1.4829,-1.2909,-1.156,-1.1413,-1.1382,-1.1169,-1.1605,-1.2658,-1.4286,-1.4653,-1.536,-1.6905,-1.7274,-1.7552,-1.7933,-1.9369,-2.0076,-1.9645,-2.1212,-2.2404,-2.2814,-2.2647,-2.2829,-2.3727,-2.3462,-2.3302,-2.3332,-2.2235,-2.155,-2.1191,-2.0186,-1.9626,-1.9626,-1.9626,-1.9626,-1.9613,-1.892,-1.716,-1.4657,-1.3849,-1.1904,-0.9557,-0.9361,-0.93,-0.9096,-0.8605,-0.8775,-0.936,-0.7143,-0.9052,-1.094,-1.207,-1.5843,-1.9831,-2.2732,-2.4941,-2.7146,-2.9542,-2.9361,-2.9002,-2.9002,-2.7994,-2.7666,-2.8607,-2.8318,-2.8047,-2.8066,-2.7163,-2.6828,-2.7478,-2.6381,-2.6531,-2.8084,-2.7035,-2.6483,-2.6483,-2.7009,-2.7323,-2.7299,-2.7879,-2.8579,-2.9381,-2.8507,-2.8423,-2.8925,-2.8925,-2.9277,-2.9804,-2.9804,-2.845,-2.6483,-2.6483,-2.5062,-2.3144,-2.3144,-2.1587,-1.9497,-1.9497,-1.784,-1.5832,-1.5832,-1.5832,-1.5832,-1.5832,-1.5832,-1.5832,-1.5832,-1.6763,-1.7684,-1.7684,-1.8596,-1.9222,-1.7963,-1.7684,-1.7016,-1.4447,-1.2909,-1.156,-1.0288,-1.0137,-0.9702,-0.8265,-0.9603,-1.1259,-1.2607,-1.3724,-1.4862,-1.6473,-1.6192,-1.6305,-1.7606,-1.7684,-1.8365,-1.9805,-1.9915,-2.0173,-2.0649,-2.1925,-2.3148,-2.4224,-2.4657,-2.4384,-2.3582,-2.2574,-2.1421,-2.0227,-2.0227,-2.0227,-2.0227,-2.0227,-2.0227,-2.0093,-1.8594,-1.6853,-1.5092,-1.3286,-1.1626,-1.0012,-0.972,-0.9374,-0.9023,-0.7075,-0.7529,-0.9232,-0.7054,-0.836,-0.9873,-1.1226,-1.4542,-1.8198,-2.1832,-2.459,-2.6976,-2.9012,-2.9267,-2.9147,-2.8719,-2.7998,-2.7885,-2.8784,-2.8344,-2.8423,-2.9227,-2.8973,-2.8842,-2.9015,-2.9326,-2.9732,-3.0164,-2.9859,-2.968,-2.968,-2.922,-2.9015,-2.9015,-2.9174,-2.9404,-2.968,-2.9404,-2.9352,-2.9528,-2.9528,-2.9628,-2.9804,-2.9804,-2.845,-2.6483,-2.6483,-2.5062,-2.3144,-2.3144,-2.1587,-1.9497,-1.9497,-1.784,-1.5832,-1.5832,-1.5832,-1.5629,-1.4758,-1.514,-1.5629,-1.4758,-1.5425,-1.6386,-1.6386,-1.6918,-1.7266,-1.6786,-1.6002,-1.4558,-1.1775,-1.0877,-1.019,-0.8924,-0.867,-0.8585,-0.8045,-0.8606,-0.9556,-1.0968,-1.2113,-1.3391,-1.4874,-1.5745,-1.6319,-1.6704,-1.7645,-1.8008,-1.7505,-1.8258,-1.9161,-2.0361,-2.1343,-2.1962,-2.2418,-2.33,-2.367,-2.3599,-2.259,-2.1891,-2.1766,-2.0711,-2.0334,-2.0548,-2.0949,-2.1136,-2.1136,-2.0615,-1.9444,-1.7742,-1.5691,-1.3815,-1.2266,-1.0792,-1.0035,-0.9705,-0.8841,-0.9079,-0.9912,-0.7088,-0.7805,-0.8819,-1.0396,-1.3809,-1.7543,-2.1293,-2.4095,-2.6402,-2.8135,-2.8716,-2.8938,-2.9015,-2.8317,-2.8221,-2.9087,-2.8897,-2.9076,-2.9934,-3.024,-3.0343,-3.0343,-3.1267,-3.1536,-3.1167,-3.1167,-3.1044,-3.0696,-3.0062,-2.9804,-2.9804,-2.9804,-2.9804,-2.9804,-2.9804,-2.9804,-2.9804,-2.9804,-2.9546,-2.9184,-2.9184,-2.7867,-2.588,-2.588,-2.4723,-2.3144,-2.3144,-2.1587,-1.9497,-1.9497,-1.784,-1.5832,-1.5832,-1.5832,-1.5629,-1.4854,-1.4854,-1.5045,-1.4663,-1.514,-1.5858,-1.5965,-1.6139,-1.6202,-1.5703,-1.4541,-1.2929,-1.0518,-0.9648,-0.9023,-0.8137,-0.8038,-0.8038,-0.8038,-0.8119,-0.87,-1.0163,-1.1007,-1.2103,-1.4278,-1.5122,-1.581,-1.642,-1.7274,-1.7456,-1.6706,-1.7372,-1.8251,-1.9482,-2.0382,-2.0956,-2.1227,-2.2803,-2.3424,-2.3225,-2.264,-2.2274,-2.2004,-2.104,-2.0655,-2.0855,-2.1336,-2.155,-2.1563,-2.167,-2.0784,-1.9172,-1.7806,-1.5771,-1.3511,-1.2281,-1.1126,-1.039,-1.0055,-0.9988,-0.9944,-0.686,-0.7078,-0.775,-0.9535,-1.3373,-1.7447,-2.0791,-2.3402,-2.5542,-2.7049,-2.7777,-2.8624,-2.9628,-2.8825,-2.8537,-2.9408,-2.9625,-2.996,-3.0349,-3.0871,-3.1262,-3.1262,-3.2136,-3.2236,-3.1315,-3.1315,-3.0745,-2.9702,-2.9624,-2.9546,-2.9546,-2.9624,-2.9702,-2.9702,-2.9702,-2.9702,-2.9702,-2.9624,-2.8949,-2.8004,-2.8004,-2.6685,-2.4787,-2.4787,-2.4125,-2.3057,-2.3038,-2.1498,-1.9497,-1.9405,-1.7747,-1.5832,-1.5832,-1.5737,-1.5629,-1.5629,-1.4854,-1.4268,-1.5343,-1.575,-1.5925,-1.6206,-1.6326,-1.6025,-1.4749,-1.3409,-1.2033,-1.0373,-0.8944,-0.8052,-0.8038,-0.8038,-0.8038,-0.8038,-0.8038,-0.8478,-1.0029,-1.0103,-1.1114,-1.415,-1.4313,-1.4787,-1.6299,-1.6452,-1.6557,-1.6909,-1.6935,-1.7291,-1.7767,-1.8998,-1.9956,-2.0505,-2.2814,-2.351,-2.232,-2.2554,-2.2153,-2.1109,-2.1109,-2.1109,-2.1122,-2.1416,-2.1563,-2.1603,-2.1884,-2.1078,-1.9602,-1.9468,-1.7442,-1.4199,-1.4018,-1.2601,-1.0955,-1.0649,-1.0344,-0.9574,-0.4036,-0.5079,-0.6173,-0.7894,-1.1538,-1.5341,-1.8589,-2.2305,-2.5201,-2.6517,-2.8295,-2.9327,-2.9151,-2.9277,-2.9401,-2.939,-2.9431,-2.9536,-2.9618,-3.0831,-3.151,-3.151,-3.2904,-3.3227,-3.2307,-3.2236,-3.104,-2.8505,-2.7706,-2.7302,-2.7302,-2.8108,-2.8505,-2.8505,-2.8505,-2.8505,-2.8426,-2.7626,-2.7139,-2.6894,-2.6894,-2.6047,-2.4787,-2.4787,-2.4125,-2.295,-2.2031,-2.0764,-1.9405,-1.8411,-1.7124,-1.5832,-1.5832,-1.514,-1.4364,-1.4364,-1.4854,-1.5235,-1.4555,-1.521,-1.6179,-1.6259,-1.678,-1.6652,-1.4261,-1.3487,-1.2355,-0.9351,-0.8438,-0.818,-0.8058,-0.8038,-0.8038,-0.8038,-0.8038,-0.8151,-0.8478,-0.9434,-1.0276,-1.1208,-1.2344,-1.3222,-1.3663,-1.3963,-1.4017,-1.3887,-1.4931,-1.5712,-1.6041,-1.7502,-1.8741,-1.9346,-2.0354,-2.076,-2.0488,-2.1011,-2.1189,-2.1109,-2.1109,-2.1109,-2.1122,-2.1416,-2.167,-2.1897,-2.2191,-2.2176,-2.1952,-2.0561,-1.8582,-1.649,-1.5035,-1.3247,-1.1423,-1.1118,-1.0751,-1.0121,-0.1453,-0.2484,-0.4025,-0.724,-1.0274,-1.345,-1.7357,-2.1379,-2.4409,-2.5903,-2.7574,-2.8716,-2.8875,-2.9202,-2.9503,-2.9855,-2.9776,-2.9857,-3.0008,-3.1446,-3.2398,-3.2679,-3.3568,-3.3533,-3.2593,-3.1675,-2.9936,-2.736,-2.6812,-2.6483,-2.6483,-2.7116,-2.736,-2.736,-2.736,-2.736,-2.736,-2.673,-2.6213,-2.5714,-2.5714,-2.4914,-2.3774,-2.3978,-2.3507,-2.2698,-2.1692,-2.0477,-1.9314,-1.8149,-1.6857,-1.5832,-1.5832,-1.5343,-1.4758,-1.4758,-1.4854,-1.4949,-1.4758,-1.5551,-1.6366,-1.6767,-1.7341,-1.706,-1.4318,-1.3597,-1.2635,-0.9268,-0.8465,-0.8323,-0.8174,-0.8085,-0.8038,-0.8038,-0.8038,-0.8038,-0.8038,-0.8627,-0.9406,-1.0365,-1.1205,-1.2106,-1.2946,-1.3194,-1.3214,-1.2986,-1.3826,-1.4418,-1.4658,-1.5689,-1.7092,-1.8791,-1.9626,-1.9933,-1.98,-2.0254,-2.0628,-2.0909,-2.0909,-2.0975,-2.1122,-2.1416,-2.1241,-2.0598,-2.1002,-2.0712,-2.0161,-1.9161,-1.7803,-1.6146,-1.5145,-1.3559,-1.1789,-1.1484,-1.1138,-1.0632,0.1569,0.0654,-0.1043,-0.5681,-0.8268,-1.1316,-1.5644,-1.9698,-2.282,-2.4648,-2.5927,-2.7204,-2.8322,-2.8599,-2.9174,-3.0289,-3.0413,-3.0556,-3.096,-3.2331,-3.3463,-3.4071,-3.4052,-3.3533,-3.2593,-3.0289,-2.8148,-2.6235,-2.6069,-2.5986,-2.5986,-2.613,-2.6235,-2.6235,-2.6235,-2.6235,-2.6213,-2.6069,-2.5462,-2.4532,-2.4361,-2.3559,-2.2551,-2.2553,-2.2457,-2.2208,-2.1087,-2.0116,-1.9039,-1.787,-1.6669,-1.5737,-1.5534,-1.5534,-1.5534,-1.5534,-1.4758,-1.4172,-1.5439,-1.6046,-1.65,-1.7422,-1.7849,-1.7258,-1.4654,-1.3861,-1.285,-0.9661,-0.873,-0.8465,-0.8303,-0.8147,-0.8038,-0.8038,-0.8038,-0.8038,-0.8038,-0.8058,-0.8578,-1.0207,-1.0377,-1.094,-1.2469,-1.2615,-1.2635,-1.2663,-1.2947,-1.3262,-1.3621,-1.4039,-1.5434,-1.8173,-1.9022,-1.9331,-1.9137,-1.9318,-1.9562,-1.997,-1.997,-2.0,-2.0271,-2.0644,-1.9881,-1.865,-1.8956,-1.8336,-1.7021,-1.7106,-1.6207,-1.4686,-1.4736,-1.3699,-1.2026,-1.1755,-1.1443,-1.1104,0.6338,0.4824,0.329,0.1134,-0.3001,-0.7186,-1.0382,-1.5271,-1.9255,-2.1163,-2.3002,-2.4623,-2.6152,-2.7096,-2.85,-3.0377,-3.1061,-3.157,-3.1976,-3.2922,-3.3746,-3.4371,-3.4155,-3.3533,-3.2593,-2.8934,-2.6356,-2.5041,-2.4145,-2.3647,-2.3647,-2.4638,-2.5041,-2.5041,-2.5041,-2.5041,-2.5041,-2.4059,-2.356,-2.3299,-2.2277,-2.2347,-2.2785,-2.0836,-2.0639,-2.1212,-1.9023,-1.8133,-1.7777,-1.648,-1.5927,-1.5629,-1.4555,-1.4172,-1.4172,-1.4172,-1.4064,-1.4172,-1.5439,-1.6046,-1.6553,-1.7689,-1.8009,-1.7359,-1.5067,-1.4443,-1.3356,-0.9851,-0.8879,-0.8594,-0.8323,-0.8147,-0.8038,-0.8038,-0.8038,-0.8038,-0.8038,-0.8153,-0.8398,-0.8772,-0.8913,-0.9169,-0.9574,-0.9588,-0.9647,-0.9778,-1.0915,-1.1855,-1.2221,-1.3538,-1.458,-1.5258,-1.5675,-1.591,-1.6204,-1.591,-1.5953,-1.6312,-1.6312,-1.6431,-1.6519,-1.6562,-1.6668,-1.6786,-1.6859,-1.6861,-1.6777,-1.7011,-1.598,-1.4508,-1.4821,-1.3792,-1.204,-1.1864,-1.1531,-1.1104,1.0076,0.7625,0.5462,0.3905,0.0193,-0.3403,-0.6091,-1.066,-1.4292,-1.5922,-1.8634,-2.118,-2.3301,-2.5284,-2.7316,-2.9392,-3.0497,-3.1511,-3.2659,-3.3524,-3.4103,-3.4208,-3.3596,-3.2037,-2.9399,-2.6885,-2.5041,-2.3887,-2.3387,-2.3144,-2.3144,-2.2979,-2.324,-2.3887,-2.3221,-2.324,-2.3887,-2.3299,-2.3144,-2.3057,-2.2492,-2.2446,-2.264,-2.178,-2.1636,-2.1646,-1.943,-1.8688,-1.8411,-1.648,-1.5343,-1.4663,-1.4076,-1.3392,-1.2813,-1.2813,-1.3788,-1.5083,-1.5827,-1.6166,-1.6513,-1.7542,-1.7916,-1.7372,-1.5035,-1.4609,-1.3699,-1.0259,-0.9279,-0.8954,-0.8574,-0.8316,-0.814,-0.8052,-0.8038,-0.8038,-0.8038,-0.8174,-0.8323,-0.8465,-0.8615,-0.8771,-0.8927,-0.894,-0.8994,-0.9144,-0.9902,-1.0394,-1.0642,-1.1438,-1.2235,-1.3287,-1.4221,-1.4983,-1.5207,-1.4983,-1.4983,-1.5207,-1.5207,-1.5319,-1.5533,-1.5656,-1.5307,-1.4605,-1.4827,-1.4459,-1.3645,-1.3922,-1.3459,-1.2964,-1.2993,-1.2742,-1.2368,-1.221,-1.1907,-1.1362,1.3097,1.037,0.7995,0.6311,0.3936,0.1728,-0.0192,-0.4307,-0.8016,-1.02,-1.3749,-1.7298,-2.0338,-2.3387,-2.605,-2.8276,-2.9742,-3.1102,-3.2368,-3.3339,-3.3937,-3.3984,-3.2636,-3.0239,-2.6565,-2.5378,-2.4211,-2.3144,-2.2862,-2.2687,-2.2687,-2.148,-2.1391,-2.2227,-2.1302,-2.1569,-2.2687,-2.2403,-2.2541,-2.2901,-2.2358,-2.2255,-2.2454,-2.2244,-2.2138,-2.1987,-1.985,-1.9039,-1.8672,-1.617,-1.4758,-1.3776,-1.3199,-1.2328,-1.1463,-1.1463,-1.3295,-1.5491,-1.6002,-1.6166,-1.638,-1.7261,-1.7383,-1.6857,-1.4852,-1.4319,-1.3414,-1.0501,-0.9612,-0.9245,-0.8791,-0.8472,-0.8221,-0.8065,-0.8038,-0.8038,-0.8038,-0.8174,-0.8323,-0.8465,-0.8615,-0.8771,-0.8927,-0.894,-0.8994,-0.9144,-0.9293,-0.9449,-0.9598,-0.9741,-1.0422,-1.1615,-1.3168,-1.3961,-1.3761,-1.3611,-1.362,-1.377,-1.3779,-1.392,-1.4163,-1.4313,-1.3678,-1.2507,-1.2781,-1.212,-1.0826,-1.0259,-1.0007,-1.0144,-1.0287,-1.0468,-1.1005,-1.1058,-1.0829,-1.0792,1.57,1.3804,1.2031,1.0231,0.9837,0.9731,0.9543,0.5265,0.0278,-0.4585,-0.8796,-1.3003,-1.7526,-2.1633,-2.5103,-2.7533,-2.9424,-3.0384,-3.0238,-3.1344,-3.2607,-3.3916,-3.1256,-2.8699,-2.6565,-2.5378,-2.4211,-2.3144,-2.1943,-2.1391,-2.1391,-2.0206,-1.9679,-1.977,-1.9679,-2.0296,-2.1391,-2.0223,-2.0838,-2.2368,-2.0061,-2.0481,-2.2244,-2.0061,-2.0076,-2.1069,-1.8672,-1.787,-1.739,-1.4924,-1.3968,-1.3488,-1.1063,-1.019,-1.0092,-1.0092,-1.2037,-1.4268,-1.5465,-1.5858,-1.6072,-1.6967,-1.6336,-1.5229,-1.466,-1.3582,-1.2127,-1.028,-0.9686,-0.9245,-0.8791,-0.8472,-0.8221,-0.8065,-0.8038,-0.8038,-0.8038,-0.8174,-0.8323,-0.8465,-0.8615,-0.8771,-0.8927,-0.894,-0.8994,-0.9144,-0.9293,-0.9449,-0.9598,-0.9741,-0.9822,-0.9943,-1.1495,-1.1623,-1.02,-1.0207,-1.0221,-1.0229,-1.0141,-1.0184,-1.0196,-1.021,-1.05,-1.0912,-1.0939,-1.0812,-1.043,-0.7199,-0.5873,-0.5901,-0.613,-0.6226,-0.6378,-0.667,-0.7285,-0.8213,1.6813,1.4138,1.2005,1.1836,1.0019,0.9376,1.1619,0.9518,0.5422,-0.1022,-0.7675,-1.3566,-1.8049,-2.2661,-2.565,-2.6349,-2.8495,-2.9487,-2.8752,-2.9316,-3.0164,-3.1176,-2.8909,-2.6617,-2.4385,-2.3201,-2.2082,-2.0854,-2.0404,-2.0206,-2.0116,-1.8948,-1.878,-1.9497,-1.8688,-1.9039,-2.0116,-1.9679,-2.0179,-2.1349,-2.0359,-2.0985,-2.2415,-2.1453,-2.1696,-2.212,-1.9679,-1.8856,-1.8303,-1.5007,-1.3392,-1.2328,-1.0583,-0.941,-0.9114,-1.0681,-1.2041,-1.3434,-1.5506,-1.6099,-1.6117,-1.5927,-1.5696,-1.5033,-1.3342,-1.2647,-1.1979,-1.0169,-0.9625,-0.9245,-0.8791,-0.8472,-0.8248,-0.8194,-0.8099,-0.8072,-0.8167,-0.8235,-0.8323,-0.8465,-0.8615,-0.8771,-0.8927,-0.894,-0.9035,-0.9279,-0.9347,-0.949,-0.9727,-0.9788,-0.9822,-0.9822,-1.0436,-1.0443,-0.9842,-0.9849,-0.8738,-0.6761,-0.6708,-0.6781,-0.6728,-0.6726,-0.6823,-0.7162,-0.7365,-0.8666,-1.0567,-0.9209,-0.6056,-0.2132,-0.2198,-0.2225,-0.2223,-0.2353,-0.2592,-0.3636,1.7462,1.4487,1.2097,1.2286,1.0067,0.8802,1.0658,1.1546,0.9099,0.1017,-0.7745,-1.517,-2.0465,-2.4158,-2.6013,-2.544,-2.6983,-2.7578,-2.6602,-2.6574,-2.7333,-2.8768,-2.6631,-2.4428,-2.2457,-2.0837,-1.9505,-1.8302,-1.7857,-1.7672,-1.7672,-1.6411,-1.6518,-1.7717,-1.6908,-1.7375,-1.8856,-1.8378,-1.8938,-1.9991,-1.9868,-2.0534,-2.1587,-2.1721,-2.194,-2.2058,-1.9736,-1.8656,-1.7795,-1.4423,-1.2425,-1.1072,-0.9805,-0.8726,-0.8528,-1.117,-1.1766,-1.2282,-1.4949,-1.5366,-1.5071,-1.5129,-1.4744,-1.3862,-1.2242,-1.1792,-1.1256,-0.9961,-0.9483,-0.9171,-0.8723,-0.8472,-0.8323,-0.8275,-0.818,-0.8147,-0.8255,-0.8228,-0.8269,-0.8459,-0.8574,-0.8716,-0.892,-0.894,-0.9022,-0.9225,-0.9327,-0.951,-0.9802,-0.9822,-0.9822,-0.9822,-0.9842,-0.9258,-0.8301,-0.9271,-0.864,-0.6412,-0.4371,-0.3403,-0.3422,-0.3377,-0.3421,-0.3439,-0.3624,-0.5033,-0.7314,-0.7336,-0.443,-0.0,-0.0,-0.0,-0.0,-0.0,-0.0,-0.0968,1.787,1.5257,1.2869,1.1692,1.0615,0.9371,0.7423,1.1535,1.1405,0.1485,-0.848,-1.7344,-2.4608,-2.576,-2.5766,-2.4993,-2.4904,-2.4556,-2.3497,-2.2961,-2.4018,-2.7096,-2.4514,-2.237,-2.0977,-1.8648,-1.6843,-1.5578,-1.4325,-1.3778,-1.3778,-1.2501,-1.2619,-1.3872,-1.3872,-1.5305,-1.7576,-1.6068,-1.6548,-1.839,-1.7943,-1.8545,-1.957,-1.9883,-2.0278,-2.0412,-1.8378,-1.68,-1.5347,-1.2705,-1.1072,-0.9805,-0.8428,-0.8038,-0.8528,-1.117,-1.0974,-1.0627,-1.3489,-1.3369,-1.285,-1.4696,-1.3098,-1.1247,-1.162,-1.0778,-0.9734,-0.9435,-0.9252,-0.9015,-0.856,-0.8479,-0.8431,-0.8296,-0.8269,-0.8269,-0.8275,-0.814,-0.8153,-0.8445,-0.8486,-0.8601,-0.8906,-0.894,-0.894,-0.894,-0.9218,-0.951,-0.9802,-0.9822,-0.9822,-0.9822,-0.9842,-0.8178,-0.5022,-0.8228,-0.9821,-0.9691,-0.3137,-0.0,-0.0,-0.0,-0.0,-0.0,-0.0,-0.0,-0.0,-0.0,-0.0,-0.0,-0.0,-0.0,-0.0,-0.0,-0.0,-0.0955,1.3673,1.191,1.0572,1.0496,0.9033,0.819,0.873,0.9246,0.7668,0.2033,-0.516,-1.3165,-2.2353,-2.3381,-2.2792,-2.0969,-2.0943,-2.0449,-1.8893,-1.9574,-2.0435,-2.1337,-2.0552,-1.8807,-1.6044,-1.6142,-1.514,-1.3047,-1.2073,-1.1889,-1.2501,-1.2037,-1.2619,-1.3872,-1.3872,-1.4841,-1.6278,-1.5697,-1.6111,-1.7177,-1.7604,-1.8046,-1.8596,-1.9631,-1.985,-1.9268,-1.7121,-1.6021,-1.5145,-1.1736,-1.0288,-0.9805,-0.8428,-0.8038,-0.8329,-1.0092,-1.0384,-1.0697,-1.2453,-1.2082,-1.1353,-1.199,-1.1585,-1.0732,-0.998,-0.9504,-0.9144,-0.8947,-0.8791,-0.8608,-0.8377,-0.8248,-0.8228,-0.8391,-0.8248,-0.8221,-0.8533,-0.8364,-0.8309,-0.8608,-0.8642,-0.8723,-0.892,-0.9028,-0.9137,-0.9239,-0.9523,-0.9727,-0.9815,-0.9836,-0.9767,-0.9751,-0.9797,-0.9375,-0.8342,-0.9268,-0.7426,-0.2886,-0.09,-0.0,-0.0,-0.0,-0.0,-0.0,-0.0,-0.0,-0.0,-0.0,-0.0,-0.0,-0.0,-0.0,-0.0,-0.0,-0.0,-0.0266,1.1755,1.0463,0.9574,0.9958,0.8422,0.7422,0.8408,0.8601,0.7078,0.2782,-0.1584,-0.7149,-1.4333,-1.539,-1.5078,-1.4222,-1.3794,-1.2939,-1.1387,-1.1793,-1.1908,-1.1494,-1.0901,-1.0839,-1.1333,-1.151,-1.0511,-0.8252,-0.7753,-0.8463,-1.0314,-1.0404,-1.117,-1.2598,-1.2995,-1.4017,-1.5631,-1.5351,-1.5493,-1.5864,-1.6638,-1.7,-1.7199,-1.8128,-1.8321,-1.7814,-1.555,-1.4502,-1.3741,-1.0965,-0.9608,-0.9015,-0.8237,-0.8038,-0.8237,-0.9608,-0.978,-0.9762,-1.1061,-1.0541,-0.9642,-0.9753,-0.9934,-0.9793,-0.9043,-0.8852,-0.8791,-0.8587,-0.8465,-0.837,-0.8289,-0.8241,-0.8289,-0.8533,-0.8418,-0.8397,-0.8669,-0.8506,-0.8445,-0.8682,-0.871,-0.8771,-0.8927,-0.9069,-0.9245,-0.9469,-0.9646,-0.966,-0.9849,-0.9747,-0.9186,-0.7916,-0.9117,-0.9748,-0.9806,-0.7241,-0.3973,-0.0,-0.0,-0.0,-0.0,-0.0,-0.0,-0.0,-0.0,-0.0,-0.0,-0.0,-0.0,-0.0,-0.0,-0.0,-0.0,-0.0,-0.0,-0.0,1.1151,1.0094,0.9264,0.9633,0.8244,0.7081,0.7081,0.8979,0.8894,0.4656,0.2504,0.0494,-0.2104,-0.3109,-0.4067,-0.4971,-0.4034,-0.2875,-0.1591,-0.0997,-0.0168,0.0776,0.2497,0.055,-0.5472,-0.4975,-0.3877,-0.25,-0.23,-0.4011,-0.7572,-0.7566,-0.8619,-1.0431,-1.1346,-1.2969,-1.5088,-1.4903,-1.4612,-1.4396,-1.5343,-1.5613,-1.5575,-1.597,-1.6124,-1.6006,-1.3933,-1.2606,-1.156,-1.0288,-0.9023,-0.8038,-0.8038,-0.8038,-0.8237,-0.9509,-0.8924,-0.8237,-0.9509,-0.8924,-0.8045,-0.8045,-0.835,-0.8655,-0.8655,-0.8655,-0.8581,-0.8323,-0.8153,-0.8051,-0.8282,-0.8384,-0.852,-0.8682,-0.8696,-0.8703,-0.8743,-0.8621,-0.8581,-0.875,-0.8771,-0.8825,-0.8967,-0.911,-0.9327,-0.952,-0.954,-0.9486,-0.9394,-0.9658,-0.8459,-0.5412,-0.8243,-0.9813,-0.982,-0.3301,-0.0,-0.0,-0.0,-0.0,-0.0,-0.0,0.0404,0.0944,0.0277,-0.0,-0.0,-0.0,-0.0,-0.0,-0.0,-0.0,-0.0,-0.0,-0.0,0.0131,0.8504,0.8026,0.7779,0.7745,0.7347,0.7061,0.7061,0.8296,1.0163,1.2781,1.0174,0.8935,1.0979,0.7975,0.6091,0.6847,0.7484,0.7939,0.8188,0.7409,0.7133,0.7819,1.2445,1.3598,1.0641,0.4276,0.0496,-0.0597,0.0798,-0.03,-0.3907,-0.4503,-0.6189,-0.8576,-0.9878,-1.1144,-1.2538,-1.3123,-1.3326,-1.3311,-1.4979,-1.5213,-1.4601,-1.5646,-1.5154,-1.3586,-1.2357,-1.1269,-1.019,-0.8924,-0.8237,-0.8038,-0.8038,-0.8038,-0.8038,-0.8329,-0.8237,-0.8038,-0.8336,-0.8251,-0.7965,-0.7965,-0.8046,-0.8119,-0.8113,-0.8119,-0.8106,-0.8046,-0.6989,-0.6497,-0.8057,-0.8303,-0.8404,-0.8669,-0.8608,-0.8655,-0.9008,-0.8933,-0.894,-0.9205,-0.9239,-0.9245,-0.9279,-0.9422,-0.9591,-0.9674,-0.9687,-0.8587,-0.6154,-0.8412,-0.9417,-0.8747,-0.9441,-0.985,-0.9856,-0.3218,-0.0,-0.0,-0.0,-0.0,-0.0,-0.0,0.3096,0.8117,0.2495,-0.0,-0.0,-0.0,-0.0,-0.0,-0.0,-0.0,-0.0,-0.0,-0.0,0.0775,0.8236,0.7617,0.7238,0.7156,0.7143,0.7143,0.7143,0.8623,1.0992,1.4498,1.5097,1.6332,1.9292,1.8197,1.74,1.7802,1.7349,1.7315,1.7929,1.6702,1.6056,1.6324,1.8479,1.8797,1.7221,1.1701,0.766,0.5049,0.5178,0.4288,0.229,-0.0698,-0.3489,-0.6168,-0.8181,-0.9824,-1.1062,-1.1875,-1.235,-1.2683,-1.3646,-1.4126,-1.4193,-1.4909,-1.4274,-1.2848,-1.1683,-1.0323,-0.8924,-0.8237,-0.8038,-0.8038,-0.8038,-0.8038,-0.8038,-0.8038,-0.8045,-0.7959,-0.7959,-0.7965,-0.7672,-0.6442,-0.7065,-0.7691,-0.6348,-0.6142,-0.6453,-0.7698,-0.6247,-0.5473,-0.7943,-0.8397,-0.8486,-0.8771,-0.875,-0.8784,-0.9015,-0.9049,-0.9103,-0.9151,-0.9231,-0.9312,-0.9392,-0.9473,-0.9587,-0.9761,-0.9774,-0.7649,-0.2831,-0.4195,-0.5119,-0.5107,-0.5154,-0.5102,-0.5075,-0.1745,-0.0,-0.0,-0.0,-0.0,0.0133,0.3488,0.7152,1.045,0.6936,0.4353,0.2687,0.0737,-0.0,-0.0,-0.0,-0.0,-0.0,-0.0,-0.0,0.0891,0.8894,0.7929,0.7143,0.7143,0.7143,0.7143,0.7143,0.9052,1.1423,1.3854,1.8169,2.2087,2.4918,2.6743,2.7524,2.6886,2.5707,2.5355,2.6429,2.5219,2.4447,2.4404,2.2695,2.1107,1.9591,1.7811,1.4999,1.1104,0.9461,0.8583,0.8294,0.339,-0.0199,-0.2477,-0.5654,-0.7787,-0.9023,-1.0113,-1.0969,-1.1445,-1.1895,-1.2601,-1.3476,-1.3476,-1.3025,-1.2188,-1.1181,-0.9577,-0.8038,-0.8038,-0.8038,-0.8038,-0.8038,-0.8038,-0.8038,-0.8045,-0.7959,-0.7872,-0.7459,-0.7672,-0.7272,-0.4117,-0.4329,-0.4843,-0.301,-0.3012,-0.3924,-0.6168,-0.4834,-0.4062,-0.6537,-0.7868,-0.8608,-0.8872,-0.8933,-0.885,-0.887,-0.8997,-0.9104,-0.903,-0.869,-0.8467,-0.8594,-0.8606,-0.8914,-0.9685,-0.9814,-0.6931,-0.037,-0.0,-0.0,-0.0,-0.0,-0.0,-0.0,-0.0,-0.0,-0.0,0.121,0.1211,0.0269,0.7421,1.0705,1.0712,1.0967,0.9422,0.6379,0.3201,0.1175,-0.0,-0.0,-0.0,-0.0,-0.0,0.0654,0.2394,0.8894,0.7929,0.7143,0.7143,0.7143,0.7143,0.7143,0.9052,1.1657,1.4746,1.9266,2.3929,2.8305,3.1294,3.2653,3.1757,3.1505,3.1451,3.1577,3.0171,2.9167,2.8642,2.7174,2.5092,2.2505,2.2127,1.9208,1.3397,1.2007,1.0947,1.0138,0.6738,0.4757,0.3864,-0.1174,-0.3466,-0.3668,-0.6655,-0.7878,-0.7964,-0.9981,-1.095,-1.1047,-1.1047,-1.0534,-0.9806,-0.9621,-0.8917,-0.8038,-0.8038,-0.8038,-0.8038,-0.8038,-0.8038,-0.8045,-0.7965,-0.7972,-0.7459,-0.5127,-0.6258,-0.6782,-0.1805,0.2714,0.5349,0.3413,0.1106,-0.0605,-0.1006,-0.0804,-0.0708,-0.1034,-0.5156,-0.8601,-0.8886,-0.8913,-0.893,-0.8931,-0.8961,-0.9098,-0.9598,-0.7155,-0.5502,-0.5517,-0.5517,-0.6644,-0.9562,-0.9814,-0.6931,-0.037,-0.0,-0.0,-0.0,-0.0,-0.0,-0.0,-0.0,-0.0,0.0132,0.6297,0.6065,0.0269,0.7421,1.0699,1.0685,1.071,1.0639,1.0228,0.9812,0.5841,-0.0,-0.0,-0.0,-0.0,-0.0,0.3632,0.8232,0.9061,0.7929,0.7143,0.7143,0.7143,0.7143,0.7143,0.9052,1.1497,1.4145,1.8355,2.2713,2.6806,3.0923,3.3226,3.2993,3.3704,3.4206,3.4206,3.3083,3.2234,3.2055,2.9755,2.7891,2.6666,2.4217,2.1688,1.892,1.5671,1.3454,1.2394,1.0733,0.9291,0.7807,0.3482,0.133,0.0647,-0.3572,-0.6054,-0.7264,-0.8956,-1.0009,-1.0605,-1.0605,-1.0014,-0.9125,-0.8683,-0.8236,-0.8038,-0.8038,-0.8038,-0.8038,-0.8038,-0.8045,-0.7959,-0.7972,-0.7985,-0.7071,-0.2909,-0.0697,0.0693,0.1779,0.492,0.7479,0.6328,0.5259,0.3583,0.0602,-0.0,-0.0,-0.0,-0.2007,-0.429,-0.6179,-0.6468,-0.6405,-0.6449,-0.6479,-0.7246,-0.9546,-0.5284,-0.2216,-0.2216,-0.2216,-0.2712,-0.42,-0.4324,-0.3088,-0.0123,-0.0,-0.0,-0.0,-0.0,-0.0,-0.0,-0.0,0.1823,0.5476,0.8682,0.8651,0.6065,0.9303,1.0652,1.0652,1.0786,1.0839,1.0982,1.1087,0.9109,0.5939,0.3866,0.2864,0.2807,0.2905,0.4778,0.719]},{"header":{"parameterUnit":"m.s-1","parameterCategory":1,"la1":30.6,"la2":28.766,"lo1":-90.7593,"lo2":-88.6598,"dy":0.0162,"dx":0.0183,"nx":116,"ny":114,"refTime":"2023-06-23T12:00:00:Z","depth":0,"parameterNumber":3,"parameterNumberName":"V-component_of_WINDS"},"data":[0.0,0.0,0.0,0.0,0.0,0.0,0.0,0.0,0.0,0.0,0.0,0.0,0.0,0.0,0.0,0.0,0.0,0.0,0.0,0.0,0.0,0.0,0.0,0.0,0.0,0.0,0.0,0.0,0.0,0.0,0.0,0.0,0.0,0.0,0.0,0.0,0.0,0.0,0.0,0.0,0.0,0.0,0.0,0.0,0.0,0.0,0.0,0.0,0.0,0.0,0.0,0.0,0.0,0.0,0.0,0.0,0.0,0.0,0.0,0.0,0.0,0.0,0.0,0.0,0.0,0.0,0.0,0.0,0.0,0.0,0.0,0.0,0.0,0.0,0.0,0.0,0.0,0.0,0.0,0.0,0.0,0.0,0.0,0.0,0.0,0.0,0.0,0.0,0.0,0.0,0.0,0.0,0.0,0.0,0.0,0.0,0.0,0.0,0.0,0.0,0.0,0.0,0.0,0.0,0.0,0.0,0.0,0.0,0.0,0.0,0.0,0.0,0.0,0.0,0.0,0.0,0.0,0.0,0.0,0.0,0.0,0.0,0.0,0.0,0.0,0.0,0.0,0.0,0.0,0.0,0.0,0.0,0.0,0.0,0.0,0.0,0.0,0.0,0.0,0.0,0.0,0.0,0.0,0.0,0.0,0.0,0.0,0.0,0.0,0.0,0.0,0.0,0.0,0.0,0.0,0.0,0.0,0.0,0.0,0.0,0.0,0.0,0.0,0.0,0.0,0.0,0.0,0.0,0.0,0.0,0.0,0.0,0.0,0.0,0.0,0.0,0.0,0.0,0.0,0.0,0.0,0.0,0.0,0.0,0.0,0.0,0.0,0.0,0.0,0.0,0.0,0.0,0.0,0.0,0.0,0.0,0.0,0.0,0.0,0.0,0.0,0.0,0.0,0.0,0.0,0.0,0.0,0.0,0.0,0.0,0.0,0.0,0.0,0.0,0.0,0.0,0.0,0.0,0.0,0.0,0.0,0.0,0.0,0.0,0.0,0.0,0.0,0.0,0.0,0.0,0.0,0.0,0.0,0.0,0.0,0.0,0.0,0.0,0.0,0.0,0.0,0.0,0.0,0.0,0.0,0.0,0.0,0.0,0.0,0.0,0.0,0.0,0.0,0.0,0.0,0.0,0.0,0.0,0.0,0.0,0.0,0.0,0.0,0.0,0.0,0.0,0.0,0.0,0.0,0.0,0.0,0.0,0.0,0.0,0.0,0.0,0.0,0.0,0.0,0.0,0.0,0.0,0.0,0.0,0.0,0.0,0.0,0.0,0.0,0.0,0.0,0.0,0.0,0.0,0.0,0.0,0.0,0.0,0.0,0.0,0.0,0.0,0.0,0.0,0.0,0.0,0.0,0.0,0.0,0.0,0.0,0.0,0.0,0.0,0.0,0.0,0.0,0.0,0.0,0.0,0.0,0.0,0.0,0.0,0.0,0.0,0.0,0.0,0.0,0.0,0.0,0.0,0.0,0.0,0.0,0.0,0.0,0.0,0.0,0.0,0.0,0.0,0.0,0.0,0.0,0.0,0.0,0.0,0.0,0.0,0.0,0.0,0.0,0.0,0.0,0.0,0.0,0.0,0.0,0.0,0.0,0.0,0.0,0.0,0.0,0.0,0.0,0.0,0.0,0.0,0.0,0.0,0.0,0.0,0.0,0.0,0.0,0.0,0.0,0.0,0.0,0.0,0.0,0.0,0.0,0.0,0.0,0.0,0.0,0.0,0.0,0.0,0.0,0.0,0.0,0.0,0.0,0.0,0.0,0.0,0.0,0.0,0.0,0.0,0.0,0.0,0.0,0.0,0.0,0.0,0.0,0.0,0.0,0.0,0.0,0.0,0.0,0.0,0.0,0.0,0.0,0.0,0.0,0.0,0.0,0.0,0.0,0.0,0.0,0.0,0.0,0.0,0.0,0.0,0.0,0.0,0.0,0.0,0.0,0.0,0.0,0.0,0.0,0.0,0.0,0.0,0.0,0.0,0.0,0.0,0.0,0.0,0.0,0.0,0.0,0.0,0.0,0.0,0.0,0.0,0.0,0.0,0.0,0.0,0.0,0.0,0.0,0.0,0.0,0.0,0.0,0.0,0.0,0.0,0.0,0.0,0.0,0.0,0.0,0.0,0.0,0.0,0.0,0.0,0.0,0.0,0.0,0.0,0.0,0.0,0.0,0.0,0.0,0.0,0.0,0.0,0.0,0.0,0.0,0.0,0.0,0.0,0.0,0.0,0.0,0.0,0.0,0.0,0.0,0.0,0.0,0.0,0.0,0.0,0.0,0.0,0.0,0.0,0.0,0.0,0.0,0.0,0.0,0.0,0.0,0.0,0.0,0.0,0.0,0.0,0.0,0.0,0.0,0.0,0.0,0.0,0.0,0.0,0.0,0.0,0.0,0.0,0.0,0.0,0.0,0.0,0.0,0.0,0.0,0.0,0.0,0.0,0.0,0.0,0.0,0.0,0.0,0.0,0.0,0.0,0.0,0.0,0.0,0.0,0.0,0.0,0.0,0.0,0.0,0.0,0.0,0.0,0.0,0.0,0.0,0.0,0.0,0.0,0.0,0.0,0.0,0.0,0.0,0.0,0.0,0.0,0.0,0.0,0.0,0.0,0.0,0.0,0.0,0.0,0.0,0.0,0.0,0.0,0.0,0.0,0.0,0.0,0.0,0.0,0.0,0.0,0.0,0.0,0.0,0.0,0.0,0.0,0.0,0.0,0.0,0.0,0.0,0.0,0.0,0.0,0.0,0.0,0.0,0.0,0.0,0.0,0.0,0.0,0.0,0.0,0.0,0.0,0.0,0.0,0.0,0.0,0.0,0.0,0.0,0.0,0.0,0.0,0.0,0.0,0.0,0.0,0.0,0.0,0.0,0.0,0.0,0.0,0.0,0.0,0.0,0.0,0.0,0.0,0.0,0.0,0.0,0.0,0.0,0.0,0.0,0.0,0.0,0.0,0.0,0.0,0.0,0.0,0.0,0.0,0.0,0.0,0.0,0.0,0.0,0.0,0.0,0.0,0.0,0.0,0.0,0.0,0.0,0.0,0.0,0.0,0.0,0.0,0.0,0.0,0.0,0.0,0.0,0.0,0.0,0.0,0.0,0.0,0.0,0.0,0.0,0.0,0.0,0.0,0.0,0.0,0.0,0.0,0.0,0.0,0.0,0.0,0.0,0.0,0.0,0.0,0.0,0.0,0.0,0.0,0.0,0.0,0.0,0.0,0.0,0.0,0.0,0.0,0.0,0.0,0.0,0.0,0.0,0.0,0.0,0.0,0.0,0.0,0.0,0.0,0.0,0.0,0.0,0.0,0.0,0.0,0.0,0.0,0.0,0.0,0.0,0.0,0.0,0.0,0.0,0.0,0.0,0.0,0.0,0.0,0.0,0.0,0.0,0.0,0.0,0.0,0.0,0.0,0.0,0.0,0.0,0.0,0.0,0.0,0.0,0.0,0.0,0.0,0.0,0.0,0.0,0.0,0.0,0.0,0.0,0.0,0.0,0.0,0.0,0.0,0.0,0.0,0.0,0.0,0.0,0.0,0.0,0.0,0.0,0.0,0.0,0.0,0.0,0.0,0.0,0.0,0.0,0.0,0.0,0.0,0.0,0.0,0.0,0.0,0.0,0.0,0.0,0.0,0.0,0.0,0.0,0.0,0.0,0.0,0.0,0.0,0.0,0.0,0.0,0.0,0.0,0.0,0.0,0.0,0.0,0.0,0.0,0.0,0.0,0.0,0.0,0.0,0.0,0.0,0.0,0.0,0.0,0.0,0.0,0.0,0.0,0.0,0.0,0.0,0.0,0.0,0.0,0.0,0.0,0.0,0.0,0.0,0.0,0.0,0.0,0.0,0.0,0.0,0.0,0.0,0.0,0.0,0.0,0.0,0.0,0.0,0.0,0.0,0.0,0.0,0.0,0.0,0.0,0.0,0.0,0.0,0.0,0.0,0.0,0.0,0.0,0.0,0.0,0.0,0.0,0.0,0.0,0.0,0.0,0.0,0.0,0.0,0.0,0.0,0.0,0.0,0.0,0.0,0.0,0.0,0.0,0.0,0.0,0.0,0.0,0.0,0.0,0.0,0.0,0.0,0.0,0.0,0.0,0.0,0.0,0.0,0.0,0.0,0.0,0.0,0.0,0.0,0.0,0.0,0.0,0.0,0.0,0.0,0.0,0.0,0.0,0.0,0.0,0.0,0.0,0.0,0.0,0.0,0.0,0.0,0.0,0.0,0.0,0.0,0.0,0.0,0.0,0.0,0.0,0.0,0.0,0.0,0.0,0.0,0.0,0.0,0.0,0.0,0.0,0.0,0.0,0.0,0.0,0.0,0.0,0.0,0.0,0.0,0.0,0.0,0.0,0.0,0.0,0.0,0.0,0.0,0.0,0.0,0.0,0.0,0.0,0.0,0.0,0.0,0.0,0.0,0.0,0.0,0.0,0.0,0.0,0.0,0.0,0.0,0.0,0.0,0.0,0.0,0.0,0.0,0.0,0.0,0.0,0.0,0.0,0.0,0.0,0.0,0.0,0.0,0.0,0.0,0.0,0.0,0.0,0.0,0.0,0.0,0.0,0.0,0.0,0.0,0.0,0.0,0.0,0.0,0.0,0.0,0.0,0.0,0.0,0.0,0.0,0.0,0.0,0.0,0.0,0.0,0.0,0.0,0.0,0.0,0.0,0.0,0.0,0.0,0.0,0.0,0.0,0.0,0.0,0.0,0.0,0.0,0.0,0.0,0.0,0.0,0.0,0.0,0.0,0.0,0.0,0.0,0.0,0.0,0.0,0.0,0.0,0.0,0.0,0.0,0.0,0.0,0.0,0.0,0.0,0.0,0.0,0.0,0.0,0.0,0.0,0.0,0.0,0.0,0.0,0.0,0.0,0.0,0.0,0.0,0.0,0.0,0.0,0.0,0.0,0.0,0.0,0.0,0.0,0.0,0.0,0.0,0.0,0.0,0.0,0.0,0.0,0.0,0.0,0.0,0.0,0.0,0.0,0.0,0.0,0.0,0.0,0.0,0.0,0.0,0.0,0.0,0.0,0.0,0.0,0.0,0.0,0.0,0.0,0.0,0.0,0.0,0.0,0.0,0.0,0.0,0.0,0.0,0.0,0.0,0.0,0.0,0.0,0.0,0.0,0.0,0.0,0.0,0.0,0.0,0.0,0.0,0.0,0.0,0.0,0.0,0.0,0.0,0.0,0.0,0.0,0.0,0.0,0.0,0.0,0.0,0.0,0.0,0.0,0.0,0.0,0.0,0.0,0.0,0.0,0.0,0.0,0.0,0.0,0.0,0.0,0.0,0.0,0.0,0.0,0.0,0.0,0.0,0.0,0.0,0.0,0.0,0.0,0.0,0.0,0.0,0.0,0.0,0.0,0.0,0.0,0.0,0.0,0.0,0.0,0.0,0.0,0.0,0.0,0.0,0.0,0.0,0.0,0.0,0.0,0.0,0.0,0.0,0.0,0.0,0.0,0.0,0.0,0.0,0.0,0.0,0.0,0.0,0.0,0.0,0.0,0.0,0.0,0.0,0.0,0.0,0.0,0.0,0.0,0.0,0.0,0.0,0.0,0.0,0.0,0.0,0.0,0.0,0.0,0.0,0.0,0.0,0.0,0.0,0.0,0.0,0.0,0.0,0.0,0.0,0.0,0.0,0.0,0.0,0.0,0.0,0.0,0.0,0.0,0.0,0.0,0.0,0.0,0.0,0.0,0.0,0.0,0.0,0.0,0.0,0.0,0.0,0.0,0.0,0.0,0.0,0.0,0.0,0.0,0.0,0.0,0.0,0.0,0.0,0.0,0.0,0.0,0.0,0.0,0.0,0.0,0.0,0.0,0.0,0.0,0.0,0.0,0.0,0.0,0.0,0.0,0.0,0.0,0.0,0.0,0.0,0.0,0.0,0.0,0.0,0.0,0.0,0.0,0.0,0.0,0.0,0.0,0.0,0.0,0.0,0.0,0.0,0.0,0.0,0.0,0.0,0.0,0.0,0.0,0.0,0.0,0.0,0.0,0.0,0.0,0.0,0.0,0.0,0.0,0.0,0.0,0.0,0.0,0.0,0.0,0.0,0.0,0.0,0.0,0.0,0.0,0.0,0.0,0.0,-0.912,-1.1008,0.0,0.0,0.0,0.0,0.0,0.0,0.0,0.0,0.0,0.0,0.0,0.0,0.0,0.0,0.0,0.0,0.0,0.0,0.0,0.0,0.0,0.0,0.0,0.0,0.0,0.0,0.0,0.0,0.0,0.0,0.0,0.0,0.0,0.0,0.0,0.0,0.0,0.0,0.0,0.0,0.0,0.0,0.0,0.0,0.0,0.0,0.0,0.0,0.0,0.0,0.0,0.0,0.0,0.0,0.0,0.0,0.0,0.0,0.0,0.0,0.0,0.0,0.0,0.0,0.0,0.0,0.0,0.0,0.0,0.0,0.0,0.0,0.0,0.0,0.0,0.0,0.0,0.0,0.0,0.0,0.0,0.0,0.0,0.0,0.0,0.0,0.0,0.0,0.0,0.0,0.0,0.0,0.0,0.0,0.0,0.0,0.0,0.0,0.0,0.0,0.0,0.0,0.0,0.0,0.0,0.0,0.0,0.0,0.0,0.0,0.0,0.0,0.0,0.0,-0.7912,-0.9192,0.0,0.0,0.0,0.0,0.0,0.0,0.0,0.0,0.0,0.0,0.0,0.0,0.0,0.0,0.0,0.0,0.0,0.0,0.0,0.0,0.0,0.0,0.0,0.0,0.0,0.0,0.0,0.0,0.0,0.0,0.0,0.0,0.0,0.0,0.0,0.0,0.0,0.0,0.0,0.0,0.0,0.0,0.0,0.0,0.0,0.0,0.0,0.0,0.0,0.0,0.0,0.0,0.0,0.0,0.0,0.0,0.0,0.0,0.0,0.0,0.0,0.0,0.0,0.0,0.0,0.0,0.0,0.0,0.0,0.0,0.0,0.0,0.0,0.0,0.0,0.0,0.0,0.0,0.0,0.0,0.0,0.0,0.0,0.0,0.0,0.0,0.0,0.0,0.0,0.0,0.0,0.0,0.0,0.0,0.0,0.0,0.0,0.0,0.0,0.0,0.0,0.0,0.0,0.0,0.0,0.0,0.0,0.0,0.1961,0.0125,-0.2537,-0.2938,-0.4585,-0.7101,-0.7665,-0.8392,-0.9357,-1.1198,0.0,0.0,0.0,0.0,0.0,0.0,0.0,0.0,0.0,0.0,0.0,0.0,0.0,0.0,0.0,0.0,0.0,0.0,0.0,0.0,0.0,0.0,0.0,0.0,0.0,0.0,0.0,0.0,0.0,0.0,0.0,0.0,0.0,0.0,0.0,0.0,0.0,0.0,1.6496,1.4289,1.1575,0.7964,-0.441,0.0,0.0,0.0,0.0,0.0,0.0,0.0,0.0,0.0,0.0,0.0,0.0,0.0,0.0,0.0,0.0,0.0,0.0,0.0,0.0,0.0,0.0,0.0,0.0,0.0,0.0,0.0,0.0,0.0,0.0,0.0,0.0,0.0,0.0,0.0,0.0,0.0,0.0,0.0,0.0,0.0,0.0,0.0,0.1069,-0.0509,0.0,0.0,0.0,0.0,0.0,0.0,0.0,0.0,0.0,0.0,0.0,0.0,0.0,0.6098,0.5557,0.5542,0.4569,0.2729,0.272,0.0868,-0.249,-0.2417,-0.3721,-0.6216,-0.6952,0.0,-1.0137,-1.0423,0.0,0.0,0.0,0.0,0.0,0.0,0.0,0.0,0.0,0.0,0.0,0.0,0.0,0.0,0.0,0.0,0.0,0.0,0.0,0.0,0.0,0.0,0.0,0.0,0.0,0.0,0.0,0.0,0.0,0.0,0.0,0.0,0.0,0.0,0.0,0.0,1.7951,1.7992,1.7696,1.562,1.1949,0.6704,-0.2408,-0.9012,-1.3656,-1.8765,0.0,0.0,0.0,0.0,0.0,0.0,0.0,0.0,0.0,0.0,0.0,0.0,0.0,0.0,0.0,0.0,0.0,0.0,0.0,0.0,0.0,0.0,0.0,0.0,0.0,0.0,0.0,0.0,0.0,0.0,0.0,0.0,0.0,0.0,0.0,0.0,0.0,0.0,0.0,0.4015,0.433,0.2847,0.3605,0.417,0.0,0.0,0.0,0.0,0.0,0.0,0.0,0.0,0.0,0.6073,0.608,0.6036,0.594,0.5759,0.5032,0.3709,0.3111,0.1179,-0.1725,-0.2079,-0.361,-0.6156,-0.6837,-0.7869,-0.9176,-1.012,-1.0972,-1.1662,0.0,0.0,0.0,0.0,-1.1054,-1.0979,0.0,0.0,0.0,0.0,0.0,0.0,0.0,0.0,0.0,0.0,0.0,0.0,0.0,0.0,0.0,1.253,0.0,0.0,0.0,0.0,0.0,0.0,0.0,0.0,0.0,0.0,0.0,0.0,2.0231,1.9339,1.7941,1.591,1.2,0.6351,-0.0091,-0.6002,-1.1531,-1.8086,-2.1861,0.0,0.0,0.0,0.0,0.0,0.0,0.0,0.0,0.0,0.0,0.0,0.0,0.0,0.0,0.0,0.0,0.0,0.0,0.0,0.0,0.0,0.0,0.0,0.0,0.0,0.0,0.0,0.0,0.0,0.0,0.0,0.0,0.0,0.0,0.0,0.0,0.0,0.0,0.7221,0.6642,0.4779,0.5481,0.569,0.0,0.0,0.0,0.0,0.0,0.0,0.7875,0.7616,0.7164,0.6346,0.6565,0.6544,0.6338,0.6243,0.5649,0.4488,0.3272,0.14,-0.107,-0.1858,-0.3709,-0.6303,-0.6786,-0.7511,-0.8478,-0.9981,-1.0794,-1.1068,-1.1272,-1.1255,-1.1031,-1.0539,-1.0369,-1.0523,0.0,0.0,0.0,0.0,0.0,0.0,0.0,0.0,0.0,0.0,0.0,0.0,0.0,0.0,1.2463,1.5416,0.8256,0.44,0.0,0.0,0.0,0.0,0.0,0.0,0.0,0.0,0.0,2.2363,2.0897,1.9597,1.8437,1.6408,1.3629,0.9993,0.1835,-0.6042,-1.3526,-1.7993,-2.1157,-2.3218,0.0,0.0,0.0,0.0,0.0,0.0,0.0,0.0,0.0,0.0,0.0,0.0,0.0,0.0,0.0,0.0,0.0,0.0,0.0,0.0,0.0,0.0,0.0,0.0,0.0,0.0,0.0,0.0,0.0,0.0,0.0,0.0,0.0,0.0,0.0,0.0,0.0,0.0,0.0,0.5252,0.6887,0.0,0.0,0.0,0.0,0.9308,0.9525,0.9765,1.0182,0.9547,0.8714,0.7744,0.8656,0.8219,0.6338,0.6895,0.6279,0.4488,0.3272,0.145,-0.0918,-0.1783,-0.3789,-0.6564,-0.6608,-0.7419,-0.8844,-0.9886,-1.0135,-0.997,-1.1068,-1.0846,-0.9933,-1.0356,-1.0477,-1.0539,0.0,0.0,0.0,0.0,0.0,0.0,0.0,0.0,0.0,0.0,0.0,0.0,0.0,1.514,1.5119,1.4655,1.044,0.8273,0.9439,0.0,0.0,0.0,0.0,0.0,0.0,0.0,2.265,2.1862,2.0906,1.9595,1.7945,1.6829,1.4775,1.1693,0.2648,-0.4068,-0.9097,-1.6177,-2.088,-2.3628,-2.3451,-2.3664,0.0,0.0,0.0,0.0,0.0,0.0,0.0,0.0,0.0,0.0,0.0,0.0,0.0,0.0,0.0,0.0,0.0,0.0,0.0,0.0,0.0,0.0,0.0,0.0,0.0,0.0,0.0,0.0,0.0,0.0,0.0,0.0,0.0,0.0,0.0,0.0,0.0,0.8579,0.908,0.0,0.6736,0.7985,0.9062,0.9435,1.0092,1.0645,1.0901,1.0513,0.9798,0.8761,0.8926,0.8328,0.7076,0.7078,0.6356,0.503,0.348,0.1962,0.0474,-0.138,-0.3039,-0.4553,-0.5982,-0.6912,-0.7515,-0.9256,-1.0098,-1.031,-1.0578,-1.0547,-1.0257,-1.0324,-1.0097,-0.9783,0.0,0.0,0.0,0.0,0.0,0.0,0.0,0.0,0.0,0.0,0.0,1.6655,1.7225,1.7534,1.6985,1.5143,1.2917,1.1532,1.1399,0.0,0.0,0.0,0.0,0.0,0.0,2.2972,2.2634,2.1807,2.0807,1.9513,1.8004,1.7114,1.5674,1.3435,0.4866,-0.1375,-0.6109,-1.538,-2.102,-2.378,-2.3996,-2.4085,-2.4048,0.0,0.0,0.0,0.0,0.0,0.0,0.0,0.0,0.0,0.0,0.0,0.0,0.0,0.0,0.0,0.0,0.0,0.0,0.0,0.0,0.0,0.0,0.0,0.0,0.0,0.0,0.0,0.0,0.0,0.0,0.0,0.0,0.0,0.0,1.0767,1.131,1.0487,1.0793,1.0285,0.8332,0.905,0.9781,1.0013,1.0772,1.1354,1.1735,1.155,1.0917,0.9702,0.9761,0.9052,0.7398,0.7372,0.6713,0.5359,0.3542,0.2233,0.1222,-0.113,-0.2892,-0.4155,-0.5864,-0.6858,-0.745,-0.8883,-0.964,-0.9936,-0.9814,-0.9707,-0.9491,-0.9153,-0.8895,-0.8893,0.0,0.0,0.0,0.0,0.0,0.0,0.0,0.0,0.0,0.0,1.7591,1.8307,1.9801,1.8866,1.7868,1.7187,1.5408,1.3682,1.2222,1.4275,0.0,0.0,0.0,0.0,2.3241,2.2902,2.2603,2.2364,2.0646,1.9343,1.8556,1.735,1.6355,1.53,0.8536,0.1836,-0.5042,-1.5617,-2.1369,-2.3512,-2.4772,-2.5103,-2.474,0.0,0.0,0.0,0.0,0.0,0.0,0.0,0.0,0.0,0.0,0.0,0.0,0.0,0.0,0.0,0.0,0.0,0.0,0.0,0.0,0.0,0.0,0.0,0.0,0.0,0.0,0.0,0.0,0.0,0.0,0.0,0.0,0.0,1.1329,1.2305,1.2569,1.0725,1.1757,1.177,0.9617,0.973,1.0338,1.1152,1.1338,1.1836,1.2746,1.2795,1.2065,1.0479,1.1339,1.0337,0.7141,0.7903,0.7359,0.5345,0.3595,0.223,0.1222,-0.1072,-0.3379,-0.5496,-0.6244,-0.7396,-0.8752,-0.8804,-0.8804,-0.8804,-0.8751,-0.833,-0.7664,-0.6912,-0.7128,-0.8037,0.0,0.0,0.0,0.0,0.0,0.0,0.0,0.0,0.0,0.0,1.8329,1.925,1.9139,1.8907,1.8042,1.6334,1.4866,1.4293,1.4922,0.0,0.0,0.0,0.0,0.0,2.2647,2.2642,2.2288,2.1608,2.0031,1.8841,1.7924,1.6796,1.6031,1.533,0.867,0.3129,-0.186,-1.145,-1.7772,-2.1584,-2.3979,-2.4888,-2.4766,0.0,0.0,0.0,0.0,0.0,0.0,0.0,0.0,0.0,0.0,0.0,0.0,0.0,0.0,0.0,0.0,0.0,0.0,0.0,0.0,0.0,0.0,0.0,0.0,0.0,0.0,0.0,0.0,0.0,0.0,0.0,1.4461,1.4832,1.365,1.3452,1.34,1.312,1.3444,1.3067,1.133,1.1305,1.1409,1.1408,1.1268,1.1479,1.2364,1.2225,1.1859,1.1127,1.0579,0.9548,0.804,0.7288,0.6324,0.504,0.3876,0.2859,0.1863,-0.039,-0.2323,-0.4027,-0.5801,-0.7128,-0.8049,-0.8593,-0.8804,-0.8804,-0.8791,-0.8685,-0.8487,-0.8262,-0.862,-0.9392,0.0,0.0,0.0,0.0,0.0,0.0,0.0,0.0,0.0,0.0,1.8724,1.9506,1.9161,1.8785,1.8034,1.6679,1.5886,1.5908,1.6904,0.0,0.0,0.0,0.0,2.3279,2.3078,2.2431,2.1698,2.0909,1.9302,1.8046,1.7131,1.5989,1.5263,1.4732,1.0411,0.5614,0.0232,-0.8271,-1.5529,-2.1443,-2.2994,-2.4101,-2.4767,-2.4454,-2.3653,-2.2488,-2.095,-1.9386,-1.7747,-1.5754,0.0,0.0,0.0,0.0,0.0,0.0,0.0,0.0,0.0,0.0,0.0,0.0,0.0,0.0,0.0,0.0,0.0,0.0,0.0,0.0,0.0,0.0,0.0,0.0,1.6669,1.6764,1.6086,1.5178,1.4531,1.4713,1.4212,1.3678,1.3185,1.2574,1.211,1.1725,1.1476,1.1575,1.1872,1.177,1.1543,1.1249,1.0164,0.9105,0.8138,0.6912,0.5632,0.4339,0.3549,0.2649,0.1673,-0.0556,-0.2216,-0.3429,-0.5638,-0.6858,-0.7343,-0.8368,-0.8646,-0.8315,0.0,0.0,0.0,0.0,-0.8922,-0.9879,0.0,0.0,0.0,0.0,0.0,0.0,0.0,0.0,0.0,0.0,0.0,1.9188,1.9199,1.8393,1.7651,1.7206,1.7271,1.7644,0.0,0.0,0.0,2.3206,2.3221,2.3356,2.3715,2.2216,2.1056,2.0351,1.8548,1.7239,1.6413,1.5048,1.4208,1.3778,1.263,0.8345,0.1552,-0.5572,-1.3433,-2.1197,-2.1422,-2.2803,-2.4708,-2.4505,-2.3649,-2.2394,-2.0563,-1.9128,-1.7804,-1.6078,0.0,0.0,0.0,0.0,0.0,0.0,0.0,0.0,0.0,0.0,0.0,0.0,0.0,0.0,0.0,0.0,0.0,0.0,0.0,0.0,0.0,0.0,0.0,0.0,1.9482,1.8859,1.865,1.7276,1.618,1.5755,1.4621,1.4177,1.4849,1.3801,1.2865,1.226,1.2077,1.1857,1.1519,1.1369,0.0,0.0,0.0,0.8828,0.7644,0.6648,0.5336,0.3693,0.298,0.2126,0.1174,-0.1059,-0.25,-0.3429,-0.5529,-0.6534,-0.6696,-0.7996,-0.8209,-0.7729,-0.7783,-0.7836,-0.7836,-0.7836,-0.8685,-0.99,0.0,0.0,0.0,0.0,0.0,0.0,0.0,0.0,0.0,1.6555,1.7695,1.81,1.7041,1.674,1.6044,1.4671,1.5396,1.6828,0.0,0.0,2.273,2.2809,2.3517,2.3288,2.2016,2.1601,2.0998,2.0149,1.8346,1.721,1.6771,1.4758,1.345,1.2693,1.1897,0.8288,0.2507,-0.1658,-0.7562,-1.4318,-1.7334,-2.0931,-2.449,-2.4523,-2.4298,-2.3751,-2.221,-2.0406,-1.8224,-1.5251,-1.3053,-1.0688,-0.5845,0.0,0.0,0.0,0.0,0.0,0.0,0.0,0.0,0.0,0.0,0.0,0.0,0.0,0.0,0.0,0.0,0.0,0.0,0.0,0.0,2.124,2.1958,2.202,2.0716,2.0272,1.9052,1.6305,1.5684,1.551,1.546,1.5216,1.4751,1.4055,1.3384,1.2716,1.2065,1.1459,1.0835,1.0301,0.9408,0.8443,0.741,0.6379,0.5405,0.4455,0.3648,0.0,0.1896,-0.0278,-0.205,-0.3374,-0.5031,-0.6036,-0.6642,-0.6912,-0.7289,-0.7771,-0.8368,-0.8593,-0.8593,-0.8593,-0.9444,-1.0594,0.0,0.0,0.0,0.0,0.0,0.0,0.0,0.0,0.0,0.0,1.7311,1.7445,1.6197,1.5407,1.4625,1.3634,1.5397,0.0,0.0,2.1681,2.2734,2.2694,2.2647,2.223,2.1383,2.0792,2.0037,1.915,1.8069,1.7126,1.6305,1.4862,1.3809,1.3069,1.2044,0.9498,0.5692,0.1923,-0.3602,-1.0021,-1.3297,-1.6907,-2.0608,-2.301,-2.408,-2.4157,-2.341,-2.2203,-2.0163,-1.5022,-1.1874,-0.9028,-0.2222,0.1581,0.3848,0.0,0.0,0.0,0.0,0.0,0.0,0.0,0.0,0.0,0.0,0.0,0.0,0.0,0.0,2.2617,2.3144,0.0,2.3462,2.3857,2.3815,2.3372,2.2268,2.1909,2.0646,1.7824,1.685,1.6439,1.6375,1.5585,1.4854,1.4328,1.3715,1.3134,1.2602,1.1681,1.1015,1.0703,0.9263,0.8247,0.7775,0.6746,0.5626,0.4558,0.4089,0.3113,0.1618,0.0111,-0.1331,-0.2832,-0.432,-0.5156,-0.5555,-0.5928,-0.647,-0.7235,-0.7943,-0.8487,-0.8804,-0.8804,-0.9666,-1.0813,0.0,0.0,0.0,0.0,0.0,0.0,0.0,0.0,0.0,0.0,1.6693,1.644,1.5445,1.411,1.3402,0.0,0.0,0.0,0.0,2.2049,2.2734,2.2634,2.1765,2.112,2.0868,1.9934,1.9032,1.823,1.7774,1.6931,1.5688,1.4903,1.4116,1.3351,1.2168,1.0552,0.8508,0.4665,-0.0466,-0.6266,-0.912,-1.2212,-1.5554,-1.9784,-2.2122,-2.3106,-2.2899,-2.2358,-2.0618,-1.3273,-0.9678,-0.6832,0.1435,0.6091,0.8616,0.9432,1.1654,0.0,0.0,0.0,0.0,0.0,0.0,0.0,0.0,2.4637,2.5224,2.6129,2.5962,2.5983,2.7197,2.6602,2.6142,2.6726,2.5769,2.4641,2.386,2.3642,2.2669,2.0368,1.8765,1.7815,1.7694,1.6392,1.5283,1.4716,1.4196,1.3684,1.3268,1.2234,1.1539,1.1417,0.9653,0.8577,0.83,0.7334,0.6081,0.4594,0.4477,0.3324,0.1285,0.039,-0.0723,-0.2063,-0.355,-0.4333,-0.4574,-0.5218,-0.5928,-0.6696,-0.7396,-0.8156,-0.8804,-0.8804,-0.9666,-1.0813,0.0,0.0,0.0,0.0,0.0,0.0,0.0,0.0,0.0,0.0,0.0,0.0,0.0,0.0,0.0,0.0,0.0,0.0,2.2368,2.3171,2.3165,2.2479,2.2023,2.1114,1.9626,1.9118,1.8692,1.8289,1.7414,1.6469,1.5443,1.4374,1.322,1.1895,1.1319,1.0,0.8043,0.5604,0.2409,-0.13,-0.4626,-0.7941,-1.1149,-1.3651,-1.6601,-1.93,-1.8581,-1.7734,-1.5687,-0.7315,-0.3893,-0.157,0.7467,1.1677,1.3192,1.2608,0.0,1.6431,1.3989,1.642,2.0751,2.4875,2.5693,2.6616,0.0,3.0917,2.9957,3.0514,3.0997,3.1251,3.083,3.0039,2.928,2.8791,2.8499,2.7703,2.5938,2.701,2.7004,2.4465,2.2405,2.0745,1.9591,1.925,1.8507,1.6939,1.6136,1.5242,1.4112,1.3262,1.2527,1.1857,1.1046,0.9937,0.8633,0.7931,0.6848,0.5374,0.4703,0.3605,0.2007,0.0612,-0.0446,-0.1285,-0.2785,-0.3843,-0.4574,-0.5218,-0.5928,-0.6696,-0.7396,-0.8156,-0.8804,-0.8804,-0.9666,-1.0813,0.0,0.0,0.0,0.0,0.0,0.0,0.0,0.0,0.0,0.0,0.0,0.0,0.0,0.0,0.0,0.0,0.0,0.0,2.109,2.2246,2.2453,2.1639,2.1388,2.0841,1.9893,1.9549,1.9178,1.8785,1.7953,1.7219,1.6571,1.4977,1.3906,1.3298,1.1573,0.9962,0.8445,0.7156,0.434,0.0533,-0.2634,-0.5117,-0.7143,-0.9673,-1.1947,-1.4044,-1.6398,-1.7251,0.0,0.0,0.1139,0.6118,1.3631,1.7133,1.8305,1.7791,1.8969,0.0,2.0207,2.1784,2.4075,2.6566,2.8379,3.015,3.2302,3.2067,3.1868,3.3727,3.3637,3.3273,3.3466,3.3225,3.2577,3.1279,3.0842,2.998,2.8092,2.8774,2.8662,2.643,2.6382,2.5344,2.2347,2.1131,2.0098,1.9044,1.7679,1.656,1.5786,1.4818,1.3808,1.2803,1.1869,1.0729,0.9325,0.9079,0.796,0.6145,0.581,0.4429,0.2174,0.156,0.039,-0.1174,-0.2674,-0.3511,-0.3898,-0.5046,-0.571,-0.6091,-0.7235,-0.8143,-0.8817,-0.9249,-0.9961,-1.0864,0.0,0.0,0.0,0.0,0.0,0.0,0.0,0.0,0.0,0.0,0.0,0.0,0.0,0.0,0.0,0.0,0.0,0.0,0.0,2.1708,2.1975,2.1164,2.096,2.0558,1.9907,1.9662,1.9263,1.8665,1.8099,1.7533,1.6934,1.53,1.4423,1.4117,1.1798,1.0159,0.9096,0.8012,0.5721,0.2654,-0.044,-0.2815,-0.4718,-0.6691,-0.8106,-0.9475,-1.3508,-1.5015,0.0,0.0,0.5012,1.094,1.793,2.1155,2.2147,2.1449,2.1543,2.2214,2.3952,2.505,2.6069,2.771,3.0336,3.2606,3.3045,3.3118,3.3744,3.5884,3.5657,3.5243,3.5838,3.5732,3.4934,3.3182,3.2307,3.1172,2.9181,2.958,2.944,2.7888,2.9293,2.909,2.5856,2.3491,2.1826,2.0886,1.9173,1.7871,1.7103,1.6151,1.5058,1.3721,1.2688,1.1486,1.0064,0.9909,0.8698,0.6588,0.6588,0.5039,0.2174,0.1785,0.0614,-0.1174,-0.2452,-0.3229,-0.3727,-0.521,-0.6027,-0.6504,-0.7812,-0.8698,-0.9363,-1.01,-1.0661,-1.1166,0.0,0.0,0.0,0.0,0.0,0.0,0.0,0.0,0.0,0.0,0.0,0.0,0.0,0.0,0.0,0.0,0.0,0.0,0.0,2.2401,2.2235,2.1399,2.1122,2.0418,1.9143,1.8933,1.8436,1.753,1.753,1.6832,1.5559,1.4892,1.4117,1.32,1.1605,1.06,1.0011,0.7629,0.6588,0.6164,0.2709,-0.1015,-0.4487,-0.4615,-0.5194,-0.636,-0.8903,0.0,0.0,0.287,0.7371,1.0719,1.9291,2.3069,0.0,2.227,2.0906,2.0462,2.2649,2.4176,2.5933,2.9188,3.1373,3.3065,3.4648,3.5669,3.6374,3.6717,3.7424,3.7973,3.801,3.7216,3.5925,3.397,3.2701,3.1093,2.8504,2.9317,2.9887,2.9066,3.0317,3.0942,3.0178,2.6985,2.4259,2.2568,2.0677,1.9103,1.7831,1.711,1.6011,1.4432,1.3701,1.2531,1.0762,1.0115,0.8698,0.6588,0.6588,0.5039,0.2174,0.0727,-0.0336,-0.1118,-0.1896,-0.3058,-0.4477,-0.5973,-0.7374,-0.8685,-0.9429,-1.0167,-1.0813,-1.1516,-1.1765,-1.1765,0.0,0.0,0.0,0.0,0.0,0.0,0.0,0.0,0.0,0.0,0.0,0.0,0.0,0.0,0.0,0.0,0.0,0.0,0.0,2.0607,2.0733,2.0099,2.0353,1.9971,1.8929,1.8852,1.8496,1.7908,1.7533,1.6915,1.6074,1.4862,1.4041,1.3512,1.1396,0.9978,0.9061,0.7329,0.6082,0.4969,0.2527,-0.0409,-0.3315,-0.3435,-0.3697,-0.4225,0.0,0.0,0.0,0.1114,0.8856,1.5808,1.9941,2.2356,2.3628,2.336,2.327,2.374,2.5777,2.7566,2.9489,3.2049,3.3488,3.4572,3.5666,3.6202,3.6597,3.6994,3.6459,3.5894,3.5829,3.5784,3.5089,3.3069,3.2932,3.196,2.8817,2.8918,2.8632,2.6716,2.8415,2.9237,2.7961,2.7513,2.6673,2.5138,2.2941,2.1086,1.9766,1.8362,1.6802,1.5169,1.444,1.3003,1.0813,1.0559,0.9155,0.6588,0.4601,0.3169,0.2119,0.0167,-0.0838,-0.1174,-0.2888,-0.3929,-0.4532,-0.6514,-0.7853,-0.879,-0.9496,-1.0458,-1.1516,-1.1715,-1.2129,-1.2559,0.0,0.0,0.0,0.0,0.0,0.0,0.0,0.0,0.0,0.0,0.0,0.0,0.0,0.0,0.0,0.0,0.0,0.0,0.0,0.0,1.9212,1.8855,1.9146,1.8885,1.7954,1.7915,1.7638,1.7192,1.6675,1.6142,1.5541,1.4358,1.3611,1.3135,1.1396,1.0084,0.9138,0.7677,0.5783,0.3513,0.1692,-0.0768,-0.3311,-0.3561,-0.3828,0.0,0.0,0.0,0.0,0.1659,0.941,1.7238,1.9783,2.1928,2.3671,2.427,2.4896,2.5818,2.7819,2.9431,3.107,3.3327,3.4178,3.4723,3.5709,3.6195,3.6631,3.7049,3.6027,3.5047,3.4955,3.4883,3.4007,3.1501,3.1458,3.0644,2.7512,2.6969,2.6408,2.5183,2.6581,2.7349,2.6629,2.6783,2.6501,2.5521,2.351,2.1627,1.9961,1.8109,1.6417,1.4942,1.4145,1.2654,1.0348,1.0295,0.8816,0.5916,0.3123,0.1671,0.1337,-0.0613,-0.1506,-0.1618,-0.355,-0.4532,-0.4961,-0.7149,-0.8593,-0.9518,-1.0254,-1.1216,-1.2227,-1.2453,-1.2812,-1.319,0.0,0.0,0.0,0.0,0.0,0.0,0.0,0.0,0.0,0.0,0.0,0.0,0.0,0.0,0.0,0.0,0.0,0.0,0.0,0.0,0.0,1.7593,1.7632,1.7183,1.6143,1.6101,1.5868,1.5348,1.4967,1.4473,1.392,1.334,1.2679,1.2008,1.1361,1.0709,0.9952,0.834,0.5475,0.1971,0.0467,-0.1814,-0.4449,-0.4805,0.0,0.0,0.0,0.0,0.0,0.4473,0.9402,1.5504,1.9252,2.2136,2.4321,2.516,2.5809,2.6718,2.8612,2.9652,3.077,3.3066,3.3538,3.3733,3.4952,3.5868,3.6547,3.6744,3.6082,3.5349,3.502,3.4379,3.2827,2.9482,2.8723,2.7644,2.5052,2.3839,2.3623,2.4486,2.4851,2.5344,2.6073,2.4935,2.3968,2.3635,2.2299,2.0629,1.8555,1.6602,1.4968,1.38,1.2896,1.1383,0.9298,0.9169,0.7565,0.4609,0.2204,0.0669,-0.0056,-0.1618,-0.2345,-0.2397,-0.3935,-0.4969,-0.5766,-0.787,-0.957,-1.0864,-1.1566,-1.2276,-1.3017,-1.3647,-1.3862,-1.3768,0.0,0.0,0.0,0.0,0.0,0.0,0.0,0.0,0.0,0.0,0.0,0.0,0.0,0.0,0.0,0.0,0.0,0.0,0.0,0.0,0.0,0.0,0.0,0.0,0.0,0.0,0.0,0.0,0.0,1.2696,1.1584,1.1384,1.0728,0.9562,0.8857,0.8325,0.7858,0.5512,0.2967,0.0468,0.0,-0.2761,-0.4957,0.0,0.0,0.0,0.0,0.0,0.0,0.5288,1.2296,2.1193,2.3116,2.4955,2.6446,2.6692,2.7731,2.8895,2.9394,3.0557,3.1954,3.3393,3.3777,3.4068,3.5166,3.6031,3.6087,3.4459,3.359,3.2511,3.0521,3.1487,3.1888,2.9833,3.0293,2.9894,2.7031,2.5354,2.3724,2.1818,2.2015,2.2067,2.1345,2.1445,2.0596,1.8469,1.934,1.9854,1.9541,1.6055,1.374,1.3064,1.0829,0.9005,0.7631,0.5802,0.4449,0.3615,0.1258,0.0059,-0.0115,-0.2817,-0.3975,-0.3929,-0.5955,-0.6945,-0.7267,-0.8856,-1.0049,-1.0914,-1.2092,-1.2986,-1.3647,-1.4236,-1.4468,-1.4468,0.0,0.0,0.0,0.0,0.0,0.0,0.0,0.0,0.0,0.0,0.0,0.0,0.0,0.0,0.0,0.0,0.0,0.0,0.0,0.0,0.0,0.0,0.0,0.0,0.0,0.0,0.0,0.0,0.0,0.0,0.0,0.953,0.915,0.8359,0.8371,0.8215,0.7756,0.4416,0.0,0.0,0.0,0.0,0.0,0.0,0.0,0.0,0.0,0.0,0.0,1.4251,1.8743,2.4554,2.6147,2.6983,2.7421,2.7744,2.873,2.979,3.013,3.0993,3.1989,3.2978,3.3119,3.313,3.3782,3.427,3.4139,3.2556,3.161,3.0651,2.9153,3.0384,3.0813,2.8543,2.894,2.8641,2.5975,2.363,2.1765,2.0411,2.0108,1.9732,1.9224,1.8993,1.8189,1.6653,1.7494,1.7687,1.6573,1.3623,1.1668,1.084,0.8954,0.6967,0.5036,0.2763,0.1283,0.0565,-0.1106,-0.217,-0.2897,-0.4847,-0.5693,-0.5648,-0.7106,-0.7877,-0.8224,-0.9636,-1.0813,-1.1796,-1.2822,-1.3606,-1.4283,-1.488,-1.5107,-1.5197,0.0,0.0,0.0,0.0,0.0,0.0,0.0,0.0,0.0,0.0,0.0,0.0,0.0,0.0,0.0,0.0,0.0,0.0,0.0,0.0,0.0,0.0,0.0,0.0,0.0,0.0,0.0,0.0,0.0,0.0,0.0,0.0,0.0,0.0,0.0,0.0,0.0,0.0,0.0,0.0,0.0,0.0,0.0,0.0,0.0,0.0,0.0,0.0,0.0,0.0,2.614,2.6732,2.8558,2.8587,2.8058,2.8616,2.9276,2.9964,3.0633,3.0994,3.1401,3.2203,3.2148,3.1873,3.1778,3.1771,3.1504,3.0703,2.9763,2.9064,2.8925,2.9696,2.9523,2.6985,2.6637,2.6125,2.4261,2.1383,1.9641,1.9965,1.8746,1.7969,1.8166,1.6862,1.588,1.57,1.5517,1.4451,1.233,1.0539,0.8969,0.7466,0.6566,0.4719,0.1725,-0.0069,-0.1741,-0.3309,-0.4153,-0.5261,-0.6566,-0.7291,-0.7586,-0.7566,-0.8118,-0.8567,-0.9089,-1.0578,-1.1864,-1.2997,-1.3926,-1.4625,-1.5246,-1.5969,-1.6142,-1.62,0.0,0.0,0.0,0.0,0.0,0.0,0.0,0.0,0.0,0.0,0.3573,0.7209,0.0,0.0,0.0,0.0,0.0,0.0,0.0,0.0,0.0,0.0,0.0,0.0,0.0,0.0,0.0,0.0,0.0,0.0,0.0,0.0,0.0,0.0,0.0,0.0,0.0,0.0,0.0,0.0,0.0,0.0,0.0,0.0,0.0,0.0,0.0,0.0,0.0,0.0,2.8851,2.963,3.0208,3.0141,2.9873,3.0085,3.023,3.0392,3.0445,3.051,3.0765,3.161,3.2199,3.2297,3.1284,3.0752,2.988,2.788,2.6929,2.6307,2.5749,2.6737,2.7829,2.8338,2.7639,2.7155,2.7553,2.4511,2.1795,2.0229,1.778,1.5792,1.4823,1.3564,1.1809,0.9672,0.9357,1.0145,1.1966,0.8846,0.5693,0.289,0.1799,0.0152,-0.2151,-0.3304,-0.4359,-0.5245,-0.6788,-0.7496,-0.7461,-0.961,-1.0279,-0.9901,-1.1068,-1.1147,-1.0594,-1.2445,-1.329,-1.3681,-1.5916,-1.7078,-1.7731,-1.8888,-1.8983,-1.8521,0.0,0.0,0.0,0.0,0.0,0.0,0.0,-0.7713,-0.791,-0.7869,-0.5043,-0.0993,0.4174,0.5447,0.0,0.0,0.0,0.0,0.0,0.0,0.0,0.0,0.0,0.0,0.0,0.0,0.611,0.5508,0.0,0.0,0.0,0.355,0.2607,0.0,0.0,0.0,0.0,0.0,0.0,0.0,0.0,0.0,0.0,0.0,0.0,0.0,0.0,0.0,0.0,0.0,2.8606,2.9897,3.1365,3.1175,3.0364,3.0486,3.0484,3.0459,3.0463,3.0447,3.0597,3.1301,3.0706,2.9343,2.7059,2.5875,2.4679,2.2626,2.2918,2.3801,2.4818,2.5849,2.6654,2.7087,2.6442,2.5768,2.5239,2.2328,1.9777,1.8297,1.5673,1.3489,1.2071,1.1382,0.9846,0.718,0.6155,0.6289,0.7689,0.5401,0.332,0.1735,-0.0483,-0.235,-0.3886,-0.5339,-0.7049,-0.888,-0.982,-1.0635,-1.1341,-1.2564,-1.28,-1.2255,-1.2735,-1.2707,-1.2396,-1.3642,-1.4669,-1.5752,-1.7219,-1.8385,-1.9271,-1.9899,-1.9878,-1.967,0.0,0.0,0.0,0.0,0.0,0.0,0.0,-0.9307,-1.1143,-1.2173,-1.1955,-0.9295,-0.3008,-0.0363,0.1756,0.0,0.0,0.0,0.0,0.0,0.0,0.0,0.0,0.0,0.0,0.0,0.0,0.3516,0.3732,0.0,0.0,0.0,0.0,0.0,-0.1437,-0.2103,0.0,0.0,0.0,0.0,0.0,-0.5006,0.0,0.0,0.0,0.0,0.0,0.0,0.0,0.0,2.7006,2.8499,3.0994,3.1047,3.0174,3.0195,3.025,3.0438,3.0697,3.0723,3.084,3.134,2.9312,2.6279,2.2771,2.0764,1.9194,1.7572,1.8843,2.1021,2.3623,2.4462,2.4784,2.4848,2.4143,2.3218,2.1959,1.9222,1.694,1.5783,1.3162,1.0905,0.9462,0.8794,0.751,0.5327,0.3442,0.2518,0.2603,0.1556,0.0959,0.0671,-0.2036,-0.4038,-0.5143,-0.708,-0.9443,-1.2137,-1.2699,-1.3763,-1.5286,-1.5608,-1.5421,-1.4759,-1.4558,-1.4382,-1.428,-1.4857,-1.6054,-1.7624,-1.8452,-1.9443,-2.0469,-2.0755,-2.0854,-2.0869,0.0,0.0,0.0,0.0,0.0,0.0,0.0,-0.8436,-1.0205,-1.1533,-1.2905,-1.3693,-1.3478,-0.9361,-0.4158,0.0,0.0,0.0,0.0,0.0,0.0,0.0,0.0,0.0,0.0,0.0,0.0,0.0388,0.0445,0.0,0.0,0.0,0.0,0.0,0.0,-0.6327,-0.69,0.0,0.0,0.0,0.0,0.0,0.0,0.0,0.0,0.0,0.0,0.0,1.7495,0.0,2.4672,2.5444,2.7469,2.8736,2.9433,2.9213,2.9692,3.0502,3.1426,3.1663,3.1742,3.1994,2.929,2.5443,2.1116,1.7989,1.5725,1.4787,1.5549,1.7269,2.016,2.0551,2.0949,2.2432,2.0797,1.9735,2.0749,1.7988,1.5208,1.3362,1.0584,0.8136,0.6516,0.414,0.2673,0.2371,0.0,-0.1469,-0.148,-0.1503,-0.1882,-0.2849,-0.401,-0.5325,-0.7024,-0.8907,-1.0994,-1.3172,-1.5205,-1.6517,-1.7181,-1.8432,-1.8431,-1.7517,-1.7557,-1.6999,-1.6124,-1.6794,-1.7408,-1.8147,-1.9922,-2.1026,-2.17,-2.2848,-2.3271,-2.3212,0.0,0.0,0.0,0.0,0.0,0.0,-0.6026,-0.8224,-1.0849,-1.3794,-1.6449,-1.8208,-1.848,-1.6965,-1.1927,0.0,0.0,0.0,0.0,0.0,0.0,0.0,0.0,0.0,0.0,0.0,0.011,-0.1692,-0.4056,0.0,0.0,0.0,0.0,0.0,0.0,-0.8875,-0.8684,-0.7887,0.0,0.0,0.0,0.0,0.0,0.0,0.0,0.0,0.0,0.0,1.5492,2.0287,2.2438,2.3298,2.4261,2.5425,0.0,2.8636,3.004,3.1207,3.2139,3.3228,3.3735,3.2232,2.7852,2.2474,1.691,1.285,0.9952,0.9056,1.0821,1.3591,1.7286,1.7594,1.7644,1.8629,1.7588,1.6635,1.6597,1.4656,1.251,1.0377,0.8322,0.5878,0.2679,0.1478,-0.0414,-0.3739,-0.5698,-0.7052,-0.775,-0.5461,-0.4586,-0.5866,-0.6445,-0.7467,-0.8761,-1.0495,-1.2515,-1.4672,-1.6331,-1.7836,-1.9186,-1.988,-2.0065,-1.9698,-1.9748,-1.9094,-1.8067,-1.9068,-1.9598,-1.9905,-2.141,-2.2596,-2.3496,-2.403,-2.4714,-2.5295,0.0,0.0,0.0,0.0,0.0,-0.3638,-0.4908,-0.7804,-1.1281,-1.532,-1.8838,-2.1217,-2.1847,-2.1358,-1.7212,-0.7759,0.0,0.0,0.0,0.0,0.0,0.0,0.0,0.0,0.0,0.0,-0.3548,-0.5466,-0.8922,-1.1064,0.0,0.0,-1.2882,-1.3679,0.0,0.0,0.0,0.0,0.0,0.0,0.0,0.0,0.0,0.0,0.0,0.0,0.0,0.0,0.0,0.0,0.0,0.0,0.0,0.0,0.0,0.0,2.9351,3.1331,3.2375,3.4219,3.4768,3.0393,2.498,1.8741,1.111,0.6681,0.418,0.3989,0.6602,1.0034,1.3861,1.4792,1.4968,1.508,1.4803,1.41,1.2917,1.1486,0.9616,0.7431,0.5702,0.3302,-0.0326,-0.1282,-0.3632,-0.8209,-0.9722,-1.1202,-1.2825,-1.0398,-0.8966,-0.8949,-0.9433,-1.0218,-1.1142,-1.2405,-1.4112,-1.6262,-1.7388,-1.893,-2.0707,-2.1112,-2.1349,-2.1422,-2.1254,-2.0778,-2.0216,-2.0912,-2.137,-2.181,-2.2861,-2.3819,-2.4657,-2.5017,-2.5877,-2.6803,0.0,0.0,0.0,0.0,0.0,0.0,-0.2966,-0.697,-1.1142,-1.5202,-1.9143,-2.2254,-2.4069,-2.1784,-1.879,-1.5459,0.0,0.0,0.0,0.0,0.0,0.0,0.0,0.0,0.0,0.0,-0.753,-1.1718,-1.3914,-1.5238,-1.5532,-1.5067,-1.5482,-1.6616,0.0,0.0,0.0,0.0,0.0,0.0,0.0,0.0,0.0,0.0,0.0,0.0,0.0,0.0,0.0,0.0,0.0,0.0,0.0,0.0,0.0,0.0,2.7039,3.0527,3.1943,3.4294,3.4345,2.5738,2.0426,1.4502,0.3613,-0.0318,-0.1204,0.0237,0.3348,0.6664,0.9479,1.1833,1.312,1.2294,1.2603,1.2338,1.0592,0.891,0.6989,0.4537,0.2224,0.0,-0.196,-0.4592,-0.7159,-0.9821,-1.1066,-1.2947,-1.5523,-1.6493,-1.5613,-1.2529,-1.3013,-1.3725,-1.4408,-1.488,-1.5986,-1.7676,-1.8649,-2.0,-2.1738,-2.2297,-2.2608,-2.2665,-2.212,-2.2206,-2.2637,-2.2091,-2.2555,-2.367,-2.4328,-2.4582,-2.4732,-2.601,-2.6914,-2.747,0.0,0.0,0.0,0.0,0.0,0.0,0.0,-1.1753,-1.5235,-1.7765,-2.0422,-2.2547,-2.3764,-2.2872,-2.1861,-2.0974,0.0,0.0,0.0,0.0,0.0,0.0,0.0,0.0,0.0,0.0,0.0,-1.3652,-1.5461,-1.7019,-1.8208,-1.8602,-1.9246,-2.001,-1.9797,-1.9336,0.0,0.0,0.0,0.0,0.0,0.0,0.0,0.0,0.0,0.0,0.0,0.0,0.0,0.0,0.0,0.0,0.0,0.0,0.0,0.0,0.0,3.1202,3.1367,3.2176,3.1264,2.4101,1.7678,1.0895,0.2673,-0.159,-0.3584,-0.262,-0.0528,0.2095,0.5396,0.7389,0.8654,0.9143,0.9468,0.9275,0.7979,0.5925,0.3586,0.1157,-0.3149,-0.6458,-0.7644,-1.0294,-1.2455,-1.3753,-1.5132,-1.6556,-1.8164,-1.91,-1.8737,-1.709,-1.6766,-1.6943,-1.7544,-1.8174,-1.8834,-1.9566,-2.0572,-2.1436,-2.2297,-2.2517,-2.2847,-2.3319,-2.3155,-2.3157,-2.3421,-2.3658,-2.3997,-2.44,-2.5057,-2.5585,-2.6099,-2.6872,-2.787,-2.8844,0.0,0.0,0.0,0.0,0.0,0.0,0.0,-1.4212,-1.7098,-1.9096,-2.1365,-2.3007,-2.3657,-2.3964,-2.3985,-2.3529,0.0,0.0,0.0,0.0,0.0,0.0,0.0,0.0,0.0,-1.1149,-1.3105,-1.577,-1.7469,-1.9284,-2.1247,-2.1903,-2.2475,-2.2884,-2.3063,-2.2718,0.0,0.0,0.0,0.0,0.0,0.0,-1.4523,0.0,0.0,0.0,0.0,0.0,0.0,0.0,0.0,0.0,0.0,0.0,0.0,0.0,1.817,2.4704,0.0,2.6783,2.5665,1.8324,1.2701,0.6967,-0.0943,-0.4645,-0.622,-0.5488,-0.4141,-0.2202,0.0364,0.2144,0.3475,0.4173,0.5106,0.5377,0.4082,0.2548,0.02,-0.3487,-0.746,-1.0566,-1.2045,-1.3971,-1.563,-1.6564,-1.8149,-1.9405,-2.0116,-2.1255,-2.1655,-2.0948,-2.0476,-2.0472,-2.1013,-2.122,-2.151,-2.1812,-2.1863,-2.2247,-2.2877,-2.2967,-2.3328,-2.3968,-2.4223,-2.4371,0.0,-2.4802,-2.4993,-2.5081,-2.5444,-2.6146,-2.7052,-2.7921,-2.9048,-3.0238,0.0,0.0,0.0,0.0,0.0,0.0,0.0,0.0,-1.7497,-1.9763,-2.2085,-2.365,-2.3884,-2.4954,-2.5096,-2.3723,0.0,0.0,0.0,0.0,0.0,0.0,0.0,0.0,0.0,-1.3499,-1.5147,-1.7959,-1.9645,-2.1755,-2.4222,-2.4701,-2.4991,-2.5227,-2.5561,-2.5305,0.0,0.0,0.0,0.0,0.0,0.0,0.0,0.0,0.0,0.0,0.0,0.0,0.0,0.0,0.0,0.0,0.0,0.0,0.0,0.0,0.0,0.0,0.0,1.8373,1.7987,0.952,0.6231,0.2695,-0.6327,0.0,0.0,-0.8236,-0.7297,-0.6235,-0.5146,-0.3503,-0.2215,-0.2118,-0.0241,0.0753,-0.0901,-0.1353,-0.348,-0.9012,-1.1056,-1.2936,-1.5181,-1.6281,-1.7358,-1.8502,-2.0434,-2.1533,-2.1603,-2.3273,-2.4157,-2.4135,-2.3896,-2.4002,-2.4416,-2.4039,-2.3973,-2.4276,-2.2862,-2.2565,-2.3349,-2.3553,-2.3928,-2.4468,-2.5158,-2.5473,-2.558,-2.5521,-2.5597,-2.5674,-2.5661,-2.6397,-2.7657,-2.9029,-3.0315,-3.1494,0.0,0.0,0.0,0.0,0.0,0.0,0.0,0.0,0.0,0.0,-2.3805,-2.4293,-2.4931,-2.5047,-2.4996,0.0,0.0,0.0,0.0,0.0,0.0,0.0,0.0,0.0,0.0,-1.6903,-1.7652,-1.9544,-2.0416,-2.2106,-2.4532,-2.4778,-2.579,-2.7353,-2.6688,0.0,0.0,0.0,0.0,0.0,0.0,0.0,0.0,0.0,0.0,0.0,-1.8933,-1.3726,0.0,0.0,0.0,0.0,0.0,0.0,0.0,0.0,0.2792,0.2032,0.2879,0.0,1.0149,0.5623,0.2182,-0.1537,0.0,0.0,0.0,0.0,0.0,-1.011,-0.8844,-0.8103,-0.7484,-0.662,-0.4849,-0.4022,-0.5142,-0.7291,-1.0355,-1.4451,-1.6247,-1.7528,-1.8646,-2.0361,-2.164,-2.2262,-2.3232,-2.4072,-2.4551,-2.5409,-2.5708,-2.5256,-2.5985,-2.607,-2.5312,-2.5195,-2.5183,-2.5252,-2.4921,-2.4444,-2.3927,-2.3966,-2.3851,-2.3664,-2.3867,-2.4554,-2.5458,-2.4994,-2.5375,-2.6351,-2.623,-2.6733,-2.7703,-2.947,-3.0652,-3.156,0.0,0.0,0.0,0.0,0.0,0.0,0.0,0.0,0.0,0.0,0.0,0.0,0.0,0.0,0.0,0.0,0.0,0.0,0.0,0.0,0.0,0.0,0.0,0.0,0.0,-1.899,-1.9364,-2.0825,-2.1764,-2.3283,-2.5358,-2.6191,-2.7081,-2.7997,-2.784,0.0,0.0,0.0,0.0,0.0,-2.7225,0.0,0.0,0.0,0.0,0.0,-1.8859,-1.3867,0.0,-0.4198,-0.0595,0.2008,0.0,0.0,0.0,0.0,-0.2745,-0.3993,-0.4371,-0.1112,0.2095,0.0892,-0.1633,-0.4493,-0.7113,0.0,0.0,0.0,0.0,-1.2865,-1.258,-1.2939,-1.2959,-1.2079,-1.1398,-1.0984,-1.097,-1.2715,-1.4997,-1.7486,-1.8921,-2.0535,-2.2496,-2.3143,-2.4006,-2.5487,-2.5953,-2.6251,-2.6634,-2.6925,-2.6995,-2.6676,-2.6871,-2.6773,-2.6384,-2.6384,-2.6377,-2.6364,-2.5837,-2.5304,-2.4767,-2.4875,-2.4819,-2.4523,-2.4641,-2.5154,-2.581,-2.4869,-2.5305,-2.6504,-2.6116,-2.6942,-2.8501,-2.9845,-3.1182,-3.2436,0.0,0.0,0.0,0.0,0.0,0.0,0.0,0.0,0.0,0.0,0.0,0.0,0.0,0.0,0.0,0.0,0.0,0.0,0.0,0.0,0.0,0.0,0.0,-2.2345,-2.1473,-2.0542,-2.0768,-2.2073,-2.3137,-2.4544,-2.632,-2.7603,-2.8088,-2.7848,-2.8671,-2.8909,0.0,0.0,-2.9649,-2.9939,-2.9825,0.0,0.0,0.0,0.0,0.0,0.0,0.0,0.0,-0.3144,-0.0534,0.0737,-0.0134,0.0,0.0,0.0,0.0,0.0,-0.7997,-0.7057,-0.5488,-0.4109,-0.514,-0.6684,-0.7446,0.0,0.0,0.0,0.0,0.0,-1.6221,-1.7467,0.0,-1.7631,-1.8258,-1.837,-1.7399,-1.7986,-1.8867,-1.952,-2.0772,-2.2611,-2.5664,-2.5204,-2.5751,-2.8042,-2.8349,-2.8445,-2.8504,-2.8574,-2.8528,-2.8273,-2.7418,-2.7119,-2.7354,-2.7213,-2.7168,-2.7143,-2.6189,-2.5686,-2.5586,-2.5768,-2.5861,-2.5942,-2.6018,-2.6217,-2.639,-2.5128,-2.539,-2.6483,-2.5975,-2.7157,-2.9247,-3.0179,-3.1675,-3.3254,0.0,0.0,0.0,0.0,0.0,0.0,0.0,0.0,0.0,0.0,0.0,0.0,0.0,0.0,0.0,0.0,0.0,0.0,0.0,0.0,0.0,0.0,-2.5187,-2.4378,-2.4683,-2.2867,-2.2541,-2.3827,-2.3589,-2.4553,-2.6699,-2.6841,-2.7086,-2.7522,-2.8313,-2.865,-2.854,-2.8297,-2.8783,-2.9725,-2.966,0.0,0.0,0.0,0.0,0.0,0.0,0.0,0.0,-0.4048,-0.2406,-0.1072,-0.2008,0.0,0.0,0.0,0.0,0.0,-0.913,-1.0466,-1.0937,-0.8233,-0.8067,-0.8846,-0.9817,0.0,0.0,0.0,0.0,0.0,0.0,-2.0082,-2.1063,-2.1639,-2.2574,-2.3209,-2.3224,-2.3568,-2.3591,-2.2902,-2.3876,-2.4923,-2.548,-2.6832,-2.8294,-2.9756,-3.0394,-3.0829,-3.1162,-3.1602,-3.1155,-2.9722,-2.9278,-2.8559,-2.7628,-2.6977,-2.6659,-2.6659,-2.6483,-2.6063,-2.5586,-2.5643,-2.5769,-2.603,-2.5508,-2.6068,-2.7187,-2.5891,-2.5854,-2.6572,-2.691,-2.7656,-2.8757,-3.0456,-3.1692,-3.2544,0.0,0.0,0.0,0.0,0.0,0.0,0.0,0.0,0.0,0.0,0.0,0.0,0.0,0.0,0.0,0.0,0.0,0.0,0.0,0.0,0.0,0.0,-2.75,-2.626,-2.5307,-2.3108,-2.2007,-2.2023,-2.2461,-2.3673,-2.5611,-2.7729,-2.8388,-2.7845,-2.91,-2.9078,-2.8056,-2.8802,-2.94,-2.987,0.0,0.0,0.0,0.0,0.0,0.0,0.0,0.0,0.0,0.0,-0.2008,-0.1475,-0.2409,0.0,0.0,0.0,0.0,0.0,-1.0692,-1.197,-1.2684,-1.1959,-1.1467,-1.1307,-1.1726,0.0,0.0,0.0,0.0,0.0,0.0,-2.2332,-2.488,-2.8155,-2.8391,-2.8165,-2.7994,-2.6956,-2.5937,-2.5126,-2.5718,-2.6557,-2.7334,-2.8386,-2.9423,-3.0318,-3.1408,-3.2055,-3.2206,-3.2707,-3.2557,-3.1772,-3.0825,-2.9849,-2.898,-2.8585,-2.7717,-2.6533,-2.6533,-2.6314,-2.6131,-2.6575,-2.6817,-2.6982,-2.6808,-2.7214,-2.7849,-2.6582,-2.6651,-2.7636,-2.7859,-2.8595,-2.9733,-3.1715,-3.2684,-3.3128,0.0,0.0,0.0,0.0,0.0,0.0,0.0,0.0,0.0,0.0,0.0,0.0,0.0,0.0,0.0,0.0,0.0,0.0,0.0,0.0,-2.9622,-3.0133,-2.9116,-2.7495,-2.5229,-2.2854,-2.1129,-2.0076,-2.1295,-2.3124,-2.5524,-2.8893,-2.974,-2.852,-2.9771,-2.944,-2.8022,-2.9231,-2.9802,-2.9883,0.0,0.0,0.0,0.0,0.0,0.0,0.0,0.0,0.0,0.0,0.0,0.0,0.0,0.0,0.0,-0.7569,-0.882,-1.0109,-1.2043,-1.3065,-1.3752,-1.447,-1.3885,-1.3184,-1.3349,-1.4216,0.0,0.0,0.0,0.0,0.0,-2.4219,-2.7722,-3.2452,-3.2713,-3.2304,-3.2241,-3.0471,-2.8826,-2.7921,-2.784,-2.8299,-2.9398,-2.9572,-2.9915,-3.0669,-3.1877,-3.2664,-3.2876,-3.3561,-3.3893,-3.3747,-3.2435,-3.1405,-3.0723,-3.0248,-2.9023,-2.7095,-2.7095,-2.7095,-2.7095,-2.7736,-2.8103,-2.8336,-2.8429,-2.8621,-2.8739,-2.769,-2.7854,-2.8762,-2.8879,-2.972,-3.1055,-3.2804,-3.358,-3.3914,0.0,0.0,0.0,0.0,0.0,0.0,0.0,0.0,0.0,0.0,0.0,0.0,0.0,0.0,0.0,0.0,0.0,0.0,0.0,0.0,-3.0289,-3.0018,-2.9148,-2.7543,-2.5172,-2.2752,-2.0895,-1.9637,-2.0737,-2.3649,-2.8336,-2.9687,-3.0004,-2.9491,-2.9531,-2.9373,-2.8977,-2.8585,-2.8869,-2.9443,-2.8395,0.0,0.0,0.0,0.0,0.0,0.0,0.0,0.0,0.0,0.0,0.0,0.0,0.0,-0.6984,-0.7933,-0.9519,-1.1218,-1.2498,-1.4277,-1.5567,-1.4772,-1.4094,0.0,-1.4945,-1.4883,0.0,-1.9104,0.0,0.0,0.0,-2.5591,-2.8188,-3.1125,-3.3233,-3.4749,-3.5485,-3.5046,-3.403,-3.2241,-3.1225,-3.0578,-3.0366,-2.9901,-3.0049,-3.1101,-3.2046,-3.2947,-3.3876,-3.5436,-3.5992,-3.5365,-3.4426,-3.3648,-3.2947,-3.0993,-2.9582,-2.8812,-2.8812,-2.8812,-2.8812,-2.8876,-2.938,-3.009,-2.9488,-2.9667,-3.0261,-2.966,-2.9445,-2.9576,-3.0176,-3.1111,-3.2278,-3.301,-3.3806,-3.443,0.0,0.0,0.0,0.0,0.0,0.0,0.0,0.0,0.0,0.0,0.0,0.0,0.0,0.0,0.0,0.0,0.0,0.0,0.0,0.0,-2.9951,-3.0849,-2.9398,-2.6594,-2.2344,-2.0128,-1.8026,-1.5898,-1.9521,-2.3407,-2.7511,-2.9184,-2.9506,-2.8702,-2.9224,-2.8643,-2.7385,-2.773,-2.759,-2.7077,-2.6162,-2.5079,0.0,0.0,0.0,0.0,0.0,0.0,0.0,0.0,-0.2038,-0.1934,0.0,-0.4501,-0.7216,-0.8146,-1.0263,-1.2498,-1.3707,-1.5438,-1.6833,-1.6706,-1.6514,0.0,0.0,-1.6564,-1.7616,-1.9397,-2.124,0.0,0.0,-2.8451,-3.102,-3.3568,-3.5855,-3.7196,-3.6924,-3.6248,-3.5121,-3.3479,-3.2826,-3.2207,-3.1442,-3.1574,-3.1456,-3.0906,-3.2246,-3.3151,-3.3115,-3.5224,-3.6357,-3.6118,-3.5792,-3.5333,-3.4617,-3.3445,-3.2687,-3.2557,-3.0154,-2.9002,-2.9002,-2.9566,-3.0025,-3.03,-3.0573,-3.0597,-3.0492,-3.0253,-2.9924,-2.9708,-3.0739,-3.1901,-3.3161,-3.3799,-3.4555,-3.5331,0.0,0.0,0.0,0.0,0.0,0.0,0.0,0.0,0.0,0.0,0.0,0.0,0.0,0.0,0.0,0.0,0.0,0.0,0.0,-2.9997,-3.0434,-3.1468,-2.9743,-2.6457,-2.162,-1.947,-1.6769,-1.3462,-1.8766,-2.3174,-2.6642,-2.8283,-2.8614,-2.7827,0.0,0.0,-2.6135,-2.6597,-2.6154,-2.5092,-2.4115,-2.2927,0.0,0.0,0.0,0.0,0.0,0.0,0.0,0.0,-0.158,0.0,0.0,0.0,-0.6865,-0.7914,-1.0911,-1.4008,-1.4759,-1.6404,-1.8081,-1.8267,0.0,0.0,-1.7938,-1.8499,-1.9461,-2.118,-2.3153,-2.5257,-2.7785,-2.9874,-3.2112,-3.4562,-3.6885,-3.8191,-3.7764,-3.6957,-3.5973,-3.5035,-3.4433,-3.3736,-3.2672,-3.2846,-3.2634,-3.1439,-3.26,-3.3384,-3.3325,-3.5341,-3.6567,-3.6776,-3.6776,-3.6567,-3.6118,-3.5446,-3.5095,-3.4926,-3.2378,-3.1039,-3.0804,-3.1426,-3.1569,-3.139,-3.1962,-3.1774,-3.1127,-3.1127,-3.0895,-3.0642,-3.1958,-3.3006,-3.3905,-3.4821,-3.5658,-3.6437,0.0,0.0,0.0,0.0,0.0,0.0,0.0,0.0,0.0,0.0,0.0,0.0,0.0,0.0,0.0,0.0,0.0,0.0,0.0,-3.1427,-3.2009,-3.1793,-3.0124,-2.7507,-2.3808,-2.1537,-1.7945,-1.297,-1.8706,-2.3143,-2.6191,-2.6983,-2.725,0.0,0.0,0.0,0.0,0.0,-2.4564,-2.3818,-2.246,-2.1356,-2.0398,0.0,0.0,0.0,0.0,0.0,0.0,0.0,-0.231,-0.1429,0.0,0.0,0.0,-0.6984,-1.1388,-1.5892,-1.5468,-1.7315,-1.9271,0.0,0.0,0.0,-2.1094,-2.0462,-2.0796,-2.5165,-2.6034,-2.6557,-2.8646,-2.9496,-3.0846,-3.3446,-3.5755,-3.7387,-3.7939,-3.7538,-3.7186,-3.7186,-3.6207,-3.5127,-3.4022,-3.342,-3.3122,-3.3041,-3.3295,-3.3868,-3.4963,-3.5946,-3.6776,-3.7375,-3.7404,-3.7404,-3.7404,-3.6871,-3.629,-3.5667,-3.5752,-3.5433,-3.4707,-3.4707,-3.4322,-3.3598,-3.3598,-3.3235,-3.2602,-3.2602,-3.2558,-3.2677,-3.3963,-3.4535,-3.4651,-3.5998,-3.7062,-3.7822,0.0,0.0,0.0,0.0,0.0,0.0,0.0,0.0,0.0,0.0,0.0,0.0,0.0,0.0,0.0,0.0,0.0,0.0,0.0,-3.0703,-3.1144,-3.1719,-3.0631,-2.83,-2.461,-2.2181,-1.9928,-1.776,-2.0935,-2.3163,-2.4467,-2.5259,-2.4954,-2.3763,0.0,0.0,0.0,0.0,-2.2036,-2.1001,-2.0072,-1.9305,-1.8489,0.0,0.0,0.0,0.0,0.0,0.0,0.0,0.0,0.0,0.0,0.0,0.0,-0.5996,-0.9744,-1.3594,-1.4887,-1.7199,0.0,-1.964,0.0,0.0,0.0,-2.1608,0.0,0.0,-2.662,-2.7957,-3.0537,-3.1852,-3.3034,-3.427,-3.6006,-3.7387,-3.7939,-3.7538,-3.7186,-3.7186,-3.6558,-3.583,-3.5127,-3.455,-3.4183,-3.4173,-3.4543,-3.479,-3.5021,-3.636,-3.7015,-3.6776,-3.7195,-3.7714,-3.8284,-3.765,-3.7802,-3.878,-3.8231,-3.7091,-3.5466,-3.4931,-3.4579,-3.4354,-3.3822,-3.3495,-3.3319,-3.3879,-3.4304,-3.4695,-3.5094,-3.5214,-3.525,-3.5639,-3.697,-3.8584,0.0,0.0,0.0,0.0,0.0,0.0,0.0,0.0,0.0,0.0,0.0,0.0,0.0,0.0,0.0,0.0,0.0,0.0,0.0,0.0,-3.0853,-3.1643,-3.0607,-2.8801,-2.6126,-2.4477,-2.3314,-2.27,-2.2957,-2.3095,-2.3179,-2.3525,-2.2922,-2.1425,0.0,-2.1518,0.0,0.0,-1.9946,-1.9051,-1.8507,-1.803,-1.759,0.0,0.0,0.0,0.0,0.0,0.0,0.0,0.0,0.0,0.0,0.0,0.0,-0.5106,-0.8837,-1.2808,-1.5423,-1.7708,0.0,-2.0873,-2.2168,-2.335,-2.4306,0.0,0.0,0.0,-2.8293,-3.0009,-3.2442,-3.3717,-3.4578,-3.5226,-3.6146,-3.6845,-3.6754,-3.6609,-3.6533,-3.6533,-3.6433,-3.6132,-3.5604,-3.5658,-3.5678,-3.5653,-3.6046,-3.6173,-3.5985,-3.6654,-3.6866,-3.6507,-3.7141,-3.7755,-3.8242,-3.8432,-3.8921,-3.9622,-3.9495,-3.8745,-3.7485,-3.6711,-3.6252,-3.5906,-3.4901,-3.4424,-3.4457,-3.4941,-3.53,-3.5608,-3.5887,-3.5798,-3.5584,-3.6148,-3.7406,-3.8964,0.0,0.0,0.0,0.0,0.0,0.0,0.0,0.0,0.0,0.0,0.0,0.0,0.0,0.0,0.0,0.0,0.0,0.0,0.0,0.0,-3.0828,-3.1347,-3.0108,-2.8971,-2.805,-2.7607,-2.7316,-2.7207,-2.472,-2.3082,0.0,0.0,-2.1081,-1.9878,0.0,-1.9944,0.0,0.0,-1.8344,-1.7969,-1.7598,-1.7441,-1.7441,-1.7402,0.0,0.0,0.0,0.0,0.0,0.0,0.0,0.0,0.0,-0.1153,-0.224,-0.4472,-0.8418,-1.2943,-1.6283,0.0,0.0,-2.2323,-2.3164,0.0,-2.4719,-2.707,-2.904,-2.8998,-3.0578,-3.2531,-3.4262,-3.5133,-3.5812,-3.6306,-3.6339,-3.5957,-3.4894,-3.5127,-3.5479,-3.5479,-3.5956,-3.6081,-3.5529,-3.6522,-3.731,-3.7153,-3.7629,-3.7783,-3.7575,-3.6985,-3.6663,-3.661,-3.7269,-3.7747,-3.781,-3.9224,-3.9666,-3.9115,-3.9747,-4.0087,-4.0054,-3.9309,-3.8599,-3.7807,-3.6455,-3.5943,-3.5993,-3.5999,-3.5967,-3.597,-3.6594,-3.6352,-3.5872,-3.7155,-3.8241,-3.9166,0.0,0.0,0.0,0.0,0.0,0.0,0.0,0.0,0.0,0.0,0.0,0.0,0.0,0.0,0.0,0.0,0.0,0.0,0.0,0.0,-2.9751,-2.988,-2.9138,-2.8831,-2.9058,-2.8426,-2.8073,-2.8123,-2.602,-2.394,0.0,0.0,0.0,-1.7981,0.0,-1.8462,0.0,-1.816,-1.8045,-1.8008,-1.791,-1.7871,-1.7832,-1.75,-1.7598,0.0,0.0,0.0,0.0,0.0,0.0,0.0,-0.5526,-0.4432,-0.4232,-0.5542,-0.7966,-1.0965,-1.4345,-1.6847,0.0,0.0,-2.334,-2.5558,-2.616,-2.8474,-3.0483,-3.0431,-3.1918,-3.3954,-3.6641,-3.729,-3.7181,-3.6879,-3.6503,-3.6061,-3.5297,-3.4971,-3.4901,-3.4901,-3.5378,-3.5504,-3.4951,-3.6315,-3.7471,-3.7731,-3.828,-3.8702,-3.8949,-3.8362,-3.7805,-3.7367,-3.8052,-3.8716,-3.9544,-3.9771,-4.015,-4.0725,-4.0307,-4.0087,-4.0054,-3.9309,-3.8599,-3.7889,-3.7576,-3.7764,-3.8302,-3.8288,-3.8261,-3.8186,-3.8316,-3.7962,-3.7354,-3.763,-3.8902,-4.0481,0.0,0.0,0.0,0.0,0.0,0.0,0.0,0.0,0.0,0.0,0.0,0.0,0.0,0.0,0.0,0.0,0.0,0.0,0.0,0.0,0.0,-2.8528,-2.8222,-2.8511,-2.9361,-2.9054,-2.8801,-2.8786,-2.7166,0.0,0.0,0.0,0.0,-1.6684,0.0,-1.7716,0.0,0.0,-1.8008,-1.8008,-1.8008,-1.8008,-1.7988,-1.7773,-1.7695,-1.7715,-1.7695,0.0,0.0,0.0,0.0,0.0,0.0,0.0,-0.6208,-0.6881,-0.8335,-1.0617,-1.4821,0.0,0.0,-2.1644,0.0,-2.6605,-2.781,-2.9618,-3.1448,-3.261,-3.3796,-3.5115,-3.6632,-3.7337,-3.7377,-3.6529,-3.6286,-3.5814,-3.4955,-3.4865,-3.49,-3.49,-3.566,-3.6053,-3.5765,-3.7659,-3.8866,-3.8749,-3.9844,-4.0396,-4.0051,-3.9695,-3.9123,-3.8213,-3.8957,-3.9392,-3.9501,-3.9827,-4.0232,-4.0663,-4.0257,-4.0087,-4.0054,-3.9681,-3.9106,-3.843,-3.843,-3.8633,-3.9005,-3.9005,-3.8974,-3.8908,-3.8908,-3.8469,-3.7847,-3.8515,-3.9435,-4.0493,0.0,0.0,0.0,0.0,0.0,0.0,0.0,0.0,0.0,0.0,0.0,0.0,0.0,0.0,0.0,0.0,0.0,0.0,0.0,0.0,0.0,0.0,-2.761,-2.8125,-2.9225,-2.9361,-2.9339,-2.9222,0.0,0.0,0.0,0.0,0.0,-1.6089,0.0,0.0,0.0,0.0,-1.8047,-1.8105,-1.8047,-1.8047,-1.8105,-1.7949,-1.7868,-1.7784,-1.7994,-1.8048,-1.7849,-1.729,0.0,0.0,0.0,0.0,-0.8673,-0.8893,-0.9621,-1.1313,-1.5873,0.0,-1.9084,-2.3471,-2.5702,0.0,-2.9148,-3.0637,-3.23,-3.4396,-3.5337,-3.5827,-3.6086,-3.6821,-3.707,-3.6183,-3.5956,-3.5552,-3.4529,-3.4727,-3.4958,-3.4958,-3.5946,-3.655,-3.6468,-3.8767,-3.998,-3.9348,-4.1133,-4.1863,-4.09,-4.0764,-4.0258,-3.9307,-3.978,-3.9776,-3.9102,-3.9765,-4.0087,-4.0087,-4.0087,-4.0087,-4.0087,-4.0087,-3.9749,-3.9174,-3.9174,-3.9174,-3.9174,-3.9174,-3.9228,-3.9249,-3.9249,-3.8929,-3.8625,-3.9767,-4.0212,-4.0453,0.0,0.0,0.0,0.0,0.0,0.0,0.0,0.0,0.0,0.0,0.0,0.0,0.0,0.0,0.0,0.0,0.0,0.0,-2.761,0.0,0.0,-2.761,-2.761,-2.791,-2.8606,-2.9134,-2.9387,-2.9335,0.0,0.0,0.0,0.0,0.0,-1.6555,0.0,0.0,0.0,0.0,0.0,-1.8516,-1.8164,-1.8223,-1.8477,-1.7734,-1.8101,-1.8965,-1.8633,-1.9233,-2.0051,-1.9201,-1.8208,0.0,0.0,0.0,-1.2741,-1.2459,-1.2585,-1.3273,0.0,0.0,-2.1332,0.0,-2.7176,-2.865,0.0,0.0,-3.3699,-3.4059,-3.4646,-3.5561,-3.6941,-3.7336,-3.7157,-3.6552,-3.612,-3.5626,-3.4911,-3.4566,-3.4431,-3.4431,-3.4931,-3.5151,-3.4706,-3.724,-3.8687,-3.8055,-4.0377,-4.1688,-4.155,-4.1141,-4.0825,-4.0721,-4.0212,-3.9939,-3.9952,-4.0087,-4.0087,-4.0087,-4.0087,-4.0087,-4.0087,-4.0087,-4.002,-3.9918,-3.9918,-3.9918,-3.9918,-3.9918,-4.0217,-4.0651,-4.0651,-4.0897,-4.1305,-4.1473,-4.186,-4.2306,0.0,0.0,0.0,0.0,0.0,0.0,0.0,0.0,0.0,0.0,0.0,0.0,0.0,0.0,0.0,-2.4255,-2.5096,-2.6093,-2.7479,-2.761,-2.776,-2.8107,-2.8076,-2.8415,-2.8996,-2.9271,-2.9225,0.0,0.0,0.0,0.0,-2.1425,-1.8908,0.0,0.0,0.0,0.0,0.0,0.0,-1.8995,-1.9327,-1.938,-1.93,-1.9246,-1.9251,-1.9399,-2.0087,-2.029,-2.0191,-2.0227,-1.9737,-1.8783,-1.7189,0.0,0.0,0.0,-1.4498,-1.4864,-1.7026,-1.9541,-2.222,0.0,-2.6719,-2.7953,-2.9803,-3.1525,-3.3038,-3.3819,-3.468,-3.5503,-3.6201,-3.6357,-3.6267,-3.5968,-3.5815,-3.5604,-3.5242,-3.5078,-3.4975,-3.4975,-3.5523,-3.5812,-3.5523,-3.7748,-3.9272,-3.9403,-4.121,-4.2572,-4.3135,-4.2943,-4.2458,-4.1744,-4.1431,-4.0889,-4.0087,-4.0087,-4.0087,-4.0087,-4.0087,-4.0087,-4.0087,-4.0087,-4.0087,-4.0087,-4.0087,-4.0087,-4.0087,-4.0087,-4.0417,-4.092,-4.092,-4.1251,-4.1853,-4.218,-4.2462,-4.277,0.0,0.0,0.0,0.0,0.0,0.0,0.0,0.0,0.0,0.0,0.0,0.0,0.0,0.0,0.0,0.0,-2.5043,-2.6054,-2.729,-2.767,-2.7966,-2.8263,-2.856,-2.8904,-2.9406,-2.9406,0.0,0.0,0.0,0.0,-2.2765,-2.126,-1.8829,0.0,-1.7304,0.0,0.0,0.0,0.0,0.0,0.0,-2.0908,-2.0737,-2.1411,-2.1099,-2.0534,-2.2035,-2.1994,-2.1213,-2.1179,-2.0908,-2.0254,-1.8605,-1.786,0.0,0.0,0.0,-1.6591,0.0,0.0,-2.2789,-2.5444,-2.6479,-2.7505,0.0,-3.1322,-3.2495,-3.3762,-3.4839,-3.5519,-3.5519,-3.5519,-3.5519,-3.5519,-3.5519,-3.5519,-3.5519,-3.5519,-3.5519,-3.5519,-3.6105,-3.6507,-3.6507,-3.8231,-3.9651,-4.0216,-4.1723,-4.2943,-4.3695,-4.3773,-4.3356,-4.2354,-4.1914,-4.1204,-4.0087,-4.0087,-4.0087,-4.0087,-4.0257,-4.0257,-4.0087,-4.0257,-4.0257,-4.0087,-4.0087,-4.0087,-4.0087,-4.0087,-4.0519,-4.1197,-4.1383,-4.1939,-4.2674,-4.3054,-4.321,-4.3286,0.0,0.0,0.0,0.0,0.0,0.0,0.0,0.0,0.0,0.0,0.0,0.0,-1.7733,-1.9973,-2.2163,-2.3585,-2.4816,-2.585,-2.6583,-2.7789,-2.8154,-2.7596,-2.874,0.0,-2.9406,-2.9406,0.0,0.0,0.0,0.0,-2.2765,-2.126,-1.9114,-1.6558,-1.7579,-1.7442,-1.6627,0.0,0.0,0.0,0.0,-2.2651,-2.2863,-2.4091,-2.4033,-2.3412,-2.4519,-2.4906,-2.4546,-2.2359,-2.1879,-2.1763,-1.9292,-1.8582,-1.8414,0.0,0.0,0.0,0.0,-2.1647,0.0,-2.6142,-2.7328,-2.8372,0.0,-3.197,-3.3264,-3.3897,-3.4839,-3.5519,-3.5519,-3.5519,-3.5519,-3.5519,-3.5519,-3.5519,-3.5519,-3.5519,-3.5519,-3.5519,-3.6133,-3.66,-3.66,-3.7928,-3.8854,-3.8918,-4.0951,-4.2242,-4.2334,-4.239,-4.2334,-4.2286,-4.0933,-4.0155,-4.0087,-4.0087,-4.0087,-4.0087,-4.0798,-4.0764,-4.0087,-4.0832,-4.0764,-4.0087,-4.0087,-4.0087,-4.0087,-4.0087,-4.0861,-4.2111,-4.2687,-4.3679,-4.4822,-4.4675,-4.46,-4.449,0.0,0.0,0.0,0.0,0.0,0.0,0.0,0.0,0.0,0.0,0.0,0.0,0.0,-2.0322,-2.2526,-2.4761,-2.6836,-2.8124,-2.8388,-2.8824,-2.9143,-2.9286,-2.9718,-2.9978,-2.9978,-2.9978,0.0,0.0,0.0,-2.5716,-2.3606,-2.2515,-2.0924,-1.9114,-1.8375,-1.7765,-1.7571,-1.9399,0.0,0.0,0.0,0.0,0.0,-2.4753,-2.4753,-2.4781,-2.5439,-2.5309,-2.476,-2.3448,-2.3242,-2.3096,-2.0635,-2.0112,-2.0165,-1.8754,-1.8968,-1.9786,0.0,0.0,0.0,-2.5178,-2.6012,-2.6771,-2.8248,-3.0215,-3.2016,-3.2891,-3.4409,-3.5619,-3.6102,-3.5846,-3.5519,-3.5519,-3.5519,-3.5683,-3.6165,-3.6228,-3.6415,-3.6874,-3.7235,-3.7381,-3.7381,-3.8302,-3.9112,-3.9601,-4.1288,-4.2478,-4.2981,-4.2968,-4.2794,-4.2286,-4.1339,-4.0561,-4.0087,-4.0087,-4.0324,-4.0798,-4.1068,-4.1305,-4.1508,-4.1779,-4.1508,-4.0798,-4.0798,-4.0527,-4.0121,-4.0595,-4.1518,-4.2748,-4.3421,-4.4504,-4.555,-4.548,-4.5149,-4.4706,0.0,0.0,0.0,0.0,0.0,0.0,0.0,0.0,0.0,-1.4827,0.0,0.0,0.0,0.0,-2.3606,-2.5938,-2.7955,-2.8958,-2.8702,-2.9327,-2.975,-2.9836,-3.0463,-3.0778,-3.0778,0.0,0.0,0.0,0.0,0.0,0.0,-2.3244,-2.1812,-2.0281,-1.9291,-1.869,0.0,0.0,0.0,-2.2704,0.0,0.0,-2.596,-2.6754,-2.6501,-2.5935,-2.6738,-2.6479,-2.5597,-2.4652,-2.4575,-2.4423,-2.1933,-2.0893,-2.041,-1.899,-1.9397,-2.0421,-2.0952,0.0,0.0,0.0,-2.4933,-2.546,-2.6942,-2.8875,-3.071,-3.2083,-3.4031,-3.5672,-3.6168,-3.6076,-3.5921,-3.5921,-3.6105,-3.6353,-3.6591,-3.6808,-3.7203,-3.7764,-3.8019,-3.8076,-3.7822,-3.869,-3.9408,-3.9688,-4.1104,-4.2151,-4.2658,-4.2658,-4.232,-4.1576,-4.1068,-4.0595,-4.0087,-4.0087,-4.0324,-4.0832,-4.1339,-4.1711,-4.1948,-4.2455,-4.2117,-4.1204,-4.1204,-4.0764,-4.0121,-4.0629,-4.1739,-4.318,-4.3854,-4.5078,-4.6428,-4.6323,-4.581,-4.511,0.0,0.0,0.0,0.0,0.0,0.0,0.0,0.0,-1.8304,-1.6629,0.0,0.0,0.0,0.0,0.0,-2.7157,-2.7977,-2.8105,-2.74,-2.9237,-2.9942,-2.9033,-3.0833,-3.1808,-3.1771,0.0,0.0,0.0,0.0,0.0,0.0,0.0,-2.1713,-1.9873,-2.0366,-2.0139,-1.9441,0.0,-2.1282,-2.2547,0.0,-2.7026,-2.7147,-3.0218,-2.9533,-2.6993,-2.8661,-2.856,-2.7419,-2.6003,-2.5795,-2.5644,-2.304,-2.0913,-1.9219,-1.8789,-1.964,-2.0658,0.0,0.0,0.0,0.0,-2.4406,-2.462,-2.6785,-2.8213,-2.9636,-3.1471,-3.379,-3.5546,-3.5548,-3.6195,-3.6734,-3.6734,-3.731,-3.7534,-3.6862,-3.7374,-3.7822,-3.7879,-3.8469,-3.8635,-3.7937,-3.9189,-3.9714,-3.8962,-4.0314,-4.1204,-4.1204,-4.1204,-4.0865,-4.0087,-4.0087,-4.0087,-4.0087,-4.0087,-4.0087,-4.0121,-4.1576,-4.188,-4.1271,-4.2726,-4.2591,-4.1204,-4.1204,-4.0764,-4.0087,-4.0138,-4.1389,-4.3388,-4.4011,-4.5551,-4.7398,-4.7234,-4.6654,-4.581,0.0,0.0,0.0,0.0,0.0,0.0,-2.0841,-1.99,-1.8714,0.0,0.0,0.0,-2.0823,-2.4182,-2.6704,-2.7474,-2.8777,-2.9549,-2.9349,-3.0624,-3.1305,-3.1005,-3.1812,-3.2127,-3.1808,0.0,0.0,0.0,0.0,0.0,0.0,0.0,0.0,0.0,-2.1968,-2.1439,-2.1164,-2.0782,0.0,-2.4405,-2.5174,-2.6754,-2.8629,-2.916,-2.9203,-2.8861,-2.8512,-2.8247,-2.7809,-2.6651,-2.6599,-2.6494,-2.3909,-2.1565,-1.9856,-2.0451,-2.1381,-2.232,-2.2628,0.0,0.0,0.0,0.0,0.0,-2.6756,-2.818,-2.9743,-3.1649,-3.3155,-3.4685,-3.6764,-3.7373,-3.7531,-3.7586,-3.7264,-3.7319,-3.8166,-3.8449,-3.8799,-3.9401,-3.9156,-3.8799,-3.8635,-3.8962,-3.9156,-3.8908,-4.0314,-4.1204,-4.1204,-4.1204,-4.0865,-4.0087,-4.0087,-4.0087,-4.0087,-4.0087,-4.0358,-4.0899,-4.1305,-4.1677,-4.2016,-4.2422,-4.2083,-4.1204,-4.1204,-4.0764,-4.0172,-4.1131,-4.2484,-4.4047,-4.5193,-4.6644,-4.8038,-4.7972,-4.7462,-4.6691,0.0,0.0,0.0,0.0,0.0,-2.4182,-2.2144,-2.1075,-1.9762,0.0,0.0,0.0,-2.3548,-2.5526,-2.7072,-2.811,-2.8789,-2.9296,-2.9634,-3.0726,-3.1322,-3.1322,-3.2089,-3.2264,-3.1808,-3.1771,0.0,0.0,0.0,0.0,0.0,0.0,0.0,0.0,0.0,0.0,0.0,0.0,0.0,0.0,-2.5148,-2.6286,-2.7875,-2.8725,-2.8705,-2.8305,-2.8531,-2.8435,-2.8049,-2.7655,-2.7286,-2.6676,-2.5008,-2.2981,-2.1251,-2.1546,-2.2332,-2.3143,-2.319,-2.4261,-2.5344,-2.5389,0.0,0.0,-2.7133,-2.7989,-2.9232,-3.1664,-3.2942,-3.426,-3.6476,-3.7168,-3.7469,-3.7874,-3.7502,-3.7505,-3.8384,-3.9002,-3.9558,-4.0003,-3.9368,-3.8908,-3.8908,-3.8908,-3.8908,-3.8908,-4.0012,-4.073,-4.073,-4.073,-4.0527,-4.0087,-4.0087,-4.0087,-4.0087,-4.0087,-4.029,-4.073,-4.1068,-4.1441,-4.1847,-4.2151,-4.188,-4.1204,-4.1204,-4.0917,-4.0549,-4.158,-4.2633,-4.3855,-4.5234,-4.6557,-4.7792,-4.7792,-4.7315,-4.6507,0.0,0.0,-2.8339,-2.8705,-2.6987,-2.5242,-2.4139,-2.2687,-2.1042,0.0,-2.1087,-2.3747,-2.6611,-2.6543,-2.6972,-2.8786,-2.8416,-2.8383,-2.9059,-3.0176,-3.0838,-3.0838,-3.1913,-3.2299,-3.1946,-3.1877,-3.2032,0.0,0.0,0.0,0.0,0.0,0.0,0.0,0.0,0.0,0.0,0.0,0.0,-2.3941,-2.5361,-2.588,-2.6047,-2.8736,-2.8425,-2.6728,-2.8724,-2.8975,-2.8348,-2.8775,-2.7951,-2.659,-2.5993,-2.4632,-2.3205,-2.25,-2.3073,-2.3766,-2.3263,-2.4608,-2.6162,-2.6136,-2.6348,0.0,-2.7857,-2.7826,-2.844,-3.142,-3.2756,-3.3774,-3.5119,-3.6067,-3.6874,-3.755,-3.7855,-3.8058,-3.8125,-3.9276,-4.0087,-4.0087,-3.9368,-3.8908,-3.8908,-3.8908,-3.8908,-3.8908,-3.9662,-4.0087,-4.0087,-4.0087,-4.0087,-4.0087,-4.0087,-4.0087,-4.0087,-4.0087,-4.0087,-4.0087,-4.0764,-4.1068,-4.1102,-4.1745,-4.1677,-4.1068,-4.112,-4.1081,-4.0932,-4.1603,-4.2399,-4.323,-4.4525,-4.5836,-4.6985,-4.6985,-4.6507,-4.5773,0.0,0.0,-2.8755,-2.8517,-2.755,-2.6285,-2.478,-2.3103,-2.1504,-2.0105,-2.1689,-2.3509,-2.5193,-2.6745,-2.7959,-2.8609,-2.9293,-2.9736,-2.9871,-3.0967,-3.16,-3.16,-3.216,-3.2581,-3.2778,-3.2154,-3.227,-3.3261,0.0,0.0,0.0,0.0,0.0,0.0,0.0,0.0,0.0,0.0,0.0,-2.3704,-2.4659,-2.5792,-2.7067,-2.8826,-2.9188,-2.882,-2.9476,-2.9606,-2.9402,-2.9051,-2.8221,-2.7167,-2.6113,-2.5825,-2.568,-2.4708,-2.5414,-2.6352,-2.5859,-2.6217,-2.6897,-2.7434,-2.7813,0.0,-2.8404,-2.8438,-2.8697,-2.993,-3.0651,-3.1707,-3.3656,-3.4977,-3.5893,-3.6062,-3.7584,-3.8971,-3.958,-3.9884,-4.0087,-4.0087,-3.9368,-3.8908,-3.8908,-3.8908,-3.8908,-3.8908,-3.9662,-4.0087,-4.0087,-4.0087,-4.0087,-4.0087,-4.0087,-4.0087,-4.0087,-4.0087,-4.0087,-4.0087,-4.0223,-4.029,-4.029,-4.046,-4.0426,-4.0341,-4.0768,-4.0918,-4.0978,-4.2062,-4.2969,-4.3768,-4.449,-4.5334,-4.614,-4.614,-4.603,-4.5773,0.0,-2.8408,-2.9075,-2.8664,-2.787,-2.6649,-2.4936,-2.278,-2.0784,-1.9168,-2.029,-2.2326,-2.5284,-2.6456,-2.7451,-2.8371,-2.886,-2.9287,-2.9621,-3.0649,-3.1319,-3.1473,-3.1914,-3.2124,-3.2089,-3.1713,-3.2156,-3.3417,0.0,0.0,0.0,0.0,0.0,0.0,0.0,0.0,0.0,0.0,-2.2188,-2.4439,-2.3707,-2.3976,-2.4912,-2.6304,-2.7066,-2.7434,-2.8317,-2.9142,-2.9704,-2.9126,-2.8425,-2.7753,-2.7483,-2.7164,-2.682,-2.5942,-2.6416,-2.7062,-2.6239,-2.6987,-2.7976,-2.7989,-2.8708,0.0,0.0,-2.9295,-2.9478,-3.0794,-3.108,-3.166,-3.374,-3.4645,-3.5325,-3.6084,-3.7483,-3.87,-3.9445,-3.9851,-4.0087,-4.0087,-3.9368,-3.9069,-3.942,-3.9487,-3.9632,-4.0041,-4.0052,-4.0087,-4.0087,-4.0087,-4.0087,-4.0087,-4.0087,-4.0087,-4.0087,-4.0087,-4.0087,-4.0087,-4.0087,-4.0087,-4.0087,-4.0087,-4.0254,-4.048,-4.078,-4.1206,-4.1853,-4.2422,-4.3099,-4.3761,-4.4418,-4.4966,-4.5296,-4.5296,-4.5296,-4.5186,-2.7241,0.0,-2.9556,-2.9208,-2.8525,-2.7307,-2.5227,-2.2639,-2.0221,-1.823,-1.929,-2.1832,-2.603,-2.6826,-2.7574,-2.8806,-2.9041,-2.9237,-2.9585,-3.0493,-3.1067,-3.1196,-3.1507,-3.1614,-3.1393,-3.1258,-3.2002,-3.3626,-3.1878,0.0,0.0,0.0,0.0,0.0,0.0,0.0,0.0,0.0,0.0,-2.526,-2.3102,-2.2525,-2.3167,-2.4384,-2.5194,-2.5808,-2.7263,-2.8639,-2.9704,-2.9328,-2.8773,-2.8298,-2.8672,-2.8558,-2.7985,-2.7011,-2.7309,-2.7798,-2.6575,-2.7679,-2.9121,-2.8685,-2.9782,-3.0851,0.0,0.0,0.0,-3.1689,-3.1658,-3.1883,-3.3502,-3.4119,-3.4783,-3.5967,-3.7118,-3.8125,-3.87,-3.9546,-4.0087,-4.0087,-3.9558,-3.9435,-4.024,-4.0327,-4.0554,-4.1152,-4.0629,-4.0223,-4.0087,-4.0358,-4.0358,-4.0087,-4.0223,-4.0223,-4.0087,-4.0087,-4.0087,-4.0087,-4.0087,-4.0087,-4.0138,-4.0204,-4.048,-4.0886,-4.1115,-4.181,-4.2693,-4.2808,-4.3105,-4.3534,-4.4232,-4.4488,-4.4488,-4.4488,-4.4488,-4.4378,-2.8092,-2.9361,-3.0458,-3.0395,-3.0332,-2.925,-2.6314,-2.3646,-2.1219,-1.9297,-2.1534,-2.4282,-2.6989,-2.9396,-3.0959,-3.1102,-3.2155,-3.2278,-3.1122,-3.1724,-3.1845,-3.1224,-3.1269,-3.1574,-3.2178,-3.1529,-3.2239,-3.437,-3.1221,-3.033,0.0,0.0,0.0,0.0,-2.3109,0.0,0.0,0.0,-2.2735,-2.5537,-2.3814,-2.4091,-2.5575,-2.6546,-2.7008,-2.7207,-2.8325,-2.9226,-2.9858,-3.0047,-2.952,-2.8823,-2.8594,-2.9789,-3.0842,-2.8278,-2.904,-3.0306,-2.8967,-2.927,-3.0034,-3.0711,-3.154,-3.2138,-3.1482,0.0,-3.0283,-2.9973,0.0,-3.068,-3.0896,0.0,0.0,-3.3862,-3.6128,-3.7922,-3.8024,-3.9208,-4.0087,-4.0087,-4.0003,-4.0273,-4.1001,-4.1084,-4.11,-4.1204,-4.1136,-4.0798,-4.0121,-4.1339,-4.1441,-4.0121,-4.073,-4.0764,-4.0087,-4.0087,-4.0087,-4.0087,-4.0087,-4.0087,-4.0138,-4.0577,-4.0874,-4.0932,-4.2021,-4.2577,-4.2732,-4.3214,-4.3463,-4.3497,-4.3608,-4.3644,-4.3644,-4.3644,-4.3644,-4.3676,-3.0026,-3.0884,0.0,-3.1541,-3.1085,-3.0024,-2.7745,-2.4006,-2.0966,-1.9809,-2.1436,-2.4041,-2.7483,-2.9328,-3.0654,-3.1486,-3.236,-3.2619,-3.2022,-3.2622,-3.2611,-3.1867,-3.1833,-3.1765,-3.1664,-3.136,-3.1867,-3.322,-3.0675,-2.9964,0.0,0.0,0.0,0.0,-2.3119,0.0,-2.5368,0.0,-2.4268,-2.7286,-2.6069,-2.6256,-2.7138,-2.5586,-2.5781,-2.7188,-2.9091,-3.0215,-3.0857,-3.0949,-3.0271,-2.9598,-3.0675,-3.1124,-3.1132,-3.0842,-3.0807,-3.0651,-2.9865,-3.012,-3.0785,-3.1099,-3.2191,-3.3006,-3.2736,-3.2138,-3.1719,-3.1839,0.0,0.0,0.0,0.0,0.0,0.0,-3.7151,-3.8531,-3.8531,-3.9411,-4.0087,-4.0087,-4.0087,-4.0358,-4.1136,-4.0798,-4.0899,-4.1779,-4.1818,-4.1663,-4.1391,-4.233,-4.2244,-4.0764,-4.1035,-4.0832,-4.0087,-4.0087,-4.0087,-4.0138,-4.0417,-4.0577,-4.0577,-4.115,-4.1603,-4.1979,-4.2462,-4.2882,-4.3178,-4.3428,-4.3497,-4.3497,-4.3497,-4.3497,-4.3497,-4.3497,-4.3631,-4.3786,-3.2142,0.0,0.0,0.0,-3.1972,-3.0547,-2.7572,-2.3834,-2.1106,-2.0617,-2.2266,-2.4961,-2.8703,-3.0295,-3.1457,-3.2353,-3.3148,-3.3351,-3.2793,-3.3359,-3.3288,-3.2307,-3.2434,-3.2094,-3.1224,-3.1312,-3.1686,-3.2313,-3.051,-2.9939,0.0,0.0,0.0,0.0,0.0,-2.3919,-2.5922,0.0,-2.5707,-2.8714,-2.8082,-2.7928,-2.7885,-2.5677,-2.5802,-2.7406,-2.9679,-3.0837,-3.1337,-3.1814,-3.1396,-3.0913,-3.2436,-3.2573,-3.2284,-3.3126,-3.2796,-3.1987,-3.1426,-3.1634,-3.2105,-3.2073,-3.2795,-3.3517,-3.3726,-3.3125,-3.2706,-3.3365,-3.3125,0.0,0.0,0.0,-3.5873,-3.6352,0.0,-3.9005,-3.9005,-3.9614,-4.0087,-4.0087,-4.0257,-4.0595,-4.117,-4.0696,-4.0832,-4.1914,-4.2309,-4.2437,-4.2261,-4.3304,-4.3147,-4.1512,-4.1477,-4.1035,-4.0087,-4.0087,-4.0087,-4.0138,-4.0672,-4.092,-4.0967,-4.1725,-4.2302,-4.2693,-4.2882,-4.3142,-4.3497,-4.3497,-4.3497,-4.3532,-4.3597,-4.3664,-4.3664,-4.3664,-4.3849,-4.4213,-3.4158,-3.4129,0.0,0.0,-3.3273,-3.1109,-2.4912,-2.3058,-2.2292,-2.1845,-2.5255,-2.8626,-3.1133,-3.3678,-3.5002,-3.4541,-3.5586,-3.5497,-3.3584,-3.4086,-3.3795,-3.2341,-3.2754,-3.241,-3.1224,-3.1548,-3.1963,-3.2313,-3.0925,-3.0337,0.0,0.0,0.0,-2.5356,-2.4567,-2.4563,-2.515,-2.5157,-2.6754,-2.9261,-2.9319,-2.8591,-2.7603,-2.8474,-2.8648,-2.866,-3.0201,-3.0608,-3.0699,-3.2441,-3.2972,-3.2946,-3.3275,-3.4302,-3.526,-3.4607,-3.4887,-3.5221,-3.4727,-3.4408,-3.4311,-3.4376,-3.3944,-3.3648,-3.433,-3.3455,-3.2706,-3.3365,-3.3484,-3.3455,-3.3546,-3.4701,-3.571,-3.5764,-3.7548,0.0,0.0,-3.9614,-4.0087,-4.0087,-4.073,-4.117,-4.1204,-4.117,-4.117,-4.1238,-4.248,-4.2944,-4.225,-4.4246,-4.442,-4.225,-4.2211,-4.1542,-4.0087,-4.0087,-4.0087,-4.0138,-4.0672,-4.092,-4.0932,-4.2103,-4.2655,-4.2732,-4.325,-4.3497,-4.3497,-4.3497,-4.3497,-4.3529,-4.3849,-4.3967,-4.3967,-4.3967,-4.4233,-4.4764,0.0,0.0,0.0,0.0,0.0,-3.1634,-2.6551,-2.5441,-2.532,-2.5767,-2.7283,-2.9755,-3.3558,-3.4955,-3.5659,-3.5776,-3.6341,-3.6163,-3.498,-3.5082,-3.495,-3.4306,-3.4431,-3.3883,-3.2486,-3.2567,-3.2314,-3.1562,-3.0734,-3.0109,0.0,0.0,0.0,0.0,0.0,-2.5176,0.0,0.0,0.0,-3.0063,-3.1106,-3.1013,-3.0045,-2.8683,-2.8541,-2.934,-3.1039,-3.2632,-3.4112,-3.519,-3.5206,-3.5054,-3.6142,-3.6421,-3.6507,-3.7275,-3.6934,-3.6324,-3.6111,-3.6077,-3.5855,-3.5387,-3.5482,-3.5528,-3.5274,-3.4498,-3.421,-3.5368,-3.5243,-3.5269,-3.6178,-3.7142,-3.7807,-3.7807,-3.892,-3.9715,0.0,-3.9918,-4.0087,-4.0087,-4.029,-4.046,-4.046,-4.046,-4.0663,-4.117,-4.2034,-4.2874,-4.3603,-4.4366,-4.4435,-4.3672,-4.3234,-4.232,-4.0832,-4.0832,-4.073,-4.0672,-4.1241,-4.1725,-4.2103,-4.2884,-4.3214,-4.325,-4.3428,-4.3497,-4.3497,-4.3497,-4.3631,-4.3849,-4.3974,-4.4318,-4.4688,-4.4482,-4.4612,-4.5156,-3.4169,0.0,0.0,0.0,-3.2849,-3.1033,-2.7541,-2.7291,-2.7686,-2.8085,-2.9374,-3.1387,-3.4313,-3.5642,-3.6287,-3.6105,-3.6429,-3.6355,-3.5656,-3.5622,-3.5513,-3.5307,-3.5436,-3.4878,-3.3512,-3.3663,-3.3159,-3.1968,-3.134,-3.0586,0.0,0.0,0.0,0.0,0.0,-2.5673,-2.6607,-2.774,-2.9166,-3.0754,-3.2352,-3.2538,-3.1643,-2.9983,-2.9549,-3.0086,-3.2526,-3.4187,-3.5498,-3.6971,-3.7373,-3.7435,-3.8584,-3.8667,-3.8452,-3.9384,-3.8839,-3.7902,-3.7636,-3.7595,-3.7404,-3.6627,-3.6605,-3.6593,-3.6071,-3.5463,-3.5304,-3.6454,-3.6326,-3.651,-3.7918,-3.8576,-3.9007,-3.927,-3.9778,-4.0087,0.0,-4.0087,-4.0087,-4.0087,-4.0087,-4.0087,-4.0087,-4.0087,-4.029,-4.0764,-4.1864,-4.2999,-4.4257,-4.4572,-4.4712,-4.4712,-4.387,-4.2692,-4.1204,-4.1204,-4.1069,-4.092,-4.1473,-4.2139,-4.2693,-4.325,-4.3497,-4.3497,-4.3497,-4.3497,-4.3497,-4.3497,-4.3693,-4.3998,-4.4146,-4.4587,-4.5055,-4.4872,-4.5369,-4.6375,0.0,0.0,-3.3598,-3.3013,-3.1287,-2.9427,-2.775,-2.8436,-2.9163,-2.9031,-3.1485,-3.3427,-3.3745,-3.598,-3.6981,-3.5779,-3.6148,-3.6191,-3.5622,-3.5622,-3.5591,-3.5382,-3.5741,-3.5428,-3.431,-3.4619,-3.4359,-3.3423,-3.2679,-3.1732,0.0,0.0,0.0,0.0,-2.5797,0.0,-2.7266,-2.8111,-2.9628,-3.1585,-3.3151,-3.3224,-3.2431,-3.2547,-3.1743,-3.1031,-3.4478,-3.5273,-3.5053,-3.7852,-3.9281,-3.9981,-4.0553,-4.0788,-4.092,-4.092,-4.0528,-3.9918,-3.9242,-3.9039,-3.8857,-3.8044,-3.7378,-3.6861,-3.6764,-3.63,-3.6011,-3.6662,-3.6822,-3.7327,-3.8701,-3.8982,-3.928,-3.9974,-4.0079,-4.0087,-4.0087,-4.0087,-4.0087,-4.0087,-4.0087,-4.0087,-4.0087,-4.0087,-4.0087,-4.0087,-4.1812,-4.3262,-4.4165,-4.4774,-4.5198,-4.5407,-4.4216,-4.2867,-4.1409,-4.1409,-4.1287,-4.1047,-4.163,-4.2216,-4.2732,-4.325,-4.3497,-4.3497,-4.3497,-4.3532,-4.3532,-4.3569,-4.38,-4.4162,-4.453,-4.4862,-4.5175,-4.5137,-4.6337,-4.8048,-3.4278,-3.2592,-3.0897,-2.9932,-2.9114,-2.8592,-2.8574,-2.8348,-2.8919,-3.1158,-3.1574,-3.2654,-3.5446,-3.6419,-3.672,-3.626,-3.6498,-3.6412,-3.5656,-3.5985,-3.6353,-3.67,-3.6814,-3.6463,-3.5574,-3.5311,-3.4565,-3.3423,-3.322,-3.2497,-3.1246,0.0,0.0,0.0,0.0,-2.6581,-2.7298,-2.8615,-3.0957,-3.3871,-3.5379,-3.5232,-3.4235,-3.5877,-3.5613,-3.4535,-3.5379,-3.6228,-3.7382,-3.9624,-4.0435,-4.07,-4.1321,-4.1244,-4.092,-4.092,-4.0528,-4.0054,-3.9851,-3.9817,-3.9648,-3.8908,-3.8555,-3.827,-3.7703,-3.7453,-3.7569,-3.8271,-3.8872,-3.9373,-3.9707,-4.0612,-4.1,-4.0238,-4.0087,-4.0087,-4.0087,-4.0087,-4.0087,-4.0087,-4.0087,-4.0087,-4.0087,-4.0087,-4.0087,-4.0087,-4.0573,-4.1821,-4.4085,-4.3957,-4.473,-4.6809,-4.6083,-4.5194,-4.426,-4.426,-4.387,-4.3161,-4.3284,-4.3312,-4.3286,-4.3463,-4.3497,-4.3497,-4.3497,-4.3664,-4.3918,-4.4581,-4.519,-4.5746,-4.5817,-4.6097,-4.6378,-4.5726,-4.6224,-4.7278,-3.4447,-3.2314,-3.0258,-2.9342,-2.8828,-2.875,-2.9351,-2.9104,-2.9701,-3.2169,-3.196,-3.2397,-3.454,-3.5661,-3.6107,-3.5667,-3.6229,-3.6464,-3.5975,-3.6457,-3.6981,-3.747,-3.7323,-3.6998,-3.6537,-3.6038,-3.5339,-3.437,-3.3772,-3.2958,-3.1951,0.0,0.0,0.0,0.0,-2.7305,-2.8771,-3.0539,-3.2755,-3.5184,-3.6337,-3.6518,0.0,-3.7408,-3.7427,-3.6801,-3.7001,-3.7636,-3.8676,-4.0631,-4.1296,-4.1429,-4.2266,-4.1943,-4.1296,-4.1296,-4.072,-4.0087,-4.0087,-4.0087,-3.9986,-3.958,-3.9478,-3.9276,-3.8531,-3.8396,-3.8497,-3.8903,-3.958,-4.0391,-4.1355,-4.1822,-4.1747,-4.0617,-4.0466,-4.0466,-4.0466,-4.0672,-4.0767,-4.0514,-4.0466,-4.0368,-4.0138,-4.0087,-4.0087,-4.0087,-4.0319,-4.1285,-4.3219,-4.3559,-4.4495,-4.6426,-4.6102,-4.5564,-4.4904,-4.4834,-4.4503,-4.3984,-4.4273,-4.4485,-4.4525,-4.4525,-4.4342,-4.4011,-4.4011,-4.4247,-4.4624,-4.5072,-4.5687,-4.632,-4.6487,-4.6685,-4.6894,-4.674,-4.7009,-4.7509,-3.4771,-3.2917,-3.1102,-3.0196,-2.9725,-2.9617,-2.9933,-3.0101,-3.0672,-3.1988,-3.2198,-3.2255,-3.2413,-3.431,-3.5284,-3.4658,-3.5654,-3.6333,-3.6374,-3.6825,-3.7323,-3.779,-3.7466,-3.7203,-3.7097,-3.6684,-3.6174,-3.5622,-3.428,-3.3306,-3.2688,0.0,0.0,0.0,0.0,0.0,0.0,-3.2667,-3.4336,-3.5663,-3.6563,-3.7354,-3.8058,-3.8159,-3.8193,-3.8261,-3.8903,-3.9073,-3.9268,-4.1086,-4.1725,-4.1979,-4.3069,-4.2734,-4.1895,-4.181,-4.1013,-4.0204,-4.0138,-4.0087,-4.0087,-4.0087,-4.0087,-3.9918,-3.9276,-3.914,-3.914,-3.914,-3.9815,-4.0914,-4.2673,-4.2575,-4.2032,-4.1394,-4.1244,-4.1233,-4.1337,-4.1684,-4.178,-4.1244,-4.1198,0.0,-4.0254,-4.0104,-4.0087,-4.0087,-4.0528,-4.1254,-4.2285,-4.3441,-4.4572,-4.5574,-4.5609,-4.5388,-4.4788,-4.4823,-4.4707,-4.4476,-4.5173,-4.5727,-4.6067,-4.5957,-4.5516,-4.4856,-4.4926,-4.516,-4.5536,-4.5709,-4.6135,-4.6729,-4.7069,-4.724,-4.7317,-4.8009,-4.8279,-4.824,-3.4637,-3.3844,-3.2727,-3.1145,-3.1182,-3.1126,-3.0135,-2.978,-2.9821,-3.0229,-3.076,-3.1197,-3.145,-3.345,-3.4748,-3.461,-3.5283,-3.5941,-3.6374,-3.6498,-3.6746,-3.7285,-3.7381,-3.7165,-3.6539,-3.6644,-3.6356,-3.5622,-3.4825,-3.4056,-3.3374,-3.1945,0.0,0.0,0.0,0.0,-2.9888,-3.2468,-3.4045,-3.5013,-3.6894,-3.8104,-3.887,-3.9478,-3.9681,-3.9715,-3.9851,-3.9512,-3.9219,-4.0585,-4.1385,-4.1937,-4.2616,-4.2693,-4.2422,-4.1937,-4.1331,-4.0638,-4.0204,-4.0087,-4.0087,-4.0087,-4.0087,-4.0054,-3.9918,-3.9884,-3.9884,-3.9884,-4.091,-4.1678,-4.1405,-4.2146,-4.2951,-4.3309,-4.2981,-4.2856,-4.3527,-4.3156,-4.2731,-4.2644,-4.2644,-4.2131,-4.0896,-4.0368,-4.0087,-4.0087,-4.0204,-4.1081,-4.3013,-4.3768,-4.5113,-4.7108,-4.7696,-4.7555,-4.682,-4.8102,-4.7969,-4.6608,-4.7344,-4.7459,-4.6874,-4.6214,-4.581,-4.5736,-4.6042,-4.6389,-4.6769,-4.7846,-4.8503,-4.8875,-4.8914,-4.8971,-4.8971,-4.9125,-4.9163,-4.9086,-3.595,0.0,0.0,-3.2919,-3.2958,-3.2456,-3.0143,-3.005,-3.0106,-2.9904,-2.9886,-3.0059,-3.0689,-3.2456,-3.3689,-3.4053,-3.4938,-3.5786,-3.6374,-3.6661,-3.7079,-3.7736,-3.7568,-3.7517,-3.7517,-3.7433,-3.7178,-3.6806,-3.5723,-3.4856,-3.411,-3.1951,-3.0945,-3.1001,0.0,-3.0283,0.0,-3.267,-3.4135,-3.5307,-3.6699,-3.7925,-3.9005,-3.9373,-3.9714,-4.0087,-4.0087,-3.9851,-3.9679,-4.0629,-4.1296,-4.1895,-4.2537,-4.2693,-4.2655,-4.2342,-4.1853,-4.1206,-4.0672,-4.048,-4.0466,-4.0154,-4.0087,-4.0087,-4.0087,-4.0353,-4.048,-4.048,-4.1591,-4.2517,-4.244,-4.2988,-4.353,-4.3848,-4.3647,-4.3775,-4.4563,-4.4597,-4.4385,-4.4139,-4.3451,-4.2626,-4.1673,-4.0705,-4.0087,-4.0087,-4.0087,-4.0713,-4.2158,-4.3442,-4.5042,-4.6944,-4.7919,-4.8436,-4.8612,-4.9313,-4.9258,-4.853,-4.9252,-4.915,-4.8343,-4.7976,-4.7352,-4.6507,-4.6724,-4.6991,-4.7432,-4.8428,-4.9073,-4.9394,-4.9394,-4.9394,-4.951,-5.0394,-5.0202,-4.9452,-3.7775,-3.7235,-3.6326,-3.5033,-3.4592,-3.3433,-3.0335,-3.0192,-3.0168,-2.9481,-2.9306,-2.9394,-2.9964,-3.1534,-3.2788,-3.3339,-3.4397,-3.5374,-3.613,-3.647,-3.6986,-3.7872,-3.7698,-3.7782,-3.8197,-3.818,-3.8058,-3.7922,-3.6274,-3.5226,-3.4622,-3.1708,-3.0565,-3.1012,0.0,-3.1482,-3.1569,-3.2959,-3.4318,-3.5667,-3.6379,-3.756,-3.8908,-3.8908,-3.9368,-4.0087,-4.0087,-4.0154,-4.0319,-4.0733,-4.1296,-4.1895,-4.2537,-4.277,-4.2846,-4.2732,-4.2342,-4.1853,-4.1251,-4.0978,-4.078,-4.0368,-4.0154,-4.0104,-4.0254,-4.0625,-4.0967,-4.107,-4.2053,-4.3036,-4.3715,-4.4158,-4.4416,-4.4346,-4.4526,-4.4962,-4.5581,-4.5809,-4.5736,-4.5319,-4.4119,-4.3038,-4.2219,-4.1099,-4.0353,-4.0138,-4.0087,-4.046,-4.1407,-4.2914,-4.4565,-4.6288,-4.7551,-4.8545,-4.9343,-4.9834,-5.007,-5.0025,-5.0707,-5.0692,-5.0031,-4.9884,-4.9114,-4.7902,-4.7978,-4.8266,-4.8783,-4.9239,-4.9652,-4.9894,-4.974,-4.9702,-4.9894,-5.1395,-5.1048,-4.9913,-3.9616,0.0,-3.8472,-3.7284,-3.5937,-3.4069,-3.1136,-2.9822,-2.8779,-2.7685,-2.8798,-2.9545,-2.9184,-3.1217,-3.2656,-3.2711,-3.3339,-3.4252,-3.5385,-3.509,-3.5379,-3.6559,-3.7407,-3.7562,-3.6886,-3.8203,-3.8565,-3.7922,-3.5789,-3.4759,-3.4622,-3.1687,-3.0013,-2.9551,-3.0894,-3.1482,-3.1629,-3.2916,-3.4303,-3.5639,-3.6319,-3.752,-3.8908,-3.8908,-3.9368,-4.0087,-4.0087,-4.0417,-4.0827,-4.0874,-4.1296,-4.1895,-4.2537,-4.3032,-4.3321,-4.2846,-4.2655,-4.2462,-4.1895,-4.1296,-4.092,-4.0827,-4.0466,-4.0254,-4.0685,-4.0874,-4.1059,-4.1603,-4.2257,-4.2994,-4.3828,-4.5244,-4.6115,-4.5697,-4.6582,-4.7367,-4.7445,-4.6576,-4.5883,-4.581,-4.5077,-4.3828,-4.203,-4.1717,-4.1196,-4.0154,-4.0087,-4.0696,-4.2117,-4.2339,-4.3439,-4.5694,-4.7051,-4.7773,-4.7807,-5.0509,-5.1492,-5.0721,-5.1536,-5.183,-5.172,-5.1022,-5.0618,-5.0475,-5.075,-5.1367,-5.2132,-5.1743,-5.1644,-5.1587,-5.0856,-5.0625,-5.0875,-5.1742,-5.153,-5.0913,-4.0024,-3.9534,-3.8841,-3.8162,-3.671,-3.4745,-3.1827,-3.0368,-2.8911,-2.7062,-2.7811,-2.8633,-2.8967,-3.0332,-3.1742,-3.3017,-3.338,-3.4101,-3.5426,-3.5318,-3.561,-3.6555,-3.6967,-3.7253,-3.7349,-3.797,-3.8166,-3.7817,-3.6529,-3.5681,-3.52,-3.3095,-3.1714,-3.1079,-3.2196,-3.2916,-3.3335,-3.3873,-3.466,-3.5579,-3.5852,-3.6874,-3.8246,-3.8246,-3.8995,-4.0087,-4.0087,-4.0431,-4.0967,-4.1296,-4.1853,-4.2382,-4.2616,-4.3069,-4.3463,-4.325,-4.3178,-4.3069,-4.2501,-4.2144,-4.1895,-4.1516,-4.1286,-4.1196,-4.142,-4.1725,-4.2021,-4.2302,-4.2959,-4.3684,-4.4261,-4.4909,-4.5453,-4.5752,-4.6647,-4.7372,-4.7648,-4.7296,-4.6868,-4.6654,-4.5185,-4.3896,-4.314,-4.1972,-4.1241,-4.1105,-4.0466,-4.0527,-4.1576,-4.2427,-4.3746,-4.5574,-4.7417,-4.8586,-4.9033,-5.106,-5.1917,-5.1609,-5.2358,-5.2711,-5.2711,-5.238,-5.2234,-5.2234,-5.1848,-5.219,-5.292,-5.2216,-5.2217,-5.2587,-5.1741,-5.151,-5.1702,-5.2589,-5.2395,-5.1875,-4.0233,-3.9671,-3.9096,-3.8596,-3.7184,-3.5213,-3.257,-3.117,-2.97,-2.7747,-2.7842,-2.8298,-2.8939,-3.0168,-3.1456,-3.27,-3.3233,-3.3887,-3.4779,-3.5124,-3.5584,-3.6337,-3.6565,-3.6915,-3.744,-3.7706,-3.7822,-3.7822,-3.6858,-3.6106,-3.5577,-3.4091,-3.2933,-3.2205,-3.3084,-3.3873,-3.4472,-3.4472,-3.4891,-3.5519,-3.5519,-3.6415,-3.7822,-3.7822,-3.8778,-4.0087,-4.0087,-4.0528,-4.1206,-4.1682,-4.2342,-4.2957,-4.2957,-4.3214,-4.3497,-4.3497,-4.3497,-4.3428,-4.3032,-4.2808,-4.2616,-4.218,-4.1937,-4.1853,-4.2021,-4.2382,-4.277,-4.3032,-4.3684,-4.429,-4.4701,-4.494,-4.523,-4.5645,-4.6544,-4.724,-4.7467,-4.7191,-4.6925,-4.6765,-4.5001,-4.3717,-4.3563,-4.2257,-4.1622,-4.2129,-4.1406,-4.1263,-4.2018,-4.2817,-4.4089,-4.5823,-4.7576,-4.9129,-5.0323,-5.1754,-5.2676,-5.3116,-5.3632,-5.3922,-5.3922,-5.3922,-5.3922,-5.3885,-5.3429,-5.3609,-5.4226,-5.3551,-5.3696,-5.4203,-5.3087,-5.2741,-5.2935,-5.3571,-5.3148,-5.2413,-4.0508,-4.0004,-3.9449,-3.8872,-3.7324,-3.5411,-3.3386,-3.2067,-3.0955,-3.0062,-2.9361,-2.9002,-2.9002,-3.109,-3.2108,-3.1219,-3.2576,-3.3425,-3.3153,-3.3996,-3.4806,-3.5488,-3.6311,-3.6685,-3.66,-3.7381,-3.7822,-3.7822,-3.6334,-3.5608,-3.5577,-3.4122,-3.3022,-3.2205,-3.3084,-3.3873,-3.4472,-3.4472,-3.4891,-3.5519,-3.5519,-3.6415,-3.7822,-3.7822,-3.8778,-4.0087,-4.0087,-4.0814,-4.181,-4.181,-4.2544,-4.3497,-4.3497,-4.3497,-4.3497,-4.3497,-4.3497,-4.3497,-4.3497,-4.3105,-4.2693,-4.2693,-4.2262,-4.1937,-4.2577,-4.2693,-4.2922,-4.3812,-4.429,-4.4701,-4.5011,-4.5726,-4.6139,-4.5704,-4.6679,-4.7352,-4.7051,-4.5963,-4.5403,-4.5882,-4.4488,-4.3322,-4.2768,-4.2693,-4.2745,-4.2959,-4.2951,-4.3262,-4.4031,-4.3498,-4.4231,-4.6533,-4.7365,-4.8907,-5.1154,-5.2543,-5.4034,-5.5574,-5.5574,-5.5574,-5.5574,-5.5574,-5.5574,-5.5581,-5.5977,-5.6444,-5.6819,-5.6425,-5.6512,-5.678,-5.5126,-5.4552,-5.4651,-5.4661,-5.3575,-5.2356,-4.0523,-4.0194,-3.997,-4.0139,-3.8894,-3.7106,-3.4769,-3.3846,-3.2435,-2.9652,-3.0439,-3.0984,-3.0529,-3.0823,-3.1657,-3.3258,-3.3481,-3.3873,-3.4678,-3.4991,-3.5301,-3.5513,-3.5105,-3.4812,-3.4853,-3.5115,-3.5215,-3.5215,-3.5446,-3.5513,-3.5513,-3.5078,-3.4733,-3.4445,-3.4733,-3.4981,-3.519,-3.519,-3.531,-3.5519,-3.5519,-3.6415,-3.7822,-3.7822,-3.8778,-4.0087,-4.0087,-4.0814,-4.181,-4.181,-4.2544,-4.3497,-4.3497,-4.3497,-4.3529,-4.3791,-4.366,-4.3529,-4.3791,-4.356,-4.325,-4.325,-4.3506,-4.3831,-4.4017,-4.4267,-4.4475,-4.4726,-4.4872,-4.5033,-4.5381,-4.5668,-4.5764,-4.5624,-4.6436,-4.6967,-4.6578,-4.601,-4.5573,-4.544,-4.4773,-4.4234,-4.409,-4.4227,-4.4292,-4.4157,-4.3808,-4.3805,-4.4165,-4.5,-4.5787,-4.6477,-4.8307,-4.9905,-5.1189,-5.2579,-5.3845,-5.4905,-5.5395,-5.5868,-5.6455,-5.7556,-5.807,-5.807,-5.8215,-5.8535,-5.895,-5.8559,-5.8669,-5.8972,-5.8227,-5.7649,-5.723,-5.6618,-5.575,-5.4814,-4.0716,-4.0624,-4.0616,-4.0564,-3.9822,-3.8496,-3.6329,-3.5388,-3.4098,-3.1801,-3.2174,-3.2708,-3.2796,-3.2006,-3.2038,-3.3461,-3.3984,-3.4345,-3.4587,-3.4787,-3.4905,-3.4905,-3.3973,-3.3671,-3.4013,-3.4013,-3.4177,-3.4543,-3.5198,-3.5519,-3.5519,-3.5519,-3.5519,-3.5519,-3.5519,-3.5519,-3.5519,-3.5519,-3.5683,-3.5879,-3.5879,-3.6814,-3.8189,-3.8189,-3.8995,-4.0087,-4.0087,-4.0814,-4.181,-4.181,-4.2544,-4.3497,-4.3497,-4.3497,-4.3529,-4.3758,-4.3758,-4.3693,-4.3823,-4.366,-4.3571,-4.3864,-4.4342,-4.4818,-4.5284,-4.5425,-4.5463,-4.5559,-4.5392,-4.5361,-4.5568,-4.5586,-4.5586,-4.5586,-4.6047,-4.6378,-4.632,-4.5846,-4.5568,-4.5631,-4.5193,-4.4957,-4.5112,-4.5294,-4.5475,-4.559,-4.5257,-4.5457,-4.6176,-4.6597,-4.7069,-4.7676,-4.9749,-5.1398,-5.2472,-5.3662,-5.4786,-5.5861,-5.6273,-5.6748,-5.7299,-5.8621,-5.9208,-5.9245,-5.9538,-5.9936,-6.0348,-6.0113,-6.0437,-6.0942,-6.0365,-6.0032,-5.9688,-5.8517,-5.7379,-5.6395,-4.0992,-4.1193,-4.1311,-4.0494,-4.0259,-3.9651,-3.8094,-3.6734,-3.5808,-3.5571,-3.4455,-3.4113,-3.531,-3.4352,-3.3265,-3.2234,-3.408,-3.4617,-3.312,-3.3542,-3.3819,-3.3819,-3.2989,-3.2947,-3.3876,-3.3876,-3.4447,-3.5554,-3.5619,-3.5683,-3.5683,-3.5619,-3.5554,-3.5554,-3.5554,-3.5554,-3.5554,-3.5619,-3.607,-3.6661,-3.6661,-3.7584,-3.8908,-3.8908,-3.9368,-4.0138,-4.0104,-4.0861,-4.181,-4.1853,-4.2582,-4.3497,-4.3497,-4.3532,-4.3529,-4.3529,-4.3758,-4.3912,-4.3631,-4.3569,-4.3754,-4.4525,-4.4856,-4.5254,-4.6424,-4.6382,-4.6112,-4.6313,-4.6014,-4.5663,-4.5586,-4.5586,-4.5586,-4.5586,-4.5586,-4.5744,-4.6189,-4.5573,-4.5418,-4.6284,-4.5743,-4.5509,-4.6027,-4.6139,-4.6433,-4.7095,-4.7169,-4.783,-4.9485,-4.8229,-4.8179,-4.9812,-5.1544,-5.3115,-5.4556,-5.5473,-5.66,-5.7997,-5.7997,-5.7997,-5.8033,-5.8841,-5.9245,-5.9355,-6.0126,-6.0785,-6.1236,-6.1279,-6.1845,-6.2749,-6.1949,-6.1934,-6.2127,-6.0396,-5.8665,-5.7212,-4.0974,-4.1369,-4.1931,-4.2078,-4.1958,-4.1306,-3.9863,-3.8633,-3.7187,-3.519,-3.4941,-3.4951,-3.4741,-3.4891,-3.4273,-3.2356,-3.2687,-3.2803,-3.2465,-3.2348,-3.2345,-3.2345,-3.1775,-3.1947,-3.2876,-3.2947,-3.4023,-3.6322,-3.6935,-3.7235,-3.7235,-3.6631,-3.6322,-3.6322,-3.6322,-3.6322,-3.6384,-3.6995,-3.7354,-3.7531,-3.7531,-3.8076,-3.8908,-3.8908,-3.9368,-4.0154,-4.0577,-4.1196,-4.1853,-4.2342,-4.2921,-4.3497,-4.3497,-4.366,-4.3881,-4.3881,-4.3758,-4.3627,-4.3818,-4.4173,-4.4452,-4.4672,-4.6104,-4.7684,-4.8534,-4.8633,-4.8207,-4.7009,-4.6665,-4.6394,-4.5701,-4.5586,-4.5586,-4.5586,-4.5586,-4.5645,-4.5744,-4.5357,-4.5414,-4.6239,-4.6474,-4.6882,-4.765,-4.8295,-4.8483,-4.8033,-4.7718,-4.8002,-4.9004,-4.9082,-4.9793,-5.1402,-5.3024,-5.4082,-5.4436,-5.5825,-5.7052,-5.7997,-5.7997,-5.7997,-5.8033,-5.8841,-5.9538,-6.0162,-6.097,-6.1765,-6.2424,-6.2814,-6.3753,-6.4931,-6.5123,-6.5111,-6.4782,-6.3051,-6.0973,-5.8902,-4.1615,-4.2114,-4.278,-4.3265,-4.3209,-4.2656,-4.1391,-3.9996,-3.8315,-3.5982,-3.5612,-3.5304,-3.4565,-3.4801,-3.4392,-3.2724,-3.2638,-3.2299,-3.1622,-3.1309,-3.1287,-3.1558,-3.1303,-3.1683,-3.2593,-3.3378,-3.4896,-3.7144,-3.7589,-3.7822,-3.7822,-3.7322,-3.7144,-3.7144,-3.7144,-3.7144,-3.7144,-3.7648,-3.7962,-3.8302,-3.8302,-3.8548,-3.8987,-3.932,-3.9512,-3.9713,-4.0582,-4.1296,-4.1895,-4.2498,-4.3069,-4.3497,-4.3497,-4.3631,-4.3791,-4.3791,-4.3758,-4.3726,-4.3791,-4.422,-4.4966,-4.6067,-4.7645,-4.9196,-5.0347,-5.0304,-4.9749,-4.8815,-4.8009,-4.7201,-4.6355,-4.5855,-4.5586,-4.5586,-4.5586,-4.5586,-4.5586,-4.5438,-4.5722,-4.6755,-4.7124,-4.7666,-4.874,-4.9239,-4.9315,-4.8891,-4.9025,-4.9465,-5.029,-5.0919,-5.1454,-5.1981,-5.3922,-5.4766,-5.4399,-5.5647,-5.6675,-5.7446,-5.7446,-5.7629,-5.8033,-5.8841,-5.9568,-6.0248,-6.1431,-6.2353,-6.2984,-6.3663,-6.4745,-6.5983,-6.626,-6.6642,-6.6859,-6.5128,-6.3166,-6.1074,-4.2275,-4.2807,-4.3464,-4.3892,-4.4075,-4.3756,-4.2693,-4.1067,-3.9327,-3.7416,-3.6349,-3.5453,-3.4819,-3.4693,-3.4159,-3.291,-3.2901,-3.234,-3.0691,-3.0281,-3.0262,-3.0813,-3.1066,-3.1683,-3.2593,-3.4538,-3.6353,-3.7994,-3.8108,-3.8165,-3.8165,-3.8019,-3.7994,-3.7994,-3.7994,-3.7994,-3.7962,-3.8108,-3.8469,-3.9069,-3.9176,-3.9209,-3.9257,-4.0065,-3.9895,-3.9452,-4.0724,-4.1473,-4.2021,-4.2616,-4.3142,-4.3532,-4.3563,-4.3563,-4.3563,-4.3563,-4.3791,-4.3943,-4.3597,-4.4085,-4.5333,-4.7865,-4.904,-5.012,-5.1957,-5.173,-5.1064,-5.0888,-4.951,-4.8009,-4.7086,-4.6201,-4.5586,-4.5586,-4.5586,-4.5586,-4.5586,-4.5701,-4.6282,-4.751,-4.7793,-4.8348,-4.9549,-4.9673,-4.9749,-4.9862,-5.0516,-5.1281,-5.2197,-5.2855,-5.2953,-5.2407,-5.4469,-5.5354,-5.4801,-5.5318,-5.6018,-5.6786,-5.6786,-5.7272,-5.8047,-5.8702,-5.9418,-6.0062,-6.1521,-6.2401,-6.2974,-6.3842,-6.5002,-6.6243,-6.6472,-6.7331,-6.8205,-6.6667,-6.4897,-6.2974,-4.1788,-4.2343,-4.2999,-4.3305,-4.4312,-4.4739,-4.3665,-4.1956,-4.0369,-3.9181,-3.7353,-3.6163,-3.5995,-3.5633,-3.4267,-3.1594,-3.1746,-3.1296,-2.9688,-2.8872,-2.8695,-2.9226,-3.0485,-3.1683,-3.2593,-3.573,-3.7815,-3.8745,-3.9401,-3.9747,-3.9747,-3.9049,-3.8745,-3.8745,-3.8745,-3.8745,-3.8745,-3.9454,-3.9799,-3.9952,-4.0397,-4.0314,-4.0068,-4.1115,-4.1171,-4.0747,-4.1985,-4.2462,-4.2655,-4.3214,-4.3463,-4.3529,-4.3818,-4.3943,-4.3943,-4.3943,-4.3937,-4.3943,-4.3597,-4.4085,-4.548,-4.86,-4.9481,-5.0415,-5.3424,-5.3434,-5.2588,-5.1886,-5.0356,-4.874,-4.7201,-4.6201,-4.5586,-4.5586,-4.5586,-4.5586,-4.5586,-4.624,-4.7029,-4.7914,-4.8683,-4.947,-5.0427,-5.0504,-5.0811,-5.1502,-5.1353,-5.1865,-5.3465,-5.3308,-5.3478,-5.41,-5.5119,-5.5946,-5.6512,-5.5946,-5.6096,-5.6887,-5.6887,-5.73,-5.8087,-5.8238,-5.9101,-6.0528,-6.0791,-6.1318,-6.2069,-6.2937,-6.4092,-6.5442,-6.6853,-6.7791,-6.8282,-6.7282,-6.5397,-6.2974,-4.157,-4.2168,-4.2935,-4.3536,-4.4179,-4.4479,-4.4034,-4.3156,-4.1804,-3.9657,-3.8848,-3.8013,-3.6752,-3.6277,-3.512,-3.2931,-3.1857,-3.0966,-2.9926,-2.9014,-2.8999,-3.0132,-3.1329,-3.3031,-3.5349,-3.7345,-3.8745,-3.9558,-3.9901,-4.0087,-4.0087,-4.0002,-3.9851,-3.9558,-3.9817,-3.9851,-3.9558,-3.9952,-4.0087,-4.0138,-4.0368,-4.008,-3.9611,-4.0535,-4.0479,-4.0075,-4.1669,-4.2221,-4.2342,-4.3214,-4.3631,-4.3823,-4.3974,-4.4146,-4.4318,-4.4318,-4.4065,-4.3804,-4.4081,-4.4415,-4.5369,-4.8196,-4.9224,-5.0452,-5.3757,-5.4522,-5.4436,-5.4035,-5.2626,-5.0779,-4.8625,-4.7163,-4.6163,-4.5663,-4.5586,-4.5586,-4.5586,-4.6355,-4.7201,-4.8009,-4.8856,-4.974,-5.0625,-5.0702,-5.101,-5.1856,-5.2154,-5.2855,-5.412,-5.4396,-5.4623,-5.4819,-5.4988,-5.5433,-5.6262,-5.5433,-5.5433,-5.6262,-5.6262,-5.6677,-5.7469,-5.7921,-5.8661,-5.9684,-6.0595,-6.1406,-6.2192,-6.3451,-6.4709,-6.5925,-6.763,-6.8751,-6.9256,-6.8371,-6.6679,-6.4436,-4.1539,-4.198,-4.2616,-4.3529,-4.3886,-4.3989,-4.4023,-4.3734,-4.2731,-4.0533,-4.0215,-3.9546,-3.7851,-3.7067,-3.602,-3.4149,-3.2457,-3.1102,-3.0184,-2.9757,-3.0025,-3.114,-3.2494,-3.4633,-3.7764,-3.8525,-3.9315,-4.0087,-4.0204,-4.0303,-4.0303,-4.0827,-4.0874,-4.0514,-4.092,-4.078,-4.0303,-4.0417,-4.0251,-3.9867,-4.0129,-3.9739,-3.9088,-3.9924,-3.9939,-3.9665,-4.1384,-4.2021,-4.2185,-4.3248,-4.3791,-4.4028,-4.4204,-4.4455,-4.4726,-4.4726,-4.4175,-4.3744,-4.4267,-4.4415,-4.5002,-4.7425,-4.8751,-5.038,-5.4011,-5.5366,-5.5873,-5.5977,-5.4511,-5.2433,-4.9856,-4.8048,-4.6624,-4.574,-4.5586,-4.5586,-4.5586,-4.6355,-4.7201,-4.8009,-4.8856,-4.974,-5.0625,-5.0702,-5.101,-5.1856,-5.2702,-5.3587,-5.4434,-5.5241,-5.5554,-5.5237,-5.4848,-5.4973,-5.5708,-5.5102,-5.5139,-5.5746,-5.5784,-5.6353,-5.7339,-5.7946,-5.8661,-5.948,-6.078,-6.1632,-6.219,-6.3869,-6.5016,-6.5903,-6.7818,-6.9015,-6.9485,-6.8844,-6.7417,-6.5365,-4.1714,-4.1556,-4.1616,-4.2617,-4.3471,-4.3895,-4.3497,-4.2881,-4.2499,-4.2723,-4.0941,-3.9723,-3.983,-3.8431,-3.6355,-3.3698,-3.3112,-3.2018,-2.9976,-3.0802,-3.1351,-3.1214,-3.3665,-3.5919,-3.7764,-3.8525,-3.9315,-4.0087,-4.0625,-4.0874,-4.0874,-4.1429,-4.1725,-4.1682,-4.1725,-4.1385,-4.0874,-4.1464,-4.0676,-3.9137,-4.0237,-3.9981,-3.9117,-4.0237,-4.071,-4.0909,-4.2185,-4.2616,-4.2772,-4.3652,-4.3967,-4.4117,-4.4787,-4.5033,-4.5055,-4.5055,-4.4535,-4.3912,-4.3671,-4.3571,-4.4158,-4.6617,-4.8123,-5.0202,-5.4711,-5.6034,-5.6446,-5.6851,-5.4934,-5.2433,-4.9856,-4.8048,-4.6624,-4.574,-4.5586,-4.5586,-4.5586,-4.6355,-4.7201,-4.8009,-4.8856,-4.974,-5.0625,-5.0702,-5.101,-5.1856,-5.2702,-5.3587,-5.4434,-5.5241,-5.5703,-5.5682,-5.5262,-5.5275,-5.5714,-5.5753,-5.583,-5.5868,-5.6082,-5.7027,-5.8572,-5.8649,-5.955,-6.1104,-6.1257,-6.132,-6.1505,-6.3185,-6.391,-6.4221,-6.6711,-6.7761,-6.7786,-6.7719,-6.6516,-6.4558,-4.1615,-4.165,-4.1867,-4.2321,-4.2547,-4.2733,-4.2989,-4.3382,-4.3373,-4.2566,-4.192,-4.1141,-4.0068,-3.847,-3.6974,-3.5608,-3.366,-3.232,-3.1932,-3.1575,-3.2065,-3.3579,-3.57,-3.7488,-3.9023,-3.9784,-4.046,-4.115,-4.1375,-4.1429,-4.1473,-4.2062,-4.218,-4.181,-4.2221,-4.2021,-4.1473,-4.1725,-4.092,-3.9525,-3.9956,-3.9675,-3.902,-3.9512,-3.9959,-4.0528,-4.1725,-4.2103,-4.2346,-4.3582,-4.4146,-4.4455,-4.4943,-4.5243,-4.5303,-4.4919,-4.4938,-4.499,-4.4402,-4.4232,-4.489,-4.7601,-4.9033,-5.075,-5.4524,-5.5892,-5.6358,-5.6236,-5.4587,-5.2433,-4.9856,-4.8048,-4.6778,-4.6471,-4.5932,-4.5778,-4.6317,-4.6701,-4.7201,-4.8009,-4.8856,-4.974,-5.0625,-5.0702,-5.1241,-5.2626,-5.301,-5.3818,-5.5164,-5.5511,-5.5703,-5.5703,-5.5631,-5.5669,-5.5818,-5.5857,-5.5962,-5.6078,-5.6675,-5.7295,-5.7931,-5.9032,-5.9886,-6.0515,-6.1081,-6.166,-6.2313,-6.3515,-6.4364,-6.5121,-6.7151,-6.7971,-6.7893,-6.7381,-6.5965,-6.4037,-4.1897,-4.1778,-4.1841,-4.2152,-4.1933,-4.1858,-4.2351,-4.3089,-4.3272,-4.2371,-4.1788,-4.1119,-4.0165,-3.8474,-3.715,-3.6501,-3.4537,-3.3307,-3.3295,-3.2816,-3.3306,-3.5211,-3.7335,-3.8904,-3.9895,-4.0896,-4.1591,-4.2092,-4.2325,-4.2402,-4.2402,-4.3032,-4.3032,-4.251,-4.2923,-4.2736,-4.2103,-4.2016,-4.1079,-3.9661,-3.9417,-3.9029,-3.8547,-3.8785,-3.9378,-4.0206,-4.1611,-4.2149,-4.2436,-4.3738,-4.4428,-4.4825,-4.5159,-4.5419,-4.5457,-4.48,-4.5092,-4.544,-4.5004,-4.4946,-4.5704,-4.8352,-4.9776,-5.1285,-5.4101,-5.5479,-5.5949,-5.5083,-5.378,-5.201,-4.9471,-4.8048,-4.7201,-4.6932,-4.6394,-4.6201,-4.6817,-4.6663,-4.6894,-4.7971,-4.8625,-4.9433,-5.0587,-5.0702,-5.1164,-5.2318,-5.2895,-5.3933,-5.5588,-5.5703,-5.5703,-5.5703,-5.5818,-5.6077,-5.6384,-5.6154,-5.6136,-5.6276,-5.7138,-5.7712,-5.8024,-5.9474,-6.0254,-6.0566,-6.1456,-6.2218,-6.2975,-6.4388,-6.5397,-6.6133,-6.7617,-6.8203,-6.8047,-6.6914,-6.5312,-6.3352,-4.2616,-4.1919,-4.1446,-4.2159,-4.1798,-4.1414,-4.1569,-4.1594,-4.1832,-4.2513,-4.0329,-3.9185,-4.0354,-3.8553,-3.6798,-3.586,-3.5732,-3.507,-3.3713,-3.4691,-3.5441,-3.5633,-3.8294,-3.9944,-4.0297,-4.164,-4.2486,-4.28,-4.3441,-4.37,-4.37,-4.4325,-4.4373,-4.3998,-4.3998,-4.352,-4.2696,-4.241,-4.1216,-3.9438,-3.8699,-3.8023,-3.7594,-3.84,-3.9163,-4.006,-4.2016,-4.2923,-4.3339,-4.4308,-4.4825,-4.5159,-4.5475,-4.5586,-4.5457,-4.48,-4.4849,-4.5133,-4.5177,-4.5498,-4.6337,-4.8445,-5.0194,-5.1801,-5.3519,-5.481,-5.5203,-5.351,-5.2472,-5.1125,-4.8548,-4.8086,-4.7817,-4.7048,-4.6894,-4.6894,-4.6932,-4.6163,-4.624,-4.7894,-4.8125,-4.8779,-5.051,-5.0702,-5.0702,-5.0702,-5.2279,-5.3933,-5.5588,-5.5703,-5.5703,-5.5703,-5.5818,-5.6402,-5.7398,-5.675,-5.6417,-5.64,-5.7453,-5.8359,-5.9219,-6.0039,-6.0898,-6.1758,-6.2617,-6.3008,-6.3203,-6.582,-6.6914,-6.6992,-6.7851,-6.8203,-6.7969,-6.6211,-6.4414,-6.2532,-4.3036,-4.2585,-4.201,-4.1707,-4.1169,-4.0708,-4.0635,-4.1282,-4.1882,-4.2334,-4.128,-4.082,-4.1601,-3.9496,-3.812,-3.862,-3.7206,-3.596,-3.5346,-3.662,-3.7442,-3.7522,-3.9064,-4.0795,-4.2627,-4.3175,-4.366,-4.4046,-4.4282,-4.4372,-4.4325,-4.4535,-4.4373,-4.3998,-4.3998,-4.3721,-4.3249,-4.2548,-4.1431,-3.9982,-3.8854,-3.8263,-3.8128,-3.8529,-3.9382,-4.0623,-4.2375,-4.3137,-4.3369,-4.4575,-4.5011,-4.5159,-4.5475,-4.5586,-4.5494,-4.5055,-4.543,-4.5879,-4.5677,-4.6301,-4.7289,-4.8541,-4.9201,-4.9954,-5.1344,-5.191,-5.1856,-5.0741,-4.9856,-4.8817,-4.7509,-4.6778,-4.6663,-4.7586,-4.6778,-4.6624,-4.8394,-4.7432,-4.7124,-4.8817,-4.9009,-4.9471,-5.0587,-5.1202,-5.1818,-5.2395,-5.401,-5.5164,-5.5665,-5.578,-5.6109,-5.6746,-5.7016,-5.7562,-5.8431,-5.7698,-5.7373,-5.7467,-5.8938,-5.9492,-5.9258,-6.0664,-6.1445,-6.1758,-6.2617,-6.3359,-6.4062,-6.6055,-6.7265,-6.7851,-6.8086,-6.7812,-6.707,-6.5312,-6.3164,-6.0976,-4.2749,-4.236,-4.1888,-4.1478,-4.0939,-4.0537,-4.0424,-4.0902,-4.1193,-4.1078,-4.032,-4.0031,-4.0756,-3.9322,-3.8773,-3.9884,-3.8419,-3.7312,-3.6957,-3.769,-3.835,-3.8802,-3.9986,-4.1539,-4.3428,-4.4109,-4.4638,-4.5071,-4.512,-4.5111,-4.5125,-4.5065,-4.48,-4.4298,-4.4224,-4.3788,-4.2947,-4.2176,-4.1165,-4.0017,-3.8726,-3.8183,-3.818,-3.8656,-3.9514,-4.0727,-4.2436,-4.3341,-4.3916,-4.4811,-4.5201,-4.5323,-4.555,-4.5586,-4.555,-4.5201,-4.5524,-4.5927,-4.5632,-4.6115,-4.687,-4.7406,-4.8286,-4.9231,-5.0009,-5.0202,-4.9856,-4.8702,-4.8009,-4.7471,-4.7009,-4.674,-4.7009,-4.8394,-4.774,-4.7625,-4.9163,-4.824,-4.7894,-4.924,-4.9394,-4.974,-5.0625,-5.1433,-5.2433,-5.3703,-5.4703,-5.5493,-5.5857,-5.5994,-5.6405,-5.7228,-5.7564,-5.8252,-5.9391,-5.8971,-5.8655,-5.8437,-5.9765,-6.0156,-5.9726,-6.1094,-6.1719,-6.1758,-6.3008,-6.4023,-6.4961,-6.7031,-6.8398,-6.914,-6.8828,-6.8164,-6.7109,-6.4687,-6.2344,-6.0234,-4.1982,-4.1646,-4.1358,-4.1314,-4.0976,-4.0677,-4.0677,-4.0501,-4.012,-3.9335,-3.8199,-3.777,-3.8536,-3.8429,-3.8693,-3.9769,-3.9207,-3.8682,-3.8365,-3.8073,-3.8437,-3.9524,-4.0822,-4.2028,-4.3013,-4.4528,-4.546,-4.5791,-4.5802,-4.584,-4.5863,-4.5825,-4.54,-4.4737,-4.4675,-4.3784,-4.2312,-4.1507,-4.0698,-3.9822,-3.8458,-3.7928,-3.807,-3.8794,-3.966,-4.0633,-4.2254,-4.3605,-4.4701,-4.5011,-4.5361,-4.5586,-4.5586,-4.5586,-4.555,-4.5222,-4.5381,-4.555,-4.5222,-4.5381,-4.5624,-4.5624,-4.7355,-4.9086,-4.9086,-4.9086,-4.8663,-4.7201,-4.6835,-4.6852,-4.6971,-4.7548,-4.8317,-4.924,-4.9317,-4.9356,-4.9586,-4.8894,-4.8663,-4.9625,-4.974,-5.0048,-5.0856,-5.1664,-5.2895,-5.4685,-5.4801,-5.5206,-5.6133,-5.6207,-5.6598,-5.7519,-5.7735,-5.8638,-6.0299,-6.0457,-6.0117,-5.9336,-6.0117,-6.0469,-6.043,-6.1289,-6.1678,-6.179,-6.3554,-6.4726,-6.5664,-6.832,-6.9844,-7.039,-6.9687,-6.8789,-6.7539,-6.414,-6.1797,-6.0039,-4.18,-4.1775,-4.1464,-4.0795,-4.063,-4.0562,-4.0562,-4.0327,-4.0019,-3.963,-3.8644,-3.7946,-3.7976,-3.7521,-3.7398,-3.7862,-3.806,-3.8167,-3.8115,-3.8115,-3.8485,-3.9308,-4.0392,-4.1542,-4.2678,-4.4404,-4.5427,-4.5621,-4.5735,-4.5819,-4.581,-4.5716,-4.5479,-4.517,-4.5023,-4.4283,-4.3015,-4.194,-4.1014,-4.0073,-3.8518,-3.8132,-3.8538,-3.8969,-3.9999,-4.1505,-4.2742,-4.3969,-4.5033,-4.5381,-4.555,-4.5586,-4.5586,-4.5586,-4.5586,-4.5494,-4.555,-4.5586,-4.5532,-4.5627,-4.5757,-4.5757,-4.6219,-4.6642,-4.6604,-4.6642,-4.6565,-4.6219,-4.6074,-4.6225,-4.6891,-4.7086,-4.7663,-4.9163,-4.8817,-4.9086,-5.1087,-5.0664,-5.0702,-5.2202,-5.2395,-5.2433,-5.2626,-5.3433,-5.4395,-5.557,-5.5647,-5.5788,-5.6187,-5.6289,-5.704,-5.853,-5.8778,-5.9661,-6.1362,-6.14,-6.0976,-6.0156,-6.1015,-6.1055,-6.043,-6.1289,-6.1641,-6.1655,-6.3506,-6.4336,-6.4687,-6.8008,-6.914,-6.8711,-6.8555,-6.7539,-6.582,-6.3008,-6.0898,-5.9214,-4.0937,-4.1097,-4.1046,-4.0585,-4.0508,-4.0508,-4.0508,-4.0139,-3.9637,-3.9035,-3.7842,-3.6899,-3.6284,-3.6103,-3.6277,-3.6907,-3.6993,-3.6923,-3.6759,-3.6861,-3.7147,-3.7542,-3.9181,-4.0542,-4.132,-4.329,-4.4581,-4.5187,-4.5448,-4.558,-4.5606,-4.5698,-4.5609,-4.5324,-4.5243,-4.4315,-4.2772,-4.2107,-4.1033,-3.9621,-3.8803,-3.8548,-3.8731,-3.8838,-4.0031,-4.1698,-4.2485,-4.384,-4.5381,-4.555,-4.5586,-4.5586,-4.5586,-4.5586,-4.5586,-4.5586,-4.5624,-4.5719,-4.5719,-4.5757,-4.5847,-4.5838,-4.5905,-4.5962,-4.5891,-4.588,-4.5916,-4.6001,-4.5905,-4.624,-4.7465,-4.7625,-4.8125,-4.974,-4.9625,-4.9817,-5.1125,-5.1318,-5.1625,-5.2569,-5.3031,-5.3492,-5.3954,-5.4416,-5.507,-5.6071,-5.6148,-5.6201,-5.6374,-5.6446,-5.7075,-5.8371,-5.8915,-5.9822,-6.1078,-6.1499,-6.1484,-6.1015,-6.1484,-6.1445,-6.1015,-6.1424,-6.1578,-6.162,-6.3332,-6.4267,-6.4788,-6.7535,-6.8437,-6.8047,-6.7695,-6.6523,-6.4726,-6.25,-6.039,-5.8352,-4.012,-4.0321,-4.0508,-4.0508,-4.0508,-4.0508,-4.0508,-4.0004,-3.9189,-3.8065,-3.6641,-3.5346,-3.4139,-3.4229,-3.4758,-3.5841,-3.5545,-3.5221,-3.4914,-3.5031,-3.5241,-3.5508,-3.7585,-3.9078,-3.9947,-4.1707,-4.3254,-4.4535,-4.4993,-4.5208,-4.5302,-4.5616,-4.5624,-4.5362,-4.5234,-4.4162,-4.245,-4.2123,-4.0939,-3.9264,-3.9212,-3.9073,-3.8862,-3.8862,-4.0085,-4.1815,-4.2095,-4.3649,-4.5586,-4.5586,-4.5586,-4.5586,-4.5586,-4.5586,-4.5586,-4.5624,-4.5719,-4.5813,-4.5803,-4.5847,-4.5912,-4.5909,-4.6008,-4.6074,-4.5917,-4.5956,-4.6005,-4.6073,-4.5997,-4.6424,-4.8034,-4.8309,-4.8817,-5.0317,-5.0664,-5.0837,-5.0952,-5.1684,-5.2299,-5.255,-5.3359,-5.4226,-5.5036,-5.5113,-5.5499,-5.6361,-5.6379,-5.6451,-5.66,-5.6601,-5.6992,-5.7851,-5.8594,-5.9375,-6.0195,-6.1055,-6.1484,-6.1484,-6.1629,-6.1668,-6.1718,-6.1546,-6.1497,-6.1535,-6.2998,-6.3998,-6.4765,-6.6642,-6.7333,-6.7187,-6.664,-6.5469,-6.3867,-6.2109,-5.9957,-5.7724,-4.012,-4.0321,-4.0508,-4.0508,-4.0508,-4.0508,-4.0508,-4.0004,-3.9039,-3.7435,-3.5855,-3.4174,-3.2276,-3.1845,-3.2088,-3.303,-3.3055,-3.2998,-3.2986,-3.3071,-3.3701,-3.5213,-3.5574,-3.7025,-3.9778,-4.0124,-4.1428,-4.3818,-4.4421,-4.4735,-4.4805,-4.5085,-4.5258,-4.5304,-4.4828,-4.4043,-4.3008,-4.2015,-4.1008,-4.0036,-3.9662,-3.9486,-3.95,-3.95,-4.073,-4.2476,-4.2519,-4.3829,-4.5586,-4.5586,-4.5586,-4.5586,-4.5586,-4.5586,-4.5624,-4.5757,-4.5796,-4.5803,-4.5886,-4.5982,-4.6066,-4.5941,-4.6014,-4.6057,-4.5928,-4.608,-4.6207,-4.6122,-4.6087,-4.6362,-4.7371,-4.8044,-4.8779,-4.976,-5.0548,-5.1299,-5.1973,-5.2839,-5.3648,-5.4434,-5.5281,-5.5862,-5.6018,-5.6018,-5.6132,-5.6382,-5.6379,-5.6451,-5.66,-5.6601,-5.6992,-5.7851,-5.8008,-5.8476,-5.9336,-6.0156,-6.0586,-6.0586,-6.12,-6.1577,-6.1718,-6.1546,-6.1458,-6.1381,-6.2329,-6.2737,-6.2805,-6.469,-6.5129,-6.4609,-6.4492,-6.3945,-6.2969,-6.1211,-5.9381,-5.7657,-4.0042,-4.0321,-4.0508,-4.0508,-4.0508,-4.0508,-4.0508,-4.0004,-3.9127,-3.7833,-3.6023,-3.4153,-3.2374,-3.1059,-3.058,-3.1173,-3.1156,-3.1071,-3.1071,-3.1532,-3.2234,-3.2905,-3.4381,-3.586,-3.7213,-3.8944,-4.0363,-4.1517,-4.3057,-4.4005,-4.4315,-4.4706,-4.4669,-4.4278,-4.4238,-4.3534,-4.2339,-4.1879,-4.1119,-4.0169,-3.9986,-3.9775,-3.958,-3.958,-4.0539,-4.2028,-4.3159,-4.4438,-4.5586,-4.5586,-4.5586,-4.5586,-4.5586,-4.5624,-4.5719,-4.5796,-4.5873,-4.5943,-4.5923,-4.5659,-4.5385,-4.5277,-4.4927,-4.4691,-4.5026,-4.5281,-4.5523,-4.6012,-4.6094,-4.6523,-4.7891,-4.8396,-4.9031,-5.0325,-5.084,-5.1242,-5.1591,-5.2768,-5.4126,-5.5553,-5.6158,-5.6402,-5.6402,-5.6402,-5.6458,-5.6524,-5.6514,-5.6556,-5.6601,-5.6601,-5.6797,-5.7148,-5.7656,-5.8086,-5.8476,-5.9297,-5.966,-5.9593,-5.9882,-6.0596,-6.1577,-6.133,-6.1189,-6.1189,-6.1959,-6.2267,-6.2281,-6.369,-6.3806,-6.312,-6.3202,-6.2473,-6.1225,-6.0477,-5.9065,-5.7521]}]]